GFSMW_925_thetae_000.txt.gz
Theta_e
315 317 319 323 326 327 327 330 336 334 333 325 316 313 310 311 309 307 307 306 305 304 304 302 301 300 298 297 297 296 296 297 297 299 298 300 299 300 296 298 296 299 296
314 315 320 325 327 329 328 330 328 325 328 325 320 316 310 307 306 305 303 304 304 302 301 299 298 298 296 295 295 295 295 296 295 297 297 297 298 298 295 297 296 296 296
316 316 319 324 327 329 330 328 325 326 326 322 316 309 307 305 303 302 302 301 301 300 299 298 297 296 295 294 294 293 293 293 293 296 296 296 296 295 297 294 296 294 295
315 316 317 319 325 327 329 328 326 325 322 317 312 308 306 305 304 303 301 300 299 298 297 296 295 294 294 293 293 292 292 292 292 293 294 293 294 293 293 294 293 294 292
316 317 317 318 322 323 325 326 324 320 316 314 310 307 307 308 305 302 300 299 298 297 295 294 294 293 293 292 292 291 291 291 291 291 291 291 292 292 292 291 291 292 292
314 315 316 316 318 319 320 320 319 316 315 312 309 309 308 306 304 300 299 298 297 295 294 293 292 292 292 291 291 291 290 290 290 290 290 290 291 290 290 290 290 290 291
314 315 314 312 311 313 316 317 316 314 313 311 310 309 307 305 302 300 299 297 296 294 293 292 292 291 290 290 290 290 290 290 289 289 289 289 288 289 290 290 288 289 290
315 315 313 311 310 310 311 311 312 310 310 309 308 307 304 302 300 299 297 296 294 293 292 291 291 290 290 289 289 289 289 289 289 288 288 288 287 287 287 287 288 288 288
315 314 312 310 309 309 309 309 308 307 307 307 305 303 302 301 299 296 296 295 293 292 291 291 290 289 289 289 289 289 289 288 288 288 287 287 286 286 286 286 287 288 288
315 313 312 310 309 309 308 308 307 305 303 303 302 301 299 298 296 295 294 293 292 291 290 290 289 289 289 289 289 289 288 288 288 287 287 287 287 286 286 286 287 287 287
315 314 312 311 309 308 307 306 304 302 301 300 299 298 296 295 294 294 293 292 291 290 289 289 289 289 289 289 288 288 288 288 287 287 287 287 286 286 285 286 286 286 287
314 313 312 308 307 306 305 304 301 300 299 298 296 295 294 294 293 293 292 291 290 289 289 288 288 288 288 288 288 288 288 288 287 287 287 286 285 285 285 286 286 286 287
312 312 309 307 306 304 303 302 300 298 297 296 295 293 293 293 293 292 291 290 290 289 288 288 288 288 288 288 287 287 288 287 287 287 286 285 285 285 285 286 286 287 287
313 312 309 306 304 303 302 300 298 297 295 295 293 293 292 292 292 291 290 289 288 288 288 288 288 288 287 287 287 288 288 287 287 286 286 285 285 285 286 286 287 286 285
313 311 308 305 303 301 300 299 296 295 294 293 293 292 292 291 291 290 289 288 288 288 287 287 287 287 286 286 287 287 287 287 286 286 285 285 285 286 286 286 286 286 286
313 310 308 305 302 300 298 297 295 294 293 293 292 291 291 290 290 289 288 288 287 287 287 287 286 286 285 285 287 287 286 286 285 285 285 285 285 285 285 285 285 286 287
312 310 307 304 301 299 298 295 294 293 292 292 291 290 290 289 289 288 287 287 287 287 287 286 285 285 284 285 286 286 286 285 285 284 284 284 284 285 285 285 285 285 286
310 307 303 300 299 298 297 295 293 292 291 291 290 290 289 288 288 287 287 286 287 286 286 285 284 284 283 284 285 285 285 284 284 284 284 284 285 284 285 285 285 286 283
303 301 300 298 297 296 295 293 292 291 290 289 289 288 288 287 287 286 286 286 286 285 285 284 284 283 283 283 284 285 284 284 284 284 284 284 284 284 285 286 285 282 281
297 296 295 295 296 294 294 292 290 290 289 288 288 287 287 287 286 286 286 285 285 284 284 283 283 283 283 283 284 284 284 284 283 284 284 284 284 285 286 284 282 281 281
294 294 294 293 293 293 292 290 289 288 288 287 287 287 286 286 285 286 285 284 284 283 283 283 283 283 283 282 283 284 284 284 284 285 285 284 285 284 283 282 280 281 282
293 293 291 290 291 291 291 288 288 287 287 287 286 286 285 285 285 285 284 283 283 283 282 282 283 283 282 282 283 284 285 285 285 285 284 284 283 282 281 280 281 281 281
291 291 289 289 290 290 291 288 286 286 286 286 285 285 284 285 284 283 283 282 282 282 282 282 282 282 282 282 282 283 284 284 284 284 284 282 281 280 279 279 280 280 279
290 289 289 288 287 288 289 288 286 286 285 285 284 284 284 284 283 283 282 282 282 282 282 282 282 282 282 282 283 284 283 283 284 283 281 280 279 279 279 278 278 278 279
290 290 288 286 286 287 287 286 285 285 284 284 283 283 283 283 282 282 281 282 282 282 282 282 282 282 282 282 283 283 284 283 283 282 279 279 278 278 278 278 278 278 278
290 289 288 286 285 285 285 285 284 284 283 283 282 282 282 282 282 281 281 281 281 281 282 281 282 282 282 282 282 283 283 282 281 279 278 278 278 278 278 278 278 278 278

GFSMW_925_thetae_003.txt.gz
Theta_e
313 316 319 322 325 326 329 334 338 338 336 329 325 317 316 313 311 309 308 306 305 305 304 303 301 298 297 295 294 294 294 294 294 296 296 299 299 299 298 296 295 296 295
314 313 316 321 325 325 325 332 335 330 329 329 327 322 312 307 305 303 304 304 304 303 302 300 299 297 295 294 293 293 292 292 293 295 295 295 296 298 297 295 294 296 293
314 312 315 321 325 326 325 329 324 325 330 326 321 315 306 303 301 302 302 302 302 301 300 299 297 295 294 293 292 292 291 292 292 294 293 291 293 293 295 293 294 292 293
313 314 317 320 324 326 326 325 324 326 327 323 319 313 304 302 301 302 301 300 300 299 298 297 295 294 293 292 291 291 291 291 291 291 290 290 292 292 291 292 291 292 291
314 315 318 320 325 326 325 323 324 325 322 321 321 310 305 304 302 301 300 300 298 297 296 295 293 293 292 291 291 290 290 290 290 289 289 289 289 290 290 289 289 289 289
313 315 316 320 321 323 324 323 323 321 320 319 315 311 306 304 301 299 299 298 297 296 295 293 292 292 291 290 290 290 289 289 289 288 288 288 288 288 288 287 288 287 287
313 315 315 315 315 318 321 321 321 317 315 314 310 307 307 306 303 301 299 297 296 295 294 292 291 290 290 289 289 289 289 289 288 288 287 287 287 286 287 287 286 286 286
314 316 316 315 313 314 316 316 318 315 313 311 308 308 308 306 303 301 299 297 296 295 293 291 290 290 289 289 289 289 289 288 288 287 287 287 286 286 286 286 286 285 286
314 316 313 311 310 311 313 316 315 314 312 310 309 308 306 303 301 298 297 296 294 293 291 290 289 289 289 289 289 288 288 288 287 287 287 286 286 286 286 285 285 285 286
315 314 311 308 308 310 311 313 313 312 309 308 307 304 301 300 298 297 296 294 293 291 290 289 289 288 288 288 288 288 288 287 287 287 287 287 286 286 285 285 285 285 286
314 312 310 307 306 307 307 307 308 307 305 304 302 300 298 297 296 296 294 293 292 290 289 289 288 288 288 288 288 287 287 287 287 287 287 286 286 285 285 284 285 285 285
313 311 309 305 305 304 304 304 303 302 301 300 299 297 296 295 295 294 293 291 290 289 288 288 288 288 288 287 287 287 287 287 287 287 287 286 286 285 285 285 285 285 285
312 309 307 306 304 302 302 301 300 299 298 297 296 295 294 294 293 293 291 290 289 288 288 288 288 288 287 287 286 287 287 287 287 286 286 286 285 285 285 285 285 285 286
313 310 308 304 303 301 300 299 298 297 296 296 295 294 293 293 292 291 290 289 288 288 288 288 287 287 286 285 287 287 287 286 286 285 285 285 285 285 285 285 286 286 285
312 310 307 304 301 300 299 298 297 296 295 295 294 293 292 292 291 290 289 288 288 288 288 287 286 286 285 285 287 287 286 286 284 284 284 284 284 285 285 286 285 285 285
312 310 307 303 300 298 296 296 295 295 295 294 293 292 291 291 290 289 288 288 287 288 287 286 285 285 284 285 287 287 286 285 284 283 283 284 284 284 284 284 285 285 286
311 309 306 303 299 297 297 295 294 293 293 292 292 291 290 290 289 288 287 287 287 287 286 285 284 284 284 285 286 286 285 284 283 283 283 283 283 284 284 284 285 286 286
309 306 303 299 298 298 296 294 293 292 292 291 290 290 290 289 288 287 287 287 286 286 285 284 284 283 283 284 285 285 285 284 284 283 283 284 284 284 284 286 285 283 282
305 302 300 297 296 296 294 293 292 291 291 290 290 289 289 288 287 286 286 286 286 285 284 284 283 283 283 283 284 285 284 284 284 284 284 284 284 284 286 285 283 282 281
298 296 295 295 295 293 294 292 290 290 289 289 288 288 287 287 286 286 285 285 284 284 283 283 283 283 282 282 284 284 284 284 284 284 284 284 284 284 285 283 282 280 280
293 294 294 292 291 292 292 290 289 289 288 288 287 287 286 286 285 285 285 284 283 283 282 283 283 282 282 282 283 284 285 285 285 284 283 283 284 283 283 282 280 281 283
292 291 290 289 291 292 292 289 288 287 287 287 286 286 285 285 285 284 284 283 282 282 282 282 282 282 282 282 282 284 284 285 284 284 283 283 283 282 281 280 281 281 281
289 290 289 288 290 291 291 288 286 286 286 286 285 284 284 284 284 283 282 282 282 281 282 282 282 281 281 281 282 283 284 284 284 283 283 282 281 280 279 279 280 280 278
288 288 288 287 286 288 289 288 286 286 285 284 284 283 283 283 283 282 282 281 281 281 282 282 281 281 281 281 282 283 283 284 283 282 281 280 279 278 278 278 278 278 278
288 288 287 286 285 287 286 285 285 285 284 283 283 283 283 282 282 281 281 281 281 282 282 282 281 281 281 282 283 283 284 283 282 282 279 278 278 277 277 277 277 277 277
288 287 286 286 285 285 285 284 284 284 284 283 282 282 282 282 281 281 280 280 281 281 281 281 281 281 281 282 282 283 282 282 280 279 278 277 277 277 277 277 277 277 277

GFSMW_925_thetae_006.txt.gz
Theta_e
314 315 316 318 324 326 330 335 338 338 336 331 326 321 321 320 319 315 312 308 305 305 305 304 301 299 297 294 293 293 292 292 293 294 294 297 297 297 298 295 295 295 294
313 313 315 319 323 325 330 336 337 335 331 330 327 327 319 312 310 306 303 303 304 304 304 302 300 296 295 293 292 292 292 292 292 291 293 292 294 294 295 294 294 293 293
314 312 311 317 322 323 326 334 334 328 327 329 324 320 310 304 302 301 301 302 302 302 301 299 297 295 294 292 291 291 291 291 291 292 291 289 290 291 293 293 292 292 291
312 312 311 316 321 323 323 329 329 324 329 325 324 321 306 301 300 301 301 300 300 300 298 297 296 294 292 292 291 290 290 290 289 290 289 289 290 289 289 291 289 290 288
313 312 313 316 321 324 323 324 322 324 324 322 326 314 307 303 301 300 300 299 298 297 296 295 294 293 291 291 290 290 289 289 288 288 288 288 288 289 287 287 287 287 287
311 312 314 318 321 323 321 320 320 320 319 319 319 321 310 302 300 299 299 297 296 295 295 294 292 291 290 290 289 289 289 289 288 288 287 287 287 287 286 285 286 286 286
310 313 315 318 318 319 318 317 318 315 317 322 319 319 309 303 302 300 299 297 296 295 293 292 291 290 289 289 289 289 289 288 288 287 287 287 286 286 286 286 285 285 285
310 314 316 318 317 317 316 316 316 316 315 315 312 310 306 304 302 300 299 297 296 294 292 291 290 289 289 289 289 289 288 288 287 287 287 287 286 286 286 285 285 284 284
311 313 315 316 315 315 315 316 316 316 313 312 309 306 305 304 301 299 297 296 294 292 291 290 289 288 288 289 289 288 288 287 287 287 287 286 286 286 286 285 285 284 284
311 313 313 310 312 313 314 316 317 314 311 309 307 306 305 303 300 298 296 294 293 292 290 289 288 288 288 288 288 287 287 287 287 287 287 287 286 286 286 285 284 284 284
312 313 311 308 307 310 311 312 312 310 307 306 305 304 300 299 297 296 294 293 292 290 289 288 288 288 288 288 287 287 287 287 287 287 286 286 286 286 285 285 284 284 284
312 310 306 305 304 303 305 306 306 306 305 303 301 299 297 296 295 293 292 291 290 289 288 288 288 288 288 287 286 286 287 287 287 286 285 285 285 285 285 285 284 284 285
309 306 305 304 302 300 300 301 302 301 300 299 298 295 295 294 293 292 291 290 289 288 288 288 288 287 287 286 286 287 287 287 286 285 284 284 284 284 284 284 284 284 284
309 307 305 303 300 298 297 297 297 298 297 296 296 294 293 293 292 291 290 289 288 288 288 288 287 286 286 285 286 287 287 286 286 284 284 283 283 284 284 284 285 285 284
310 308 305 301 298 296 296 295 295 295 295 295 294 293 292 292 291 290 289 288 287 288 287 287 286 286 285 284 286 287 287 286 285 283 283 283 283 284 284 285 284 284 285
311 308 305 301 298 295 293 293 293 294 295 293 292 291 291 291 290 289 288 287 287 287 287 286 285 285 284 284 287 287 287 285 284 283 283 283 283 283 284 284 285 286 287
310 307 304 301 297 294 294 293 293 293 293 292 291 290 290 290 289 288 287 287 287 286 286 285 284 284 283 284 286 286 286 285 284 284 284 284 284 284 284 284 285 285 284
309 306 302 298 295 295 295 294 293 293 292 291 290 290 290 288 287 287 286 286 286 286 285 284 284 283 283 284 284 285 285 284 284 284 284 284 284 284 284 285 285 283 282
306 302 300 296 294 294 294 293 291 291 290 290 290 289 288 287 286 286 286 286 285 285 284 283 283 283 283 282 283 285 284 284 284 284 284 284 284 284 285 285 283 282 281
299 297 295 293 293 291 292 291 290 290 289 289 288 288 287 286 286 285 285 284 284 283 283 283 282 282 282 282 283 284 284 284 284 284 283 283 284 284 285 284 282 280 280
294 294 293 291 289 291 292 289 289 288 288 287 287 286 286 286 285 285 284 283 283 283 282 282 282 282 282 281 282 284 284 284 284 283 284 283 283 283 283 282 280 280 282
292 291 290 288 289 291 291 288 287 287 287 286 286 285 285 284 284 284 283 283 282 282 281 282 282 282 281 281 282 283 284 284 284 284 283 283 283 282 281 280 280 281 281
290 289 288 287 289 290 290 286 285 286 286 286 285 284 284 283 283 283 283 282 281 281 282 282 281 281 281 281 281 282 283 283 284 283 283 282 281 279 278 279 280 279 277
288 288 287 285 285 288 288 286 285 286 286 284 284 283 284 283 283 282 282 281 281 281 282 281 281 281 281 281 281 282 283 283 282 282 281 280 278 278 278 277 277 277 277
287 287 286 284 284 286 285 285 285 285 284 283 283 283 283 282 282 281 281 281 281 281 282 281 281 281 281 281 282 282 284 282 282 281 279 277 277 277 277 277 277 277 277
286 285 284 284 284 285 284 284 284 285 284 282 282 283 282 281 281 281 280 280 280 281 281 280 280 280 281 281 281 283 282 281 280 279 277 277 277 276 276 276 276 276 276

GFSMW_925_thetae_009.txt.gz
Theta_e
318 317 318 319 318 320 323 327 333 335 337 337 331 325 325 324 322 321 317 313 306 305 305 304 302 300 298 295 294 293 292 292 292 294 295 295 295 298 297 295 294 293 293
318 317 315 316 317 321 325 333 332 333 334 332 325 327 321 315 314 310 307 304 304 304 304 303 300 297 295 293 293 293 292 291 291 292 293 296 296 295 293 294 293 292 292
316 318 315 315 317 322 326 333 331 327 327 327 325 320 315 309 305 301 301 301 302 302 302 300 298 296 294 293 292 291 291 292 291 290 292 294 294 292 293 293 292 291 290
315 317 316 314 317 321 324 330 327 325 324 328 327 326 312 305 300 301 300 300 300 300 299 298 296 294 293 292 291 290 290 290 290 290 289 289 290 292 292 291 291 289 288
315 316 316 315 316 320 323 329 325 322 326 328 327 318 308 305 301 299 299 298 297 298 297 296 294 293 292 291 290 290 289 289 289 289 289 289 289 290 290 290 290 289 289
315 315 314 314 317 320 322 324 320 320 320 321 318 317 316 303 299 298 297 296 296 295 294 293 293 292 291 290 289 289 289 289 288 287 287 288 288 289 288 289 289 289 288
313 313 314 317 318 319 318 318 317 316 316 315 316 316 320 307 301 299 297 296 295 294 293 292 291 291 290 289 289 289 289 288 288 287 287 287 287 287 287 287 288 288 287
312 312 315 318 319 318 316 316 315 313 313 312 313 312 319 304 301 300 298 297 296 294 293 292 291 290 289 289 289 289 288 288 287 287 287 287 287 286 286 287 287 288 288
312 313 315 317 318 317 316 316 314 312 311 315 311 313 309 303 301 299 297 296 295 293 292 291 290 289 289 289 289 288 288 287 287 287 287 287 286 286 286 286 286 286 287
311 312 315 317 317 317 315 315 314 312 313 313 310 307 302 301 299 297 296 295 293 292 291 290 289 288 288 289 288 288 287 287 287 287 286 286 286 285 285 286 286 285 285
311 313 315 314 315 313 313 313 312 312 310 307 306 303 300 299 298 296 294 293 292 291 290 289 288 288 288 288 288 287 287 287 287 286 285 285 285 285 285 285 285 285 285
310 313 311 308 309 310 308 308 307 308 306 305 303 301 299 298 296 294 293 292 291 289 289 288 288 288 288 287 287 287 287 287 286 286 285 285 284 284 284 284 284 284 285
308 307 307 308 307 305 303 302 303 303 302 302 300 297 295 294 293 292 291 290 290 289 288 288 288 288 287 287 286 286 287 287 286 286 284 283 283 283 283 284 284 284 285
308 307 306 305 303 301 299 297 297 300 299 298 296 294 293 293 292 291 290 289 288 288 288 288 287 287 287 286 285 287 287 287 286 286 284 283 283 283 284 284 285 285 284
309 307 305 302 298 296 295 294 294 295 296 295 293 292 292 291 290 290 289 288 288 288 288 287 287 286 286 285 286 287 287 286 286 285 284 283 284 284 285 285 285 285 285
309 306 303 300 298 296 294 292 292 293 294 293 292 291 290 290 289 288 288 287 288 287 287 286 286 285 284 284 287 287 287 286 285 284 284 284 284 284 284 284 284 285 287
309 305 302 300 296 294 292 291 292 293 293 292 290 290 290 289 288 287 287 287 287 286 286 285 285 284 283 284 286 286 286 285 284 284 284 284 284 284 283 284 285 286 285
308 305 301 296 293 292 292 291 291 292 291 290 289 289 289 288 287 287 287 286 286 285 285 284 283 283 283 283 284 285 285 284 284 284 284 284 283 283 284 285 286 284 283
307 303 299 295 293 291 291 291 290 290 290 289 289 288 288 287 287 286 286 285 285 284 284 283 283 282 282 282 283 284 284 284 284 284 284 284 284 284 284 285 284 283 282
301 298 295 293 291 290 290 290 289 289 288 288 288 287 287 287 286 285 285 284 284 283 283 282 282 282 281 281 283 284 284 284 284 284 284 283 283 284 285 284 282 281 281
296 294 294 291 289 289 291 288 288 287 287 287 287 287 286 286 285 284 284 283 283 282 282 282 282 281 281 281 282 283 284 284 284 284 284 283 283 284 283 282 281 281 282
292 291 290 288 288 289 290 287 285 286 287 287 286 285 285 284 284 283 283 283 282 281 281 282 281 281 281 281 282 283 284 284 284 284 283 283 283 282 281 280 280 281 281
290 289 288 287 287 288 289 285 285 286 286 286 285 284 284 283 283 283 282 282 281 281 281 281 281 281 281 280 281 282 283 283 284 283 282 282 281 279 279 279 280 279 278
289 288 287 286 284 287 287 286 286 286 286 285 284 283 283 282 282 282 281 281 281 281 281 281 281 281 280 280 281 282 282 283 282 282 281 280 278 278 278 277 278 278 278
288 287 286 284 283 286 286 285 286 286 285 284 283 282 282 282 282 281 281 280 280 281 282 281 281 280 280 281 282 282 283 282 282 281 279 278 277 277 277 277 277 277 277
286 285 284 283 283 285 284 284 285 286 284 282 282 282 282 282 281 280 280 280 279 280 280 280 280 280 280 281 281 282 282 281 280 279 277 277 277 277 277 277 277 277 277

GFSMW_925_thetae_012.txt.gz
Theta_e
322 321 322 323 322 322 323 324 329 333 336 336 332 325 324 328 328 328 326 322 316 308 305 303 301 300 299 298 297 297 297 297 296 298 300 300 299 302 302 297 297 296 295
319 320 321 322 321 322 324 327 331 333 334 332 332 329 321 317 317 322 316 314 307 304 304 302 300 299 298 297 296 297 297 296 295 296 298 301 300 299 298 297 296 295 294
317 319 320 320 321 322 325 328 332 333 332 331 329 321 312 309 309 308 305 303 302 302 302 301 299 298 297 296 296 295 295 296 295 294 296 299 299 296 297 297 295 295 293
315 316 318 319 320 321 324 330 331 330 331 329 320 317 318 314 305 306 303 300 300 299 300 299 297 297 296 295 294 293 294 294 295 294 293 293 293 295 297 296 295 293 293
315 316 316 316 318 320 325 330 330 329 328 322 320 322 320 314 303 303 299 299 298 298 297 297 296 295 294 294 293 293 293 292 293 293 293 293 293 293 294 295 295 293 293
315 316 317 316 317 320 325 328 328 328 323 321 323 322 315 304 300 298 297 298 298 296 295 295 295 294 293 293 292 292 292 292 291 291 291 291 292 293 293 294 294 293 292
315 315 317 319 318 321 324 327 328 325 321 319 318 314 308 309 302 298 298 299 297 296 294 294 293 293 292 292 292 292 291 291 291 291 291 290 290 290 290 291 292 292 291
316 315 316 318 319 321 323 325 326 321 320 318 313 310 307 303 301 301 300 299 298 296 294 293 292 292 291 291 291 291 291 290 290 290 290 290 290 290 290 290 290 291 291
316 316 316 318 320 321 323 323 325 322 319 315 310 306 306 302 302 299 300 299 296 294 293 292 291 291 290 290 290 291 290 290 290 290 290 290 289 289 289 289 289 289 290
315 316 315 318 320 322 322 322 322 320 316 311 307 307 303 301 300 299 298 296 294 293 292 291 291 290 290 290 290 290 289 289 290 289 289 289 289 288 288 288 288 288 288
316 316 315 317 320 321 321 321 320 317 312 307 306 303 299 298 299 298 296 294 293 292 291 291 290 290 290 289 289 289 289 289 290 289 288 288 287 287 287 287 287 287 287
316 315 315 318 320 321 320 320 316 312 308 304 305 301 298 297 297 295 294 292 292 291 290 290 290 290 289 288 288 289 289 289 289 289 288 287 286 286 286 286 286 286 286
315 314 314 316 318 319 319 314 311 305 302 303 299 298 297 297 295 293 292 291 291 290 289 290 289 289 288 288 287 288 289 289 288 288 287 286 285 285 285 285 286 286 286
315 314 314 316 317 318 313 305 300 299 300 298 299 297 296 294 293 291 291 290 290 289 289 289 288 287 287 287 287 288 289 289 288 287 287 286 285 285 285 286 286 286 286
316 313 313 313 314 309 303 298 297 296 297 298 297 295 293 292 291 290 289 289 289 289 288 288 287 286 286 286 287 289 289 288 288 287 286 286 285 285 285 286 286 286 285
315 312 311 310 307 301 298 296 295 295 295 296 293 292 291 291 290 289 289 289 288 288 287 287 286 286 285 284 287 287 287 287 287 286 286 286 285 285 285 285 285 285 286
314 311 308 306 302 298 296 295 295 295 295 293 292 291 291 290 289 289 289 288 288 287 287 286 285 285 285 284 286 286 286 286 286 286 286 285 285 285 285 284 285 286 287
312 309 304 302 299 298 296 295 295 294 293 292 291 290 290 289 288 288 288 287 287 286 286 285 285 284 284 283 285 285 286 286 285 285 285 285 285 285 285 285 286 286 284
310 307 302 299 297 295 294 294 293 293 292 291 290 289 289 288 288 288 287 286 286 285 285 284 284 284 284 283 284 285 285 285 285 285 285 285 285 284 284 286 285 284 283
304 300 297 296 295 294 294 293 292 292 291 290 289 288 288 288 287 287 286 285 285 284 284 284 284 283 283 283 283 284 284 285 285 285 285 285 284 284 285 284 283 283 282
301 298 297 296 294 293 293 292 292 290 289 288 288 287 287 286 286 285 284 284 284 284 284 284 284 283 282 282 283 283 284 284 284 285 284 284 284 284 283 283 282 282 282
296 295 294 292 292 292 292 291 289 288 287 287 286 286 285 284 284 284 284 284 283 284 284 284 284 283 283 282 282 283 283 284 284 284 284 283 283 282 282 281 281 282 282
294 293 292 292 291 291 290 287 287 287 286 286 285 284 284 283 283 284 284 284 283 283 283 283 283 283 282 282 282 282 283 284 284 283 283 283 282 281 280 280 280 280 280
292 291 291 290 290 289 288 286 286 286 286 285 284 284 284 283 283 283 283 283 283 283 283 283 282 282 282 282 282 283 283 283 283 282 282 281 280 279 279 280 280 280 280
291 290 289 288 287 287 286 285 285 286 285 285 284 284 284 284 283 282 282 282 282 282 282 282 281 281 281 281 282 282 283 283 282 281 281 280 279 279 280 280 280 280 280
289 288 287 286 286 285 284 284 284 285 285 284 284 284 283 283 282 282 282 281 279 280 280 280 280 280 281 281 281 282 282 281 281 280 280 279 279 279 279 279 279 279 279

GFSMW_925_thetae_015.txt.gz
Theta_e
321 322 322 322 322 323 324 324 324 327 329 335 341 340 338 335 331 324 323 323 325 314 309 307 305 304 303 301 301 301 300 299 298 301 302 302 301 304 304 302 299 298 297
319 320 321 322 323 324 324 324 326 328 332 337 339 338 333 327 322 316 322 322 319 310 307 305 304 302 301 301 300 300 300 299 297 298 301 304 302 301 300 299 299 297 296
317 318 319 320 322 323 323 324 327 331 334 338 335 331 324 317 312 310 314 315 312 306 305 304 302 302 301 300 299 299 298 299 297 296 297 301 303 298 299 299 298 297 296
315 315 317 319 321 323 324 324 327 332 334 336 333 328 320 316 313 308 310 306 304 303 303 302 301 301 299 299 297 297 297 297 297 297 295 295 295 297 298 298 298 297 295
316 316 316 317 317 320 323 325 328 332 334 333 334 328 322 322 311 304 303 301 301 301 301 300 300 299 298 297 297 296 296 295 295 295 295 295 295 295 295 297 297 296 295
315 316 316 316 317 318 323 325 330 332 332 333 330 323 325 315 305 301 300 300 300 300 299 299 298 298 297 296 295 295 295 294 294 294 294 294 294 294 294 295 295 294 294
315 315 316 317 318 318 322 327 330 331 332 331 325 325 324 309 305 302 301 299 299 299 298 298 297 297 296 295 295 294 294 294 293 293 293 293 293 293 292 293 293 293 293
317 317 318 316 318 320 322 326 330 330 330 327 326 327 314 309 306 303 300 300 300 299 297 297 296 295 294 294 294 294 293 293 293 292 292 292 292 292 292 292 292 292 292
316 316 317 317 316 319 321 325 329 330 327 325 325 316 309 305 303 302 301 301 300 298 297 296 295 294 293 293 293 293 293 292 292 292 292 292 291 291 291 290 290 290 291
314 316 317 317 317 320 321 324 328 328 325 321 312 308 305 303 303 302 301 300 298 296 295 295 294 293 293 292 292 292 292 291 292 292 291 291 291 290 289 289 289 289 289
315 316 317 317 317 320 322 324 327 325 323 314 307 305 303 303 301 301 299 298 296 295 295 294 293 293 292 292 291 291 291 291 291 291 291 290 290 289 288 287 287 288 288
314 316 316 317 318 322 323 324 326 324 318 311 305 303 302 300 300 298 297 296 295 294 293 293 293 292 291 291 291 291 291 291 291 291 290 290 289 288 287 287 287 287 287
311 314 316 318 320 322 323 323 322 317 311 304 301 299 299 299 298 297 295 295 294 293 292 292 292 291 290 290 290 289 290 290 290 290 290 289 288 287 287 286 287 287 287
312 316 316 317 319 320 322 319 316 312 304 301 299 299 298 296 296 295 294 293 292 292 292 291 290 289 289 288 288 289 290 291 290 290 289 288 287 287 286 286 286 287 287
315 316 315 316 318 318 316 309 307 304 301 300 299 299 297 295 294 293 292 292 292 291 291 290 289 288 288 287 287 289 290 289 289 289 288 287 287 286 286 287 287 286 286
314 315 314 315 316 310 305 302 300 300 300 299 298 295 294 293 292 291 291 291 290 290 289 289 288 288 287 286 286 288 288 288 288 288 287 287 287 286 286 286 286 286 286
313 314 313 313 306 301 298 297 297 297 296 295 294 294 292 292 291 291 291 291 290 289 288 287 287 287 287 285 286 286 286 287 287 287 287 286 286 286 286 285 285 285 286
314 312 310 304 298 297 297 297 295 295 294 293 294 292 292 291 291 291 290 289 289 288 288 287 286 286 286 285 285 285 286 286 286 286 286 286 286 285 286 285 285 286 285
311 307 301 298 297 297 296 296 294 294 293 292 292 291 291 291 290 290 289 288 288 287 287 286 286 286 285 284 284 285 285 285 286 286 286 286 286 285 285 285 285 285 284
302 299 297 297 297 296 295 295 295 295 293 292 291 291 290 290 289 288 287 287 287 286 286 286 285 285 284 284 284 284 284 285 285 285 285 285 285 285 285 285 284 283 283
300 299 299 298 297 297 297 295 294 292 291 290 290 289 289 288 287 287 286 286 286 286 286 285 285 285 284 284 283 284 284 284 284 285 284 284 284 284 284 284 283 282 282
299 297 297 296 296 295 294 292 291 290 289 288 288 287 287 286 286 286 286 285 285 285 285 285 285 285 284 283 283 283 284 284 284 284 284 284 284 284 283 282 282 282 282
295 295 295 294 294 292 290 289 288 288 288 287 287 286 285 285 286 286 286 286 285 285 285 285 284 284 283 283 283 283 284 284 284 284 284 283 283 282 281 281 282 282 281
295 294 293 292 290 288 288 287 287 288 287 287 286 285 285 285 285 285 285 285 284 284 284 284 283 283 283 282 282 282 282 283 283 283 283 282 282 281 281 281 281 281 281
293 292 290 288 287 287 287 288 288 288 287 286 286 286 285 285 285 284 284 283 283 282 282 282 282 282 281 281 282 282 282 283 283 282 281 281 280 280 280 280 280 280 280
290 289 288 288 287 287 287 287 287 287 286 286 285 285 285 285 284 284 283 283 281 280 280 281 280 280 280 281 281 281 282 282 281 281 280 280 280 280 280 280 279 279 279

GFSMW_925_thetae_018.txt.gz
Theta_e
317 320 322 322 322 321 322 326 325 326 335 341 340 342 341 337 336 335 334 333 328 325 314 309 307 305 303 302 301 301 301 300 298 300 301 302 301 304 303 303 301 298 297
315 315 318 320 322 322 322 324 325 325 326 338 341 341 339 336 336 333 329 328 325 315 312 309 305 304 303 302 302 301 300 299 297 297 298 298 300 300 300 301 299 298 296
313 313 313 318 321 322 322 324 324 325 325 328 339 339 335 330 325 325 323 318 313 312 309 306 304 304 303 302 301 300 299 299 297 296 296 296 297 295 298 298 298 297 297
312 312 313 313 317 321 322 322 324 324 327 334 339 335 329 320 316 317 314 310 310 308 306 305 303 303 303 302 300 299 298 298 297 296 295 295 295 293 293 297 297 296 295
312 311 311 313 314 315 321 322 323 325 330 337 336 331 322 320 315 311 312 306 305 305 304 304 303 302 302 299 299 298 296 296 295 295 294 295 295 295 293 292 294 295 294
311 312 314 315 315 315 315 322 323 326 333 337 333 329 322 318 308 308 303 302 303 303 302 302 301 300 301 299 298 296 295 295 294 294 294 293 293 293 293 291 291 291 292
311 312 314 313 315 315 316 316 324 327 333 335 333 327 322 317 308 305 302 301 301 301 300 300 299 299 299 298 297 296 295 294 293 293 293 293 292 293 292 292 291 290 291
309 315 315 314 315 316 317 320 326 330 332 334 332 325 323 311 309 305 301 301 300 300 299 299 298 298 298 296 295 295 294 293 293 293 292 292 292 292 292 291 291 289 289
312 314 314 314 316 316 319 320 327 330 332 333 326 322 316 311 307 304 301 300 300 299 298 297 297 296 296 295 294 293 293 292 292 292 292 292 292 291 291 290 290 289 288
312 312 312 313 315 316 317 324 328 330 331 329 324 315 310 310 306 302 301 300 300 299 297 296 295 294 294 293 293 293 292 292 291 292 291 291 291 290 290 289 288 288 288
312 312 312 314 315 316 318 321 326 328 327 320 312 309 309 306 302 302 301 300 299 297 296 295 294 294 293 293 292 292 291 291 291 291 291 291 290 290 289 288 287 287 287
310 312 312 313 314 316 319 322 325 326 313 313 309 306 305 303 301 300 298 298 297 296 295 294 293 293 292 291 291 291 291 291 290 290 290 290 289 289 288 287 287 286 286
309 309 313 313 313 317 321 323 324 315 308 308 305 303 302 300 299 297 297 296 295 294 293 293 292 292 291 290 290 289 289 289 290 290 290 290 289 288 287 287 286 286 286
311 311 314 313 314 319 321 320 310 306 304 303 302 301 300 298 297 296 295 294 294 293 292 292 291 291 290 289 289 289 290 290 290 290 290 289 288 288 287 286 286 286 286
312 312 314 313 315 312 312 309 304 302 301 300 299 298 297 295 294 294 293 293 292 292 292 291 290 289 289 288 288 287 288 288 288 288 288 288 287 287 287 287 287 287 286
313 312 312 314 311 307 305 305 302 300 300 299 296 295 294 293 293 292 292 292 291 291 290 289 289 288 287 287 286 288 287 286 286 287 287 287 286 286 287 287 286 286 286
312 311 313 306 302 301 300 300 300 299 297 295 294 294 293 293 292 291 291 291 290 290 289 288 288 287 287 287 285 286 286 285 286 286 286 286 286 286 285 285 286 285 286
311 311 304 300 298 297 297 296 295 295 294 294 294 293 293 292 291 291 290 290 289 288 288 287 287 287 286 286 285 286 284 285 285 285 286 286 285 285 286 286 286 285 285
303 300 298 297 296 296 295 295 295 294 294 294 293 292 292 291 290 290 289 289 288 287 287 286 286 286 285 285 284 285 284 284 285 285 285 285 285 285 286 286 285 285 284
297 297 297 297 296 296 296 295 294 294 293 292 292 291 291 290 289 288 288 288 287 287 286 286 285 285 284 284 284 284 284 284 284 284 284 284 284 285 285 285 285 283 282
298 298 297 296 296 296 296 295 294 294 293 292 290 290 289 288 288 287 287 286 286 286 286 285 285 285 285 284 284 284 284 284 284 284 284 284 284 284 285 285 284 282 283
299 298 298 298 296 295 293 291 290 289 289 289 288 288 287 287 286 286 286 286 286 285 285 285 285 285 284 284 283 284 284 284 284 284 284 284 284 284 283 283 282 283 283
295 294 293 291 291 291 289 288 288 288 287 287 286 286 286 286 286 286 286 285 285 284 284 284 284 284 283 283 283 283 283 283 283 283 283 283 283 282 282 281 282 282 280
293 291 290 289 288 288 288 288 288 287 287 286 286 286 285 285 285 285 285 284 284 283 283 283 282 282 282 281 281 282 282 282 282 283 283 282 281 281 280 280 280 280 280
291 289 288 287 287 287 288 288 287 287 286 285 285 286 285 285 285 284 284 283 283 282 281 281 281 280 280 280 282 282 282 282 283 283 281 280 279 279 279 279 279 279 279
288 288 287 287 288 288 288 287 287 287 286 285 285 285 285 284 284 283 283 283 282 281 281 280 280 280 280 281 281 281 282 282 282 281 279 279 279 278 279 279 278 278 278

GFSMW_925_thetae_021.txt.gz
Theta_e
314 317 318 319 319 320 321 322 331 340 342 341 340 340 338 339 337 335 334 332 331 330 327 319 312 309 306 304 304 303 302 300 299 299 301 301 302 303 302 302 302 298 297
312 313 316 317 318 319 320 320 321 337 340 340 340 339 339 340 336 335 334 332 332 328 324 318 312 307 305 304 303 303 301 299 298 298 299 296 299 300 300 301 299 298 296
310 310 310 315 317 316 319 321 321 328 339 340 339 339 338 335 332 333 333 331 328 324 321 315 310 305 305 305 303 303 302 300 297 296 297 295 297 293 297 298 297 296 296
311 310 310 310 314 315 315 321 321 322 330 339 338 339 334 329 330 330 332 330 325 318 312 310 307 304 305 306 304 301 301 300 297 296 295 295 295 292 292 296 296 295 295
307 308 308 311 314 314 314 314 320 322 323 333 337 338 332 330 327 323 323 323 314 309 309 307 305 304 304 304 304 301 299 298 297 296 295 295 295 294 292 291 293 295 294
307 309 311 312 313 314 313 313 316 320 322 327 334 335 331 326 319 315 313 311 307 306 306 305 304 304 303 303 302 300 298 297 295 294 294 294 293 293 292 290 289 290 292
306 308 313 312 314 315 316 316 314 319 323 331 332 331 331 325 321 315 309 305 304 304 304 303 303 302 301 301 299 299 297 296 295 294 293 293 292 292 292 291 290 289 291
305 309 312 311 313 315 315 316 316 317 325 333 331 330 326 323 319 313 310 307 303 302 303 302 301 300 300 299 298 297 296 295 294 293 293 292 292 292 292 291 290 287 288
304 309 311 312 313 314 313 315 315 319 324 332 330 327 323 323 315 312 310 305 302 302 301 300 299 298 298 297 296 296 295 293 293 292 292 292 292 291 291 290 289 288 287
306 308 310 311 313 314 314 315 316 320 326 330 328 321 321 319 313 311 304 301 301 299 300 299 298 297 296 296 295 294 293 293 292 292 292 291 291 291 290 289 288 287 287
308 310 310 312 313 313 313 316 316 323 327 325 318 318 315 311 311 307 303 301 299 300 299 298 298 295 295 294 293 293 292 292 291 291 291 291 290 290 289 288 288 287 286
308 306 307 311 312 313 313 315 317 325 323 320 316 312 309 308 305 302 301 299 299 298 297 296 295 294 294 293 292 291 291 291 290 290 290 290 290 289 288 288 287 286 286
310 308 308 310 311 313 314 316 319 319 316 313 310 305 305 304 302 300 298 298 298 297 297 295 294 293 292 291 291 290 290 289 290 290 290 290 289 289 288 287 287 286 286
311 310 310 310 311 314 318 318 312 310 308 307 305 304 302 299 298 297 296 296 296 296 294 293 293 292 292 291 290 289 289 290 290 289 289 288 288 287 287 287 287 287 287
312 311 309 309 309 309 306 305 304 305 305 303 302 300 298 296 295 294 294 295 295 294 293 292 292 291 290 289 289 287 288 288 287 287 287 287 287 287 287 288 287 287 286
310 310 310 310 305 306 303 301 301 301 301 299 297 296 294 294 294 294 293 293 292 292 292 291 290 289 288 287 287 287 286 285 285 286 286 286 286 286 287 287 286 286 287
311 311 308 301 301 302 302 301 299 297 295 294 294 294 294 293 293 292 292 292 291 290 290 289 289 288 287 287 286 286 285 284 285 285 285 285 285 286 285 285 286 286 286
310 303 299 297 297 296 296 296 295 294 294 294 293 293 293 292 293 293 293 291 291 290 289 288 287 287 287 286 285 286 284 284 284 285 285 284 285 285 286 286 286 285 285
298 298 297 296 295 295 295 294 294 294 294 294 294 294 295 294 293 291 290 290 291 288 287 286 286 286 285 285 285 285 284 283 284 284 284 284 284 284 285 286 285 285 284
298 297 296 296 295 295 295 295 295 295 294 293 292 293 292 291 291 291 291 288 287 287 286 286 285 285 284 285 285 285 284 284 284 284 284 284 284 285 285 285 285 284 283
297 297 297 297 296 296 295 294 294 292 292 293 293 292 292 291 290 288 287 287 286 286 285 285 285 285 284 284 284 284 284 284 284 283 283 283 284 284 285 284 284 283 283
297 297 297 296 295 295 295 293 293 292 292 291 289 288 288 287 287 287 286 286 285 285 285 284 284 284 283 283 283 284 284 284 283 283 283 283 284 284 283 283 282 283 283
298 297 295 293 292 290 290 288 287 287 287 287 287 287 287 286 286 286 285 285 284 284 284 284 283 283 282 282 282 282 283 283 283 282 283 283 283 281 281 280 281 281 279
290 290 289 288 288 288 288 287 287 287 287 286 286 286 286 285 285 285 285 284 283 283 283 282 281 280 280 280 280 282 282 282 282 283 282 282 280 279 279 279 279 279 279
289 289 288 288 287 287 287 287 288 288 286 286 286 286 285 285 285 284 283 283 282 281 281 281 280 280 280 280 282 282 282 282 283 283 281 279 278 278 278 278 278 278 278
288 288 288 288 287 287 287 287 287 287 286 285 285 285 285 284 283 283 283 283 282 281 281 281 280 280 280 281 281 282 282 283 282 280 278 278 278 277 277 277 277 277 277

GFSMW_925_thetae_024.txt.gz
Theta_e
312 315 317 317 317 318 319 318 321 336 340 340 339 339 338 338 337 335 335 333 332 329 328 324 320 318 315 310 304 304 303 300 300 300 301 301 303 301 301 301 301 299 297
309 310 314 316 317 318 318 318 317 324 339 340 338 339 339 338 337 337 335 333 332 330 327 327 323 318 311 304 304 305 303 300 298 299 298 297 299 301 301 301 298 297 296
311 309 308 313 315 315 317 317 318 320 334 340 339 337 337 336 336 335 335 333 332 330 326 327 325 316 310 306 306 306 305 301 298 297 298 295 297 294 296 297 296 296 295
307 309 308 309 312 314 315 316 316 317 332 339 338 336 335 333 335 335 334 332 330 330 327 325 320 315 308 305 306 306 305 304 299 297 296 295 295 292 293 295 295 295 295
306 307 306 309 312 312 312 313 314 315 321 337 338 337 334 333 334 333 328 327 325 327 325 320 317 310 306 305 305 305 304 303 301 298 295 295 294 294 292 292 293 294 294
305 304 307 309 310 312 313 313 311 313 317 329 336 336 333 332 330 326 323 320 320 318 318 316 313 308 305 305 303 303 302 301 300 297 296 295 294 293 292 290 289 290 292
305 304 307 310 313 314 315 315 315 315 315 320 334 334 334 333 331 328 320 316 314 310 309 312 308 305 304 303 302 301 300 299 298 296 295 294 293 293 292 291 290 289 290
301 301 305 308 312 314 315 314 313 314 315 317 329 333 333 329 328 326 321 317 312 308 307 305 306 303 302 301 300 299 298 297 296 295 293 293 292 292 292 291 290 287 287
305 302 302 309 311 312 313 312 313 314 315 316 326 330 330 325 324 321 318 312 309 306 305 305 303 302 299 299 298 298 297 295 294 294 293 292 292 292 291 291 290 288 286
306 305 306 308 311 312 313 312 312 314 315 316 326 327 324 324 321 319 314 310 308 305 304 303 303 300 298 297 297 296 295 295 293 292 292 292 291 291 290 290 289 288 287
308 305 306 307 310 312 311 311 311 315 317 319 328 325 320 319 318 315 312 309 305 303 301 302 301 298 299 297 295 295 293 293 292 292 291 291 291 290 290 289 288 288 286
311 308 307 307 307 310 311 312 313 314 318 322 325 319 316 315 311 310 309 306 302 300 300 300 299 298 296 297 296 294 292 292 291 291 290 290 290 290 289 289 288 287 287
312 311 309 309 309 310 312 315 317 317 318 320 315 311 311 309 308 306 304 301 299 298 299 299 298 298 294 293 293 292 291 290 290 290 290 290 290 289 289 288 287 287 286
310 311 310 310 308 310 307 308 310 312 311 311 310 308 307 304 303 301 300 298 298 297 297 296 296 294 293 291 290 290 290 290 290 290 289 288 288 288 287 287 287 287 286
310 309 309 309 308 306 303 304 306 306 306 305 304 303 301 299 298 297 296 296 296 295 297 296 293 292 291 290 289 289 288 288 288 286 286 286 287 287 287 287 287 287 286
311 310 308 307 304 302 302 301 302 303 302 300 298 296 296 295 294 294 293 294 293 294 293 292 291 289 289 289 288 287 287 285 285 285 285 285 286 286 286 287 286 286 287
309 310 304 299 300 302 300 298 297 297 296 295 295 294 294 292 292 292 292 293 294 294 293 291 290 288 289 289 287 286 285 284 284 284 284 285 285 285 285 285 286 286 286
299 298 297 297 297 296 296 294 294 294 294 294 293 293 292 292 294 295 294 293 292 290 289 289 289 289 288 288 287 285 284 284 284 284 284 284 284 284 285 285 285 285 285
297 296 296 296 295 295 295 294 293 293 293 294 294 294 296 295 295 293 292 291 292 292 292 290 288 287 287 286 285 285 284 284 284 284 284 284 284 284 285 285 285 285 284
297 297 296 295 295 295 295 295 295 294 293 293 293 293 293 293 292 293 293 292 292 288 286 286 286 285 285 286 285 285 284 284 284 284 283 283 284 284 285 285 285 283 283
298 297 297 296 296 295 295 293 292 291 292 292 293 293 294 294 293 292 291 287 286 286 285 285 285 285 284 284 285 285 284 284 284 283 283 282 283 284 285 284 283 282 283
298 296 295 293 294 295 294 293 291 291 292 293 292 291 290 289 288 287 286 286 286 285 284 284 283 283 283 284 284 285 284 284 283 282 282 282 284 284 283 282 281 282 282
297 295 293 291 290 292 292 291 291 291 289 288 287 287 287 287 287 286 285 285 284 284 283 283 282 282 281 281 281 281 283 283 283 282 283 284 283 281 279 279 280 280 279
292 291 290 289 287 287 288 288 287 286 286 286 286 286 286 286 285 285 284 284 283 283 282 281 281 280 280 280 281 282 282 282 282 283 282 281 279 278 278 278 278 278 278
289 288 288 287 287 287 287 287 287 287 287 286 286 285 285 284 284 283 283 282 282 281 281 281 280 280 280 280 282 282 282 283 283 282 280 278 277 277 277 277 277 277 277
288 288 288 287 287 287 287 287 288 289 287 286 285 285 284 283 283 283 283 283 282 282 281 281 281 281 281 281 282 282 282 282 282 280 277 277 277 276 276 276 276 277 277

GFSMW_925_thetae_027.txt.gz
Theta_e
310 311 313 315 316 317 316 316 319 328 338 339 338 337 336 336 336 336 336 335 333 332 327 327 327 321 316 315 311 304 303 301 300 300 301 301 301 300 300 300 300 299 297
308 308 311 313 314 316 317 316 315 320 335 338 338 337 336 336 337 335 336 335 334 333 329 327 326 320 314 312 309 305 303 301 299 299 299 297 299 300 300 300 299 298 296
310 309 306 310 313 313 315 316 317 316 326 335 338 337 337 336 335 334 334 334 334 332 330 328 325 325 320 316 311 305 306 303 297 299 299 295 296 295 296 297 297 296 295
306 307 307 307 310 312 313 313 315 315 317 331 337 336 335 333 334 335 335 335 333 329 331 329 327 324 320 316 313 305 306 306 301 297 297 297 296 293 293 295 295 295 295
304 305 304 307 309 311 312 312 312 312 314 322 336 335 334 333 333 333 334 334 332 328 329 328 327 323 318 315 310 305 304 305 304 302 296 295 294 294 292 292 292 294 294
300 301 303 306 308 310 310 311 312 312 312 314 332 336 335 333 331 331 329 330 328 326 324 324 322 321 317 312 308 304 304 303 304 302 300 298 295 293 292 290 290 290 293
302 302 302 302 306 311 314 314 314 314 314 313 324 334 334 333 333 330 327 323 322 319 321 319 317 314 313 311 305 303 303 302 302 300 298 297 295 294 293 292 289 289 290
303 304 303 303 306 307 311 312 314 314 314 315 315 322 330 333 331 330 327 324 322 324 322 315 314 311 309 307 304 301 301 300 299 298 297 295 294 293 293 292 290 287 287
304 305 304 307 310 310 311 311 310 311 312 313 315 319 324 330 330 328 326 324 322 318 319 313 309 307 306 304 301 299 298 297 297 296 294 294 293 292 292 291 291 289 287
305 306 305 306 308 309 311 311 310 310 312 313 314 318 321 327 329 325 321 319 316 314 311 308 307 305 304 302 300 298 296 296 295 294 293 293 292 291 291 290 290 289 288
312 311 306 306 307 308 308 309 310 311 312 313 316 319 323 326 326 322 318 315 313 311 310 307 304 303 302 299 298 296 295 296 294 292 292 292 291 291 290 290 289 288 287
313 312 308 307 308 309 310 313 314 314 315 315 316 321 322 321 319 315 314 313 311 308 308 304 301 299 298 297 296 297 293 293 292 293 292 291 290 290 290 289 289 288 287
312 307 306 306 307 309 310 309 309 310 312 314 317 319 319 316 314 312 311 308 306 303 301 299 297 296 296 296 295 297 296 294 292 291 290 290 290 289 289 289 288 287 287
309 310 307 307 309 309 308 309 308 308 309 311 311 311 310 309 309 307 304 301 299 298 297 296 296 296 296 295 294 292 291 290 290 290 290 289 289 288 288 287 287 287 287
306 309 310 308 308 305 303 303 304 304 306 307 306 306 305 305 303 300 299 297 296 295 294 294 295 294 294 292 291 290 290 290 289 288 287 286 286 286 288 288 287 287 287
303 306 308 305 302 301 299 299 298 300 300 299 298 298 298 297 296 295 295 294 293 294 295 295 296 295 294 293 291 290 288 287 286 285 285 285 285 285 286 287 287 287 287
301 299 298 298 300 300 298 296 295 296 295 295 295 295 294 293 292 292 293 293 294 295 294 293 291 290 291 290 288 286 287 285 284 284 284 284 284 284 284 284 285 285 286
298 297 297 297 297 296 295 295 295 294 294 293 293 293 293 293 293 293 292 292 293 293 292 291 291 291 291 290 290 287 284 284 283 283 284 284 284 284 285 285 285 285 285
297 297 296 296 295 295 294 293 292 294 294 293 294 294 294 293 292 292 291 290 291 291 291 291 291 291 289 288 287 285 284 284 284 284 284 284 283 283 285 285 285 285 284
297 297 296 296 296 295 295 293 292 292 291 291 292 292 292 292 291 291 291 292 292 292 291 290 288 287 287 287 286 285 284 284 284 284 283 282 283 284 285 285 284 283 283
298 297 296 296 295 294 293 292 291 291 291 292 292 292 292 293 293 293 292 292 291 287 285 284 285 284 285 285 285 285 284 284 284 283 282 282 283 284 285 284 283 282 283
297 295 293 293 294 294 293 292 291 291 292 292 293 293 293 292 292 291 288 286 285 285 284 284 283 283 283 284 284 285 284 284 283 282 282 282 284 284 283 282 281 281 282
296 294 292 290 292 293 293 291 291 292 290 290 289 289 288 286 286 286 285 284 284 284 283 283 282 282 282 281 280 281 283 283 283 283 283 284 283 281 279 279 280 280 278
292 292 290 288 288 289 289 288 288 288 288 286 286 286 285 285 285 285 284 284 283 283 282 281 281 280 280 280 281 282 282 282 283 283 282 280 279 278 278 278 277 278 278
289 289 288 287 287 288 287 288 288 288 286 285 285 285 285 284 283 283 282 282 281 281 281 280 280 280 280 281 282 282 282 283 283 282 280 278 277 277 277 277 277 277 277
289 288 288 287 287 287 287 287 287 287 286 285 284 284 284 283 283 283 283 283 283 283 282 281 281 281 281 282 282 282 282 282 281 279 277 276 276 276 276 276 276 277 277

GFSMW_925_thetae_030.txt.gz
Theta_e
310 311 313 314 313 314 316 316 316 318 331 339 338 337 336 336 337 337 336 334 329 323 327 328 327 326 326 321 314 307 303 300 300 300 300 301 300 301 302 302 300 299 298
308 307 309 311 312 313 314 316 315 316 324 336 337 337 336 335 337 338 337 335 333 328 330 330 326 324 325 315 310 309 302 301 300 300 299 297 298 299 299 299 299 299 297
307 307 306 308 309 310 312 313 315 315 319 332 336 337 336 335 334 334 335 335 334 332 332 331 328 326 326 323 318 312 307 303 299 300 300 295 297 296 296 298 298 297 296
301 303 303 304 306 308 309 311 312 313 314 326 335 335 335 334 333 334 335 335 334 333 333 332 327 327 324 322 319 314 309 305 302 297 298 298 298 294 293 294 295 295 294
300 301 300 304 307 308 308 308 311 312 313 314 332 335 334 333 333 333 333 333 334 333 332 330 327 325 324 322 321 314 307 306 305 302 296 295 295 294 292 292 292 293 294
302 303 306 307 309 310 309 310 307 309 311 312 315 332 333 333 333 332 332 330 329 330 330 330 328 323 323 320 319 314 308 306 305 303 301 300 297 294 293 290 290 291 293
302 303 304 305 308 309 311 309 311 311 310 310 312 320 329 332 331 332 331 327 325 326 328 326 324 321 320 320 315 311 305 304 304 301 300 300 300 299 295 293 290 289 291
302 304 305 306 308 310 309 311 311 311 310 311 312 317 323 330 332 331 328 328 327 327 327 326 322 319 319 316 311 307 304 302 302 301 298 298 297 296 296 294 291 288 287
302 304 305 307 308 309 310 308 310 311 310 309 311 313 318 326 326 329 328 327 326 323 323 321 317 313 313 313 309 306 302 302 302 301 297 296 295 294 293 293 293 291 287
305 308 310 309 308 308 310 308 308 309 311 312 312 313 314 319 322 326 326 325 324 321 319 316 313 310 308 307 305 302 301 300 296 297 296 294 294 293 292 291 291 290 289
309 310 309 309 308 308 310 311 311 311 313 313 313 314 315 318 320 323 324 323 321 318 315 312 308 306 306 302 301 300 297 295 294 294 294 293 292 292 291 290 290 289 288
311 308 305 306 306 307 308 309 309 310 310 311 312 313 315 317 320 319 319 318 316 313 311 308 305 303 301 300 298 296 295 294 294 296 294 292 290 290 290 290 289 288 287
309 306 306 307 307 308 308 308 307 308 310 309 311 312 313 313 315 314 313 311 310 308 306 304 301 300 298 297 296 296 295 294 294 293 294 291 289 289 289 289 288 288 287
303 302 304 306 306 306 303 302 303 304 307 308 309 309 310 310 310 310 308 307 305 303 301 299 297 295 295 295 296 295 296 295 292 290 289 289 289 290 289 288 287 287 287
301 300 300 301 301 300 299 299 298 301 304 307 308 307 307 306 305 303 301 300 300 298 296 294 294 295 296 296 297 295 292 292 291 290 288 287 286 286 287 287 288 287 287
301 299 298 298 299 299 298 297 296 296 297 298 297 298 300 300 298 297 296 296 294 294 294 295 294 294 294 295 292 290 288 289 288 287 288 285 285 285 285 286 287 287 287
299 297 297 297 297 296 296 296 295 295 294 294 294 294 294 294 294 294 293 293 292 293 293 293 294 293 292 291 292 293 290 289 289 286 284 284 284 284 284 284 285 285 286
298 297 296 296 296 295 294 294 294 294 294 294 293 293 293 293 293 293 292 292 292 292 293 293 292 292 291 290 290 291 288 285 284 283 283 284 284 283 284 285 285 285 285
298 297 296 296 296 295 294 293 292 292 292 293 294 293 293 292 291 290 291 291 292 291 291 291 291 291 290 289 286 285 284 284 284 284 284 283 283 282 284 285 285 285 284
297 297 296 296 295 293 293 292 292 292 291 291 291 292 292 291 291 291 292 292 292 291 291 290 290 289 288 287 286 285 284 284 284 284 283 283 283 284 285 285 284 282 282
296 295 295 295 295 293 292 292 291 290 291 291 291 291 292 292 292 291 292 291 290 290 289 287 287 286 286 286 286 286 285 284 284 283 282 282 282 284 285 284 283 282 282
295 294 294 293 294 293 293 291 291 291 291 292 292 292 292 291 291 292 291 289 286 283 283 283 283 283 284 284 286 285 284 284 283 282 282 283 284 284 283 281 281 281 281
295 293 292 292 293 293 292 291 290 291 290 290 290 291 290 288 286 285 284 284 284 283 282 282 282 281 281 281 281 282 283 283 283 283 283 283 282 280 279 279 279 279 278
293 291 291 289 289 291 290 289 289 291 290 286 285 285 285 284 284 284 284 284 283 282 282 281 280 280 280 280 282 282 282 282 283 283 282 280 279 278 277 277 277 277 277
291 291 289 288 288 289 289 289 289 288 286 285 285 284 284 283 283 282 282 282 281 281 281 280 280 280 280 281 283 283 283 283 282 281 280 278 277 276 276 276 277 277 278
290 289 288 287 287 288 287 287 287 287 286 285 284 283 283 283 283 283 284 284 283 283 282 281 281 281 281 282 282 282 282 281 280 278 276 276 276 276 276 276 276 277 278

GFSMW_925_thetae_033.txt.gz
Theta_e
310 310 311 312 312 314 314 314 315 316 328 336 337 336 336 336 336 337 337 337 335 332 326 325 327 325 328 326 325 310 307 303 300 299 300 300 300 301 304 302 301 300 299
308 307 307 308 309 310 311 312 313 315 316 330 335 335 335 335 336 335 337 337 336 334 332 325 324 325 327 325 321 312 306 302 300 301 301 303 300 299 301 302 301 299 299
304 305 305 305 305 307 308 309 311 313 314 321 332 335 335 334 334 333 333 336 336 335 334 328 323 326 326 325 324 316 313 305 300 301 303 302 306 300 297 298 298 298 298
305 305 305 307 307 307 308 308 309 310 313 314 330 333 332 333 333 333 333 333 334 334 334 332 325 327 326 324 326 323 314 310 303 299 300 299 300 304 301 295 296 297 296
304 306 306 307 310 310 309 310 307 309 310 312 326 332 333 333 333 332 333 332 332 330 332 333 329 328 328 323 323 321 310 310 307 302 297 296 296 296 299 300 296 293 294
304 305 307 309 310 312 312 310 310 310 308 308 311 330 332 332 332 332 331 331 331 330 329 330 329 328 327 325 323 319 314 309 307 305 303 300 298 297 297 297 295 297 293
304 306 309 309 310 310 311 311 309 310 311 311 310 309 326 331 331 330 330 329 326 325 328 329 326 327 327 325 319 317 313 310 306 304 302 301 302 301 297 296 293 295 292
305 306 309 309 309 309 310 310 310 309 310 310 310 311 311 321 329 329 329 329 329 328 325 326 325 324 321 319 317 314 311 309 306 304 302 302 300 300 300 297 294 294 292
306 308 310 310 308 308 308 309 309 308 308 310 311 310 311 313 318 327 328 328 327 326 325 324 322 320 317 313 311 309 308 307 304 302 301 299 301 301 296 296 295 294 295
307 310 309 309 308 308 308 309 310 310 311 311 312 312 313 313 314 317 322 325 326 325 324 321 317 314 312 310 308 308 306 304 300 300 299 300 297 295 294 293 293 292 291
311 310 307 306 307 308 308 308 308 308 308 309 310 311 313 313 316 318 319 321 322 322 321 318 315 311 307 306 306 304 304 305 299 298 297 295 294 293 292 292 291 290 290
310 305 303 305 306 305 305 305 305 306 307 308 309 310 312 312 314 316 316 315 317 318 317 315 311 307 305 307 305 302 298 298 295 294 293 293 293 293 292 291 290 289 289
304 302 301 303 303 302 301 300 300 301 303 305 307 309 310 312 313 313 314 313 313 313 311 310 307 304 302 300 298 296 295 295 295 294 295 293 291 290 290 289 288 288 287
302 300 299 299 300 300 300 299 297 298 300 302 304 306 308 309 310 309 309 308 307 306 303 302 301 299 297 295 295 295 294 295 294 294 293 291 290 289 289 290 289 288 287
302 299 298 299 299 298 298 298 297 296 297 299 298 299 302 303 305 305 303 302 301 299 298 297 296 295 295 294 293 294 294 294 292 290 291 291 290 289 289 288 286 287 287
300 299 297 298 298 297 297 297 296 295 296 296 295 298 300 300 299 298 296 297 295 295 294 294 294 294 293 294 295 296 294 292 292 289 288 288 288 287 287 288 288 288 287
299 299 297 297 297 296 296 295 295 294 294 294 294 294 294 294 294 294 294 294 293 294 293 293 294 293 293 295 295 293 291 290 290 289 288 286 284 284 284 284 284 286 286
298 297 296 296 296 295 293 293 294 294 294 294 294 293 293 292 292 292 292 292 292 292 292 292 292 292 291 290 290 292 291 289 286 284 284 284 284 283 284 284 285 285 285
297 297 296 296 295 293 292 293 292 292 292 292 292 292 292 291 291 290 290 290 291 291 291 292 291 290 289 289 291 290 285 283 283 284 284 283 283 282 284 285 285 285 285
297 297 295 295 294 292 291 292 291 291 291 291 291 292 292 291 290 290 290 290 291 291 291 290 289 289 287 285 284 284 284 284 283 284 283 282 283 284 285 285 285 283 282
296 295 295 295 294 293 293 292 291 290 291 291 292 292 292 292 292 292 292 291 290 289 288 287 287 286 287 288 287 285 284 284 284 283 282 282 283 284 285 285 282 282 282
295 294 294 294 294 294 293 291 291 291 291 292 292 291 292 291 291 291 291 290 289 286 284 283 283 284 285 286 286 285 284 284 283 283 282 283 284 284 282 281 280 281 281
295 293 293 293 293 294 294 291 289 291 292 292 291 290 289 287 286 285 284 284 284 283 282 282 282 281 281 282 283 283 283 283 283 283 283 283 281 280 279 278 279 279 278
293 292 291 290 290 291 292 291 291 291 288 285 285 284 284 284 284 284 283 283 283 282 282 281 280 280 280 281 282 282 282 282 282 282 282 280 279 277 277 277 277 277 277
292 291 291 290 289 289 290 291 289 287 285 285 284 284 283 283 282 282 282 282 281 281 281 280 280 280 280 282 283 283 283 282 282 281 279 277 277 276 276 276 277 277 278
291 290 290 290 288 289 287 287 287 287 286 284 284 283 283 283 283 284 284 284 284 283 281 281 281 280 281 282 282 282 281 281 280 278 276 276 276 276 276 276 276 277 277

GFSMW_925_thetae_036.txt.gz
Theta_e
316 313 313 312 313 314 315 316 317 317 322 332 338 337 336 337 336 339 338 337 335 334 332 330 329 329 328 326 320 316 310 307 306 305 304 303 302 304 306 305 304 303 302
313 310 311 310 310 311 312 314 315 315 317 322 332 336 337 337 337 335 334 337 336 334 333 331 329 328 327 326 321 314 310 307 304 308 308 308 304 302 304 305 304 302 301
312 313 313 313 312 311 310 310 311 313 315 317 325 332 335 336 336 334 333 334 336 334 333 332 330 328 325 324 321 314 313 308 304 307 310 310 311 306 302 302 303 302 300
313 314 315 315 314 313 312 311 310 310 311 314 318 327 332 333 332 332 333 333 334 334 333 332 330 327 323 323 321 317 319 313 307 303 304 304 307 308 305 300 301 300 300
312 313 314 314 314 314 314 312 312 310 309 311 316 325 330 329 329 330 332 332 331 332 332 331 330 327 323 322 320 317 314 313 311 307 301 300 299 301 306 307 301 299 298
312 313 315 315 314 315 314 314 312 312 312 310 311 317 326 329 329 331 333 333 333 331 330 330 329 327 324 323 323 321 314 311 311 308 306 302 302 301 301 305 304 302 299
313 314 315 315 314 314 313 313 312 312 312 312 313 312 314 323 328 330 331 331 331 330 328 328 328 327 324 323 322 318 315 311 309 307 307 305 303 302 302 304 301 301 296
313 315 315 314 313 312 312 312 312 312 311 311 312 312 313 314 317 326 328 328 328 329 328 327 327 326 325 323 321 317 313 310 309 308 305 305 302 301 301 300 297 297 296
314 315 313 312 312 311 311 311 311 312 312 313 313 314 314 314 315 318 323 325 326 327 327 327 326 324 323 322 319 316 315 311 309 307 305 306 302 299 299 298 298 300 299
315 314 311 310 311 311 310 310 310 310 311 311 311 312 313 314 316 317 320 321 323 325 325 325 324 322 320 318 315 313 312 310 307 304 302 301 298 296 297 297 298 295 294
314 311 308 308 309 309 309 309 308 308 309 309 310 311 313 315 315 315 316 317 318 319 319 319 319 318 315 313 312 310 308 305 302 301 301 299 298 296 294 293 293 293 293
310 308 306 306 307 306 306 305 305 305 305 306 308 310 312 313 314 313 314 313 314 315 316 316 314 312 310 308 307 306 305 303 300 298 297 294 293 293 292 293 292 291 290
309 307 305 304 303 302 302 303 303 302 302 304 307 309 310 312 313 311 311 310 311 310 311 310 307 306 306 304 304 301 300 297 296 294 293 292 293 293 292 292 291 291 291
307 305 304 304 302 301 301 302 301 300 300 301 303 304 306 307 307 306 305 305 305 306 304 303 302 300 300 298 297 297 295 294 294 294 295 294 293 292 291 291 291 290 289
306 304 303 303 300 300 300 300 299 299 297 298 298 300 301 301 301 300 300 299 299 298 298 298 297 295 294 294 294 294 294 294 293 293 293 292 292 292 291 290 289 288 287
304 303 301 300 299 298 297 297 297 297 297 297 296 297 298 298 297 297 296 296 296 296 297 297 295 294 294 293 293 293 294 294 293 292 291 291 291 290 288 288 288 288 288
303 302 300 298 298 296 295 295 296 296 296 295 295 295 295 295 294 294 294 294 295 295 294 294 294 294 294 293 293 294 293 293 291 291 290 289 288 286 285 286 286 286 287
302 301 298 297 296 295 294 294 294 294 294 294 294 294 294 292 292 292 292 293 293 292 292 293 293 293 292 291 291 292 292 290 288 288 287 285 284 284 284 285 285 286 286
301 299 297 296 294 293 293 293 293 292 292 292 292 292 292 291 291 291 291 291 291 291 291 291 291 290 289 289 290 289 287 286 284 284 284 284 284 283 285 286 286 286 286
300 298 297 296 294 293 293 293 292 292 291 291 290 291 291 291 290 290 291 291 291 290 289 289 288 287 286 286 285 285 285 285 285 284 284 283 284 284 285 286 286 286 285
299 298 297 297 296 294 294 292 291 291 291 291 291 291 291 291 291 291 290 290 290 289 288 288 287 287 288 288 286 285 285 285 285 284 283 283 283 285 286 285 285 284 283
299 297 298 297 296 295 294 293 292 291 292 292 292 291 290 290 291 291 290 290 288 287 285 285 285 285 287 287 286 285 285 284 284 284 283 284 284 284 283 282 282 281 282
299 298 298 296 295 294 294 292 290 291 290 290 288 288 287 286 286 286 285 285 285 285 284 284 284 283 282 283 284 284 284 284 284 283 284 283 282 281 280 279 280 280 280
298 297 297 297 295 293 293 292 291 290 288 287 286 285 285 285 284 284 284 285 285 284 284 283 282 282 281 282 283 283 283 283 283 283 282 281 280 278 278 278 278 278 279
296 296 296 295 294 292 291 290 289 287 287 286 285 285 284 284 283 283 283 283 282 282 282 282 281 282 282 283 283 283 283 283 282 282 280 279 278 279 279 279 279 279 279
295 293 295 293 292 292 290 288 286 286 286 285 285 285 285 285 285 286 285 284 284 283 282 281 282 281 282 282 282 282 282 281 280 280 279 279 279 279 279 279 280 280 279

GFSMW_925_thetae_039.txt.gz
Theta_e
317 318 316 316 316 316 317 318 319 320 320 326 333 340 339 338 337 337 340 340 339 337 335 333 331 331 331 331 329 324 319 317 315 309 307 307 306 307 310 309 307 306 305
317 315 313 314 313 313 314 316 317 318 319 320 323 333 338 337 336 337 338 338 340 338 337 335 333 331 331 331 329 324 320 315 312 310 312 312 307 304 305 308 307 305 304
314 315 315 316 315 315 314 313 313 314 316 317 318 321 332 337 337 336 336 336 337 338 337 336 334 332 331 331 329 325 320 316 311 313 314 317 316 307 304 306 306 305 304
315 315 316 316 316 316 317 315 314 313 312 314 316 318 325 332 336 335 336 336 335 334 337 335 335 333 331 331 329 326 320 316 312 309 311 311 310 312 307 304 305 305 303
315 316 317 317 317 317 317 317 316 314 314 312 313 315 318 324 331 332 331 331 333 333 332 334 334 333 332 331 328 326 319 317 316 312 309 308 305 306 308 306 302 303 303
315 316 317 317 317 316 316 316 316 315 314 314 313 313 315 322 327 330 330 330 331 333 332 330 331 332 331 330 327 325 320 318 318 313 311 309 307 303 303 306 303 301 301
315 316 317 317 316 315 315 314 314 314 314 314 314 315 314 314 319 325 329 330 331 332 332 330 329 330 330 328 326 325 322 318 318 316 312 308 309 307 304 305 304 304 299
316 317 316 315 315 314 314 313 314 314 314 314 314 314 314 315 316 315 319 327 328 328 329 330 328 327 328 328 327 325 324 320 317 315 311 308 307 307 310 306 301 299 297
315 317 315 313 313 313 313 313 313 313 313 313 313 314 314 315 316 316 317 319 323 325 326 327 328 325 325 327 326 325 323 318 315 313 310 308 307 305 304 302 302 303 298
316 315 313 311 312 312 312 312 311 311 311 312 312 312 314 315 316 317 318 319 321 321 323 324 324 325 325 325 324 323 321 318 315 313 312 308 304 300 299 297 298 299 299
316 313 311 310 310 310 310 309 309 308 309 309 310 311 313 314 315 316 315 315 315 316 318 319 320 320 321 321 321 319 317 315 313 311 309 305 301 299 298 297 299 300 298
313 311 309 308 308 306 306 307 307 306 306 306 308 310 312 313 314 314 313 312 313 313 314 314 315 315 315 314 313 313 312 311 308 304 302 299 297 297 298 296 292 292 294
312 310 309 307 306 304 304 304 305 304 303 304 306 308 309 310 311 310 310 310 310 309 308 308 308 308 308 308 307 306 305 304 301 300 297 295 295 293 292 293 294 294 294
310 308 307 306 305 303 302 301 302 302 301 301 302 304 305 305 305 304 304 304 304 304 303 301 302 302 302 302 302 301 299 297 295 295 294 293 293 294 295 294 294 293 291
309 307 306 305 303 301 299 298 299 299 300 300 300 301 302 301 301 301 300 300 300 299 299 297 297 296 297 296 296 296 295 295 293 293 293 294 294 295 294 293 292 291 289
308 306 304 302 300 298 297 297 297 297 298 298 298 298 299 298 297 297 297 297 297 297 296 296 295 295 294 294 294 294 294 293 293 292 291 291 291 292 290 290 290 290 288
306 304 302 300 298 297 296 296 296 296 296 296 296 296 296 295 295 294 294 294 294 294 294 294 294 294 294 293 292 292 292 291 291 290 289 289 288 289 289 288 288 289 289
305 303 300 298 297 295 295 295 294 295 295 295 295 295 294 294 293 292 292 292 293 293 293 293 293 292 292 291 290 292 291 289 289 288 288 288 286 285 284 285 285 286 286
304 301 298 297 295 294 294 294 293 293 292 292 292 293 292 291 291 291 291 291 292 291 291 291 290 289 288 289 290 290 289 288 286 285 284 285 285 285 285 286 286 286 286
302 300 298 296 295 295 294 293 293 292 292 292 291 291 291 291 291 290 290 290 290 290 289 289 288 287 287 287 286 286 286 286 285 285 285 283 284 284 285 286 287 287 286
302 300 299 298 296 295 294 293 292 292 292 292 291 291 291 290 291 291 290 289 289 289 288 287 287 288 288 287 286 286 285 285 285 284 284 284 283 285 286 285 285 285 284
301 301 300 299 297 296 295 294 293 292 292 292 292 292 292 292 291 292 291 290 289 287 286 286 286 287 287 287 286 286 285 284 284 284 284 284 284 284 283 283 283 282 282
302 301 301 299 298 297 296 295 293 293 293 292 292 290 289 288 288 288 287 287 287 287 286 285 285 284 283 284 284 284 284 284 284 284 284 283 282 282 281 281 280 281 280
303 302 301 300 298 297 296 295 294 293 292 289 288 287 287 287 286 286 286 286 286 285 285 284 283 283 283 283 284 284 284 284 284 284 284 282 281 280 279 279 279 279 279
302 301 301 301 299 297 296 295 293 290 289 288 287 287 286 286 285 285 285 284 283 283 283 283 283 283 283 283 283 283 283 283 283 282 282 280 280 279 280 280 280 280 280
301 299 299 299 297 296 295 293 290 289 288 287 287 287 287 287 287 287 286 284 284 283 282 282 282 282 282 283 282 282 282 282 281 280 280 280 280 280 280 280 280 281 281

GFSMW_925_thetae_042.txt.gz
Theta_e
315 317 316 316 315 315 316 317 318 319 320 322 329 340 341 339 338 337 338 341 340 337 335 334 332 332 333 332 332 331 326 321 318 314 310 308 308 309 311 311 310 310 309
314 312 314 314 314 313 313 314 316 317 319 319 321 325 339 339 338 337 335 336 339 339 337 335 334 332 332 333 332 330 326 322 318 312 307 306 307 306 307 310 309 308 307
311 312 314 316 316 315 315 314 313 313 314 315 317 319 319 334 338 337 335 334 334 337 339 337 335 334 332 331 332 331 326 320 317 314 312 311 310 304 305 306 309 307 306
313 314 315 316 316 317 317 317 315 314 314 312 313 314 316 319 330 337 336 336 335 333 334 337 337 336 334 331 331 330 327 321 315 312 313 315 312 306 303 304 305 307 306
313 314 316 317 317 317 317 317 316 316 314 314 312 312 313 315 317 322 333 335 334 336 335 333 335 335 334 333 331 331 328 323 316 313 311 312 311 308 305 301 303 306 306
313 314 317 317 316 316 315 315 314 315 315 314 314 314 312 313 315 318 325 331 331 331 332 334 332 331 333 334 332 331 329 324 318 314 314 314 310 305 304 305 300 302 303
312 314 315 315 316 315 314 314 314 314 314 314 314 313 314 314 314 314 315 319 327 330 331 330 332 330 329 330 332 331 329 326 320 317 314 314 313 310 307 306 303 301 301
312 315 314 314 314 314 313 313 313 313 313 313 313 314 314 315 315 315 316 317 318 321 326 327 328 330 329 327 328 330 329 326 323 319 318 314 312 311 307 307 306 302 298
313 315 313 312 312 313 312 312 312 311 311 311 312 312 313 314 315 315 316 317 317 322 323 323 325 327 327 325 325 327 328 326 324 320 318 316 312 309 307 306 308 307 301
315 313 311 310 311 311 310 310 310 309 308 308 309 310 311 313 315 316 316 316 318 318 319 320 321 322 323 325 324 325 326 324 324 320 317 315 311 309 308 307 305 304 301
313 311 309 309 309 308 307 307 307 306 306 306 307 309 311 313 314 314 312 312 312 313 314 314 316 317 318 319 321 321 321 319 317 316 314 313 311 307 303 300 299 300 303
311 310 308 308 307 305 304 304 305 304 303 303 305 307 309 310 311 310 310 311 310 310 311 312 312 313 313 314 315 314 313 313 313 312 310 308 304 300 298 297 298 299 300
310 309 307 306 304 303 303 302 301 301 301 301 302 304 305 305 305 305 305 305 306 305 305 305 305 306 308 308 308 308 308 307 307 306 304 303 300 297 296 296 296 296 297
309 307 306 304 303 302 300 299 299 299 300 300 300 301 302 302 302 301 301 301 301 300 300 299 299 299 299 300 301 301 302 301 299 299 298 297 296 296 295 294 294 294 293
309 306 304 301 301 299 298 298 297 298 298 299 299 299 299 299 299 299 299 298 299 299 299 298 297 297 297 296 297 297 296 296 295 294 294 294 294 294 293 293 293 292 291
307 305 302 300 299 298 297 296 297 297 297 297 297 297 297 296 296 296 296 296 296 296 296 296 296 295 294 294 293 294 293 292 292 292 292 292 292 292 291 292 291 291 290
305 303 299 298 297 296 296 296 296 296 296 296 296 295 295 294 293 293 293 293 294 294 294 294 294 294 293 292 291 293 292 292 291 290 290 290 290 290 290 290 290 290 289
304 301 298 297 296 295 295 294 294 294 294 294 294 294 293 292 292 292 292 292 293 292 292 292 291 291 291 291 292 292 291 290 290 289 289 287 287 287 285 285 285 286 286
301 299 298 296 295 294 294 294 293 293 292 292 291 291 291 291 291 291 291 291 292 291 290 289 289 289 289 289 290 290 289 288 287 286 285 285 285 285 286 285 286 286 286
300 298 297 295 295 295 294 293 293 293 292 292 291 290 291 291 291 291 290 289 289 288 288 287 287 287 287 287 287 286 286 285 285 285 284 284 284 285 285 286 286 286 285
300 299 297 297 295 295 294 293 293 292 292 292 292 292 291 291 290 290 290 289 289 287 287 288 288 289 287 287 287 286 285 285 284 284 284 284 285 285 285 285 285 284 284
301 300 298 297 296 296 295 294 293 293 293 293 293 293 293 292 292 291 289 288 287 286 286 286 286 286 286 286 286 286 285 285 284 284 284 284 284 284 283 283 283 282 282
301 301 300 298 296 296 296 295 294 293 293 292 292 290 289 289 289 287 287 287 286 286 285 285 284 283 282 283 283 284 284 284 283 283 283 283 283 282 281 280 281 281 279
302 301 301 299 297 297 296 296 294 293 293 289 287 287 287 286 286 286 286 286 285 285 284 283 283 283 283 283 284 284 284 284 283 283 283 282 281 280 280 280 279 279 279
303 302 301 299 298 297 296 295 294 293 289 288 287 287 286 286 285 285 285 284 283 283 283 283 282 282 283 283 283 283 283 283 282 282 281 280 279 279 279 280 280 280 280
302 301 301 301 299 297 296 295 293 289 289 287 287 286 286 287 287 286 285 284 283 282 282 282 282 282 282 283 283 283 283 282 282 281 279 279 279 279 279 279 280 280 281

GFSMW_925_thetae_045.txt.gz
Theta_e
313 314 314 314 315 315 316 316 317 317 320 335 341 340 341 340 339 338 338 338 338 336 335 334 333 332 332 333 333 332 331 330 326 317 314 312 310 310 311 312 312 313 313
309 311 313 314 314 313 313 313 314 315 316 317 318 328 340 340 340 339 338 336 334 334 336 335 334 333 332 332 333 332 331 329 324 316 307 305 307 308 309 311 311 311 311
309 310 313 315 315 315 314 314 313 313 314 314 314 316 316 328 335 337 338 337 336 333 330 332 334 334 332 331 332 332 331 326 322 319 313 307 308 305 307 307 309 310 310
310 312 313 315 316 316 316 316 316 315 314 314 313 312 313 314 316 327 335 335 335 335 334 333 331 332 334 333 331 331 331 328 321 316 315 315 313 306 306 305 306 308 309
310 312 314 316 317 316 316 316 315 315 315 314 314 314 312 312 312 314 317 320 330 334 334 334 333 332 332 332 333 332 329 328 324 318 315 311 312 308 304 305 304 304 307
311 312 316 316 316 315 315 314 314 314 314 314 313 313 313 314 313 313 313 315 316 326 331 331 331 333 331 331 332 332 332 329 326 321 318 314 312 311 305 307 304 305 305
310 311 312 313 314 314 313 313 313 313 312 313 313 314 314 314 315 314 315 316 316 317 322 329 330 330 329 329 328 328 329 330 327 323 318 316 313 313 311 307 304 304 302
309 312 311 312 312 312 312 312 311 310 310 311 311 312 312 313 314 315 315 316 317 319 321 322 325 327 328 327 329 327 326 327 328 325 319 316 314 314 314 311 308 304 300
312 311 310 310 311 311 310 309 309 308 308 308 309 310 311 312 314 316 316 316 317 317 318 319 321 324 325 325 325 325 323 324 325 325 323 319 317 316 313 311 309 309 310
311 309 308 309 309 307 307 307 307 306 305 306 307 308 310 312 314 314 313 312 313 313 314 314 315 317 319 320 322 324 324 324 324 323 321 319 317 315 311 309 307 307 308
310 307 306 307 306 306 305 305 304 303 303 304 305 306 308 310 310 311 311 311 310 310 311 312 312 312 313 315 316 318 319 318 318 318 317 316 314 312 309 308 306 303 304
309 307 306 305 304 304 303 302 301 301 301 301 303 304 306 307 307 308 307 308 308 308 308 309 310 310 310 310 312 312 312 312 313 313 313 313 312 309 306 303 300 299 301
308 306 304 303 302 302 301 301 300 300 300 300 301 302 302 303 302 303 303 303 303 303 303 304 304 305 306 307 307 307 307 307 306 304 303 303 301 300 300 299 298 298 298
308 305 302 301 301 300 299 299 299 298 299 299 300 299 300 299 300 300 300 300 300 301 301 300 301 301 301 301 300 300 300 300 299 299 299 298 297 296 296 295 295 296 295
306 305 301 298 298 298 297 297 297 297 298 298 298 298 298 297 297 298 298 298 298 297 297 297 298 297 297 295 296 296 295 295 295 294 294 293 294 294 294 293 293 293 293
306 303 300 298 297 297 296 296 296 296 296 296 296 296 296 295 295 295 295 295 295 295 295 295 294 294 294 293 294 295 294 294 293 292 292 292 293 292 292 292 291 291 291
304 301 298 297 297 296 296 295 295 295 295 295 295 294 294 294 294 293 294 293 293 293 294 293 293 293 293 292 292 293 292 292 290 290 290 291 290 290 290 290 290 290 290
302 299 297 296 295 295 295 294 294 294 294 294 294 293 293 292 293 293 292 292 292 292 291 291 291 292 292 291 291 291 291 291 290 290 289 289 288 288 288 287 286 286 286
299 297 296 295 295 294 295 294 293 293 293 292 292 292 292 292 292 291 290 290 289 289 289 289 289 290 289 289 288 288 288 287 286 285 285 285 285 286 286 285 285 286 286
298 296 295 295 294 294 294 294 293 293 292 291 291 291 291 291 291 290 289 288 289 288 287 286 287 287 287 287 287 285 285 285 285 284 283 285 285 286 286 286 285 285 285
297 296 295 295 295 294 294 293 293 292 292 292 292 292 292 291 290 289 290 289 287 287 288 288 288 287 287 288 287 285 284 284 284 283 283 284 285 285 285 285 284 284 284
298 297 296 296 295 295 294 293 293 293 293 293 293 293 293 292 291 289 287 287 286 286 286 286 285 285 285 285 286 285 285 284 283 284 283 283 284 283 283 283 282 282 282
299 298 297 296 296 296 295 294 293 293 293 293 293 292 291 291 289 288 287 286 286 285 285 284 283 282 282 283 284 284 285 284 284 284 284 283 283 282 280 280 281 281 279
300 299 298 297 296 296 296 295 294 293 293 292 290 287 287 286 286 286 286 286 285 284 284 283 283 282 282 283 283 283 283 283 282 282 282 281 282 280 280 279 279 279 279
301 300 299 298 297 297 296 296 295 293 292 289 287 287 287 286 285 285 285 284 284 284 283 283 282 282 282 282 283 283 283 283 283 283 281 279 279 279 279 279 279 280 280
301 300 300 299 298 298 297 296 295 293 292 288 287 287 286 285 286 285 285 284 283 283 282 282 281 281 282 283 283 283 283 283 283 282 279 278 278 278 279 279 279 279 280

GFSMW_925_thetae_048.txt.gz
Theta_e
310 312 313 313 313 314 316 317 318 326 337 340 340 339 339 339 339 338 338 339 338 337 334 333 333 332 332 333 333 333 332 331 330 322 316 316 313 312 311 312 313 314 316
309 310 312 313 314 313 313 313 313 314 315 318 328 336 339 340 340 340 339 337 337 336 335 335 334 333 332 332 332 332 332 332 330 321 311 311 313 313 313 311 311 312 313
308 309 312 314 314 314 314 313 313 313 313 313 313 314 315 323 335 335 336 335 336 337 336 335 334 334 333 331 332 332 331 329 327 324 320 306 311 306 310 310 310 310 311
307 310 312 314 315 316 315 315 315 315 314 313 313 313 311 311 313 315 317 328 333 334 335 335 334 333 331 332 332 331 331 330 327 322 319 317 311 308 311 308 307 306 308
309 311 312 315 316 316 315 315 314 314 314 314 313 313 313 313 313 312 312 313 316 319 321 330 334 332 330 330 332 332 330 330 328 324 321 315 313 309 307 309 308 307 307
309 311 314 315 315 314 314 313 313 313 313 313 313 313 313 313 314 314 314 314 314 315 317 324 329 332 332 331 330 329 330 329 329 326 323 319 314 313 308 304 305 306 309
309 310 310 312 313 313 313 312 312 311 311 312 312 312 312 313 314 314 314 315 315 318 320 322 326 329 330 331 328 328 328 328 327 327 325 323 319 316 314 312 311 306 306
307 310 310 310 311 311 311 311 310 309 309 310 310 310 311 311 313 314 315 315 316 316 317 319 322 324 327 328 327 326 328 327 326 325 325 323 320 318 314 313 311 307 303
309 310 308 309 310 309 308 308 308 307 307 307 308 308 310 311 313 314 314 313 313 314 314 315 317 319 322 323 325 325 326 324 323 323 323 321 319 317 315 314 312 312 312
311 307 306 308 307 307 306 306 305 305 304 305 306 308 311 312 313 312 312 310 310 311 311 312 312 313 315 317 318 318 319 321 320 320 319 320 319 318 316 313 312 310 310
309 306 305 306 305 305 305 304 303 303 303 303 304 306 308 308 308 308 310 309 309 308 309 309 310 311 312 313 314 314 314 314 313 314 314 315 314 313 312 310 309 307 306
308 305 304 304 303 303 302 302 302 301 301 301 302 303 304 305 305 305 306 306 305 305 305 306 307 308 308 309 309 309 309 310 310 309 309 308 307 306 305 304 302 301 301
307 304 302 302 302 301 301 300 300 299 299 300 300 301 301 302 302 302 302 302 302 302 303 303 303 303 303 305 305 306 306 306 305 304 303 302 302 301 300 299 298 297 297
306 303 301 300 300 300 299 299 299 299 298 299 299 299 299 299 299 299 300 300 299 300 299 299 298 298 298 298 300 300 300 300 299 298 297 297 297 296 296 295 295 294 294
306 304 301 298 298 298 298 297 297 297 298 298 298 297 297 297 297 297 298 298 297 297 296 296 296 296 295 295 296 296 296 295 294 294 293 293 294 294 293 293 293 293 293
306 303 300 298 297 297 296 297 296 296 296 296 296 296 296 296 295 295 294 294 294 295 295 294 294 293 293 293 294 295 294 292 292 292 292 292 293 292 292 292 291 291 291
304 301 299 297 297 296 296 296 296 296 295 295 295 295 295 294 294 294 294 294 294 294 293 293 293 293 293 292 293 293 293 292 291 291 291 291 290 290 290 290 290 290 290
302 299 297 296 296 295 295 295 295 295 294 294 294 294 293 293 293 293 292 292 292 292 291 292 292 292 291 291 291 291 291 290 288 287 286 286 285 286 286 285 286 286 286
300 298 297 296 295 295 295 294 294 294 293 293 293 292 293 292 292 292 291 290 290 289 290 290 290 289 288 287 286 286 285 285 284 284 285 284 284 286 286 285 285 286 286
298 296 296 295 295 295 295 294 293 293 292 292 292 292 292 292 291 291 289 289 288 288 287 287 287 287 288 288 286 285 285 284 284 283 283 285 286 286 286 285 284 284 284
297 296 295 295 295 294 294 293 293 293 293 292 292 292 292 292 290 289 289 288 287 287 287 288 287 286 286 287 287 285 284 283 283 283 283 283 285 285 284 284 283 283 284
296 295 294 295 295 294 294 293 293 293 293 293 292 292 290 290 289 288 286 286 286 286 286 285 285 284 283 285 285 285 285 285 283 283 283 283 284 283 283 282 282 282 282
297 296 295 295 295 294 294 294 293 293 293 293 293 292 292 291 288 287 287 287 286 285 284 284 283 282 282 283 284 285 285 285 284 283 283 283 283 283 281 280 281 280 279
298 297 296 296 296 295 294 294 294 293 293 293 292 292 291 290 289 287 286 285 285 284 284 283 283 282 282 283 283 283 283 282 282 282 282 280 281 280 280 279 279 279 279
299 298 297 297 296 296 295 295 294 293 293 293 292 289 287 286 286 285 285 285 284 284 283 283 282 282 282 282 284 284 283 283 283 283 282 279 279 279 278 279 279 279 280
301 300 299 298 298 297 296 296 295 294 293 291 288 286 286 286 285 285 285 285 284 283 283 282 281 281 281 283 283 283 283 283 283 282 281 279 278 278 278 278 278 278 279

GFSMW_925_thetae_051.txt.gz
Theta_e
310 311 312 313 315 317 325 330 335 338 339 339 339 338 338 338 339 338 338 337 338 337 333 333 333 332 332 332 332 332 331 330 329 326 325 326 324 319 317 315 313 312 312
308 309 310 312 313 313 314 315 317 318 322 331 338 338 339 339 339 339 339 339 338 337 337 336 336 334 332 332 331 331 331 331 331 324 314 315 318 321 320 317 313 312 312
307 308 310 312 313 313 313 313 313 313 313 313 314 316 322 328 332 337 338 338 338 338 338 337 336 335 334 333 333 331 330 329 329 327 324 313 314 309 319 319 315 313 311
306 308 310 312 314 314 315 315 314 314 313 313 313 313 312 312 313 315 316 317 320 328 332 334 335 335 335 334 333 331 331 330 328 325 324 324 318 314 314 315 313 310 309
306 309 310 313 315 315 314 314 313 313 313 313 313 313 312 313 313 313 312 312 313 314 316 318 320 326 333 334 331 330 330 330 329 327 324 320 315 312 310 320 315 314 313
306 309 312 314 314 313 313 313 313 312 312 313 313 312 312 312 313 313 313 314 314 314 314 316 320 323 327 332 332 331 330 329 329 328 327 323 317 313 310 310 314 311 312
308 309 310 311 312 312 312 312 312 311 311 311 311 311 311 311 312 313 313 314 315 316 317 319 321 324 327 329 330 330 329 328 328 326 326 325 323 320 317 314 314 310 311
307 309 309 310 311 311 311 310 310 309 309 309 309 309 310 311 312 314 314 314 314 314 315 315 317 320 323 326 327 328 327 327 327 326 325 324 322 321 320 315 313 310 306
308 308 308 309 309 309 309 309 308 308 307 307 307 308 309 310 312 313 312 312 311 312 312 313 314 314 317 319 322 324 324 324 323 323 322 322 321 320 318 317 315 313 312
308 307 306 307 307 307 307 307 306 306 305 305 305 307 310 311 311 311 310 310 309 309 309 310 311 311 312 314 316 317 317 317 317 315 316 316 316 315 313 312 311 311 311
309 306 305 306 305 305 305 304 304 303 303 303 304 305 307 307 307 307 307 307 307 306 307 307 308 309 309 310 311 311 311 311 310 309 310 309 309 310 309 308 306 305 305
308 305 304 304 303 303 303 302 302 302 301 301 302 303 303 304 304 304 303 303 304 303 304 304 305 306 306 306 307 307 307 306 306 307 307 306 306 304 304 303 303 301 300
307 304 302 302 302 301 301 301 300 300 300 300 300 301 301 301 301 301 301 301 301 301 301 301 302 301 301 302 303 303 304 304 303 302 301 300 301 300 300 299 299 298 298
307 304 302 301 301 300 300 299 299 299 298 299 299 299 299 299 299 299 299 299 299 299 298 298 298 297 297 298 298 298 298 298 297 296 296 295 296 296 295 295 295 295 295
305 303 302 299 299 298 298 298 298 298 298 298 298 297 297 297 297 297 296 297 297 296 296 295 294 294 294 293 296 296 295 293 293 293 293 293 294 294 293 293 293 293 293
307 304 301 299 297 297 297 297 297 297 297 297 297 296 296 296 296 295 295 295 295 295 294 293 293 293 293 293 294 294 292 292 292 293 292 292 292 292 292 292 292 292 291
306 303 300 298 298 297 296 297 296 296 296 296 295 295 295 295 294 294 294 294 294 293 293 293 293 293 293 292 293 293 292 291 290 290 290 289 289 288 288 288 289 289 289
304 301 299 298 297 296 296 296 295 295 295 295 294 294 294 293 293 293 293 293 292 292 292 292 292 291 290 290 290 290 290 289 286 285 284 284 285 286 286 284 285 285 285
301 300 300 298 296 296 295 295 294 294 294 294 293 293 293 292 292 292 292 291 291 291 291 291 290 288 288 286 285 285 285 284 284 284 285 285 285 287 286 285 284 285 285
300 298 298 297 296 295 295 295 294 294 293 293 293 292 292 292 291 291 289 289 289 289 289 287 287 287 288 287 285 284 283 283 283 283 283 284 286 286 286 284 284 283 283
298 298 296 295 295 295 295 294 294 293 293 292 292 292 292 292 291 289 288 288 287 286 287 287 286 286 286 287 287 286 284 283 283 283 283 283 284 285 284 284 283 283 283
296 296 295 295 295 295 294 294 293 293 293 292 292 292 292 291 289 288 287 287 287 286 286 285 285 284 283 284 285 286 285 285 284 283 283 284 284 284 283 282 282 282 282
296 296 295 295 295 294 294 294 294 293 293 292 292 291 290 290 289 287 286 286 285 285 285 284 284 283 282 283 283 284 284 284 283 282 283 283 282 283 282 280 281 280 279
297 296 295 295 294 294 294 294 294 293 293 293 293 292 291 290 288 287 287 286 286 285 284 283 283 282 282 282 283 283 283 283 283 283 283 282 280 279 280 279 279 279 279
298 297 296 296 296 295 295 294 294 294 293 293 292 292 291 290 289 288 286 286 285 285 284 283 283 282 282 282 282 284 284 284 284 284 283 282 279 278 278 278 278 278 279
300 298 298 298 297 297 296 296 295 294 293 292 292 292 289 287 286 285 285 284 284 284 283 283 282 282 281 282 284 283 283 283 283 283 281 280 279 278 277 277 277 277 278

GFSMW_925_thetae_054.txt.gz
Theta_e
312 312 312 313 315 326 335 334 337 337 337 337 337 337 337 337 336 335 335 336 336 337 336 332 332 332 332 332 332 331 331 330 330 327 327 328 328 327 329 328 322 317 314
308 309 310 311 312 314 317 324 329 332 335 337 338 338 338 338 337 337 338 338 338 338 337 337 337 335 332 332 332 330 330 330 330 328 319 321 324 326 326 325 323 320 316
307 307 308 310 312 312 313 314 315 315 315 318 325 329 331 333 335 336 337 338 338 338 337 337 337 336 336 334 334 332 330 329 329 328 327 317 319 313 322 323 321 319 317
305 306 308 310 312 313 313 314 313 313 313 313 313 312 312 312 312 313 315 316 315 317 323 329 331 333 334 335 334 334 332 330 328 327 326 325 320 318 319 319 320 320 322
305 306 308 311 312 314 314 313 313 313 313 313 313 312 312 312 312 313 313 312 312 312 312 313 316 318 321 323 329 333 332 330 329 327 326 324 319 316 313 321 319 319 318
304 305 309 311 313 312 312 312 312 312 312 313 313 312 312 312 312 312 313 313 313 314 315 315 317 318 321 325 328 330 330 330 329 328 325 326 320 315 312 311 312 314 316
302 306 308 311 311 311 311 311 311 310 310 311 311 311 311 311 311 312 313 313 314 314 315 315 317 319 321 323 325 325 327 329 328 327 325 325 325 323 320 316 315 313 312
304 308 309 310 310 310 310 310 310 309 309 309 309 309 309 310 311 312 313 314 313 313 313 314 314 315 317 320 324 325 326 326 326 322 321 322 323 322 320 317 314 312 309
307 307 308 309 309 309 309 309 308 307 307 307 307 307 308 309 311 312 312 311 310 310 310 310 311 312 313 316 318 320 321 323 323 322 321 320 318 318 317 316 315 314 312
308 306 305 307 307 308 308 307 306 306 305 305 305 306 309 310 310 310 310 309 308 308 308 308 309 309 310 312 315 316 315 317 316 315 315 315 314 314 313 312 312 310 309
308 306 304 306 306 306 305 305 304 304 304 303 303 305 306 306 306 307 306 306 306 306 306 306 307 307 307 308 309 309 310 310 308 308 308 308 309 308 308 308 308 307 306
307 304 303 303 303 303 303 303 302 302 302 302 302 303 303 304 304 303 303 303 303 302 303 303 304 304 304 305 305 305 304 304 304 303 305 304 302 303 303 302 303 301 301
305 303 302 301 302 302 301 301 301 301 301 300 300 301 301 301 301 301 300 300 300 300 300 300 300 300 300 301 301 302 301 300 300 299 298 297 298 297 297 297 297 297 297
306 303 302 301 302 301 301 300 300 299 299 299 299 299 299 299 299 298 298 298 298 298 298 298 297 296 297 298 298 298 298 297 295 295 295 294 295 294 294 294 294 294 295
305 303 302 300 300 300 299 299 298 298 298 298 298 297 297 297 297 296 296 296 296 296 294 294 293 294 293 294 294 294 293 293 293 293 293 293 294 294 293 293 293 293 293
307 303 301 300 299 299 298 298 298 297 297 297 297 297 296 296 296 296 295 295 295 295 294 294 293 293 293 292 292 291 291 292 293 292 291 291 292 292 291 291 292 291 290
307 304 301 300 299 299 298 297 297 296 296 296 296 296 295 295 295 294 294 294 294 294 293 293 292 292 291 291 292 292 291 290 289 288 288 287 287 286 285 285 286 287 287
306 303 300 300 300 299 297 297 296 296 296 295 295 295 294 294 293 293 293 293 293 293 292 292 291 290 290 289 289 288 287 285 284 284 283 284 286 288 285 284 284 285 285
303 302 302 301 298 297 297 296 295 295 295 294 294 294 294 293 293 292 292 292 292 291 291 290 288 287 288 286 285 285 284 284 283 284 285 286 286 287 286 284 284 283 284
303 301 300 299 298 296 296 295 295 294 294 294 294 293 293 293 292 292 291 291 291 290 290 288 287 288 288 287 284 283 283 283 283 283 283 283 286 286 285 284 283 282 283
299 299 298 297 297 296 295 294 294 294 294 293 293 293 293 292 292 291 290 289 288 288 287 287 287 287 287 287 287 286 284 284 283 283 283 283 285 285 284 284 282 282 283
296 297 296 296 296 295 295 294 294 294 293 293 292 292 292 291 291 289 288 287 286 286 287 286 285 284 283 284 285 286 286 285 284 283 283 283 283 284 284 282 282 282 281
296 296 296 295 295 295 295 294 294 294 293 292 292 292 291 291 289 289 287 286 286 285 285 284 284 283 282 282 283 284 284 283 284 282 283 283 282 281 281 280 281 280 279
296 296 296 295 294 295 295 295 294 294 293 292 292 291 290 289 289 287 286 286 285 285 284 284 283 283 282 282 283 283 283 283 283 283 283 283 281 279 279 279 279 279 279
298 296 296 296 296 296 295 295 294 294 293 292 292 292 290 290 289 287 287 287 286 285 285 284 283 283 282 282 282 283 284 284 284 284 283 282 281 279 278 278 278 278 278
300 298 298 297 297 297 297 296 295 294 294 293 292 292 291 291 290 289 288 286 285 284 284 284 283 282 282 281 283 284 284 284 284 283 282 280 279 279 278 277 277 277 277

GFSMW_925_thetae_057.txt.gz
Theta_e
316 315 316 315 313 317 334 335 337 338 338 338 337 336 336 336 335 334 335 334 334 334 335 335 335 333 332 332 332 331 331 330 330 327 328 329 329 330 330 329 328 328 325
312 310 312 313 313 313 319 329 333 336 337 337 337 337 337 337 337 337 337 336 336 335 336 336 336 336 335 335 333 331 329 329 330 329 323 328 326 326 326 326 326 325 323
313 310 309 310 311 312 313 317 323 329 333 334 336 336 336 336 336 336 337 337 337 337 336 336 336 336 336 335 335 334 331 329 329 329 328 324 326 319 325 324 323 322 323
309 309 309 309 310 311 312 314 314 314 315 316 319 320 322 319 317 316 317 320 320 318 318 323 329 334 333 333 333 334 333 330 328 327 327 326 324 322 322 322 322 322 321
311 309 309 310 310 312 313 312 312 312 312 312 312 312 312 312 312 312 312 312 312 312 312 312 313 315 317 321 326 327 331 330 329 326 325 325 321 320 317 321 322 320 321
313 310 309 310 311 312 312 312 312 312 312 312 312 312 312 312 312 312 312 312 313 313 315 315 316 317 318 319 322 325 323 324 327 328 327 327 322 319 313 314 314 315 317
308 307 308 310 311 311 311 311 311 311 311 312 312 311 311 311 311 311 312 312 313 313 314 314 314 314 316 318 323 322 322 323 325 324 324 324 323 322 320 318 318 315 314
304 306 309 311 309 310 310 310 310 310 310 310 310 310 310 310 310 311 312 313 313 313 312 312 312 313 313 315 317 320 322 323 324 323 322 321 321 321 320 318 316 313 311
305 306 309 309 309 309 309 309 309 309 308 308 308 308 308 308 309 311 312 311 311 310 309 309 309 310 311 312 315 317 319 321 321 320 321 320 319 318 318 316 315 314 314
307 308 308 307 308 309 308 308 308 308 307 307 307 306 308 309 310 310 310 309 308 307 307 307 308 308 309 311 313 314 315 315 315 315 315 314 313 314 313 312 311 311 311
308 308 306 306 306 306 306 306 306 305 305 304 305 305 306 307 307 307 307 306 305 305 305 305 306 306 307 308 309 310 310 311 311 310 309 309 309 309 308 307 307 306 306
308 307 305 303 304 304 304 304 304 304 303 303 303 303 303 304 304 304 303 303 303 303 303 303 303 304 304 305 305 306 305 305 305 304 304 304 304 303 302 303 302 302 301
307 305 303 303 302 303 303 303 303 302 302 301 301 301 301 301 301 301 301 301 301 300 300 300 300 300 300 301 302 302 301 300 299 299 300 299 298 298 298 298 297 297 297
307 306 304 303 302 302 302 301 301 301 300 300 299 299 299 299 299 299 299 299 299 299 298 297 296 296 297 298 298 297 296 295 295 295 295 295 295 294 294 295 295 295 295
306 306 305 303 301 301 301 301 300 300 299 299 298 298 298 298 297 297 297 297 296 296 295 295 294 293 293 293 294 294 294 294 294 294 294 294 294 293 293 293 293 293 293
308 306 304 302 300 300 300 300 299 299 298 298 298 297 297 296 296 297 296 296 296 295 295 294 293 292 292 293 293 293 293 293 293 292 292 291 291 291 291 291 291 291 290
308 306 304 303 301 301 301 299 299 298 297 297 297 296 296 296 295 295 295 295 294 294 294 293 293 292 291 292 292 292 292 291 290 289 288 287 286 286 285 285 286 286 287
306 306 304 302 302 302 300 299 298 297 296 296 296 296 295 295 294 294 294 293 293 293 293 292 292 291 290 290 289 288 286 284 284 284 284 286 287 287 285 284 284 284 286
305 306 304 303 302 301 299 298 296 296 296 295 295 295 295 294 293 293 293 293 293 292 291 289 288 287 287 285 285 284 284 284 284 285 285 285 287 287 285 284 283 283 284
303 303 303 302 301 299 298 297 296 295 295 295 295 295 294 294 293 293 292 292 292 291 290 288 287 287 287 286 283 283 283 283 283 283 283 285 286 286 286 284 282 282 283
300 300 299 298 299 297 297 295 295 295 295 295 294 294 294 293 293 292 291 291 290 290 288 287 287 287 287 287 287 285 284 284 283 283 283 283 285 285 285 284 282 283 283
296 297 297 297 297 297 296 295 294 295 295 294 293 293 293 292 291 291 290 289 288 288 287 286 286 285 285 285 286 286 286 285 283 283 282 283 284 284 285 283 282 283 281
296 297 297 296 296 296 296 294 294 294 294 293 293 292 292 292 291 290 288 287 286 286 286 285 284 284 283 283 284 285 285 284 284 283 283 283 282 281 280 280 281 280 279
296 296 296 295 294 295 295 296 295 294 293 293 292 292 291 291 290 290 288 286 285 285 284 284 284 284 283 282 282 283 283 283 283 283 283 283 282 281 279 279 279 278 279
297 297 297 296 296 296 295 295 295 294 293 293 292 292 291 291 290 289 287 286 286 286 285 285 284 283 283 283 282 282 283 284 284 284 284 283 282 280 279 278 278 278 278
299 298 298 297 297 297 296 296 295 295 294 292 292 292 290 290 289 288 286 287 287 286 285 284 284 283 283 282 282 284 285 284 284 284 283 282 280 279 279 278 278 277 277

GFSMW_925_thetae_060.txt.gz
Theta_e
323 319 319 316 315 317 335 338 338 339 339 339 338 338 338 338 338 337 337 336 335 335 335 336 336 336 336 336 335 335 335 334 334 332 332 332 331 330 329 328 328 326 324
323 319 317 315 315 316 320 332 336 338 339 340 340 339 339 338 338 338 337 336 336 336 336 336 337 337 336 336 335 335 334 333 333 332 332 332 328 327 326 326 325 323 322
324 322 316 314 314 314 314 318 325 333 336 338 336 334 334 336 336 337 338 336 336 335 335 335 336 335 335 335 336 335 334 332 332 330 332 332 329 326 325 324 321 320 319
319 317 315 314 313 314 313 314 316 321 323 328 329 332 334 335 327 325 324 325 327 326 324 325 329 332 332 331 331 330 330 330 330 329 328 328 327 327 326 324 323 319 319
319 318 316 315 313 313 313 314 314 313 314 315 315 317 317 315 313 313 313 313 313 312 312 312 313 317 321 320 322 325 326 325 327 328 326 325 324 323 323 324 324 322 321
319 319 318 315 314 314 313 313 313 313 312 312 313 314 315 314 314 314 314 314 314 315 314 314 315 316 318 321 321 321 322 323 323 324 326 325 323 323 321 320 321 320 321
318 318 318 314 314 314 314 313 313 313 312 313 313 313 313 313 314 314 314 314 315 315 315 313 313 314 314 315 319 320 321 322 322 323 324 325 325 324 321 318 319 319 318
311 312 314 314 315 314 313 312 312 311 311 311 311 311 311 312 312 313 313 314 314 313 312 312 311 311 312 313 315 319 320 320 321 323 324 323 323 322 321 319 319 318 317
311 311 309 312 314 314 313 312 312 311 310 310 310 310 310 310 311 311 311 311 310 309 309 309 308 308 309 310 313 317 317 318 320 321 321 320 319 318 318 317 317 317 317
309 310 309 311 313 313 312 311 310 309 309 308 309 309 309 309 309 310 309 308 308 308 307 307 307 308 308 309 311 312 313 314 314 314 315 315 314 313 313 313 312 313 313
311 311 310 310 310 310 309 309 308 307 307 307 306 307 306 306 307 307 306 305 306 306 305 305 305 306 306 306 308 309 310 311 311 310 309 308 307 306 306 306 307 307 308
312 311 311 310 309 308 307 307 306 306 306 305 305 305 304 304 304 304 303 303 302 303 302 302 302 302 303 303 304 304 304 304 304 303 303 302 303 303 303 303 303 303 302
313 312 312 311 310 308 307 306 305 305 304 303 303 303 303 303 303 302 301 300 300 300 299 299 298 299 300 300 300 300 300 300 299 299 299 299 300 300 299 299 299 299 298
314 314 313 312 310 308 307 306 304 303 302 301 302 302 301 301 301 300 299 299 299 298 298 297 296 297 297 297 297 297 296 296 296 296 296 296 296 296 296 296 295 296 297
312 314 314 313 310 308 306 305 304 302 301 301 300 300 299 299 298 298 298 297 297 297 296 296 295 294 294 295 296 296 295 295 295 294 294 294 294 294 294 294 294 294 295
311 312 313 312 310 309 307 305 304 302 301 301 300 300 299 298 298 298 297 296 296 296 295 294 295 294 294 294 294 294 293 293 293 292 293 293 292 292 292 292 291 291 292
312 311 311 311 310 309 306 305 303 302 301 300 300 299 298 297 297 296 295 295 295 294 294 293 293 293 292 292 292 293 292 292 292 291 290 288 287 286 286 287 286 286 288
311 310 310 310 310 308 305 303 301 300 300 300 299 298 297 296 295 295 295 294 294 294 293 293 292 292 292 291 291 290 289 287 285 285 285 286 287 286 285 285 285 286 287
311 308 309 310 309 305 303 301 300 299 299 299 298 297 296 295 295 294 294 293 293 293 292 292 291 290 289 287 285 285 284 284 285 285 286 287 288 287 286 285 284 284 285
306 306 307 307 306 304 302 301 300 299 298 298 297 296 295 295 294 294 293 293 292 292 291 289 288 287 288 286 284 284 284 284 284 284 285 285 287 286 286 285 284 284 285
304 303 304 304 304 301 300 300 299 297 297 297 296 295 294 294 294 293 292 292 291 290 289 288 287 287 287 287 285 284 284 284 284 284 284 284 285 285 285 285 283 284 284
301 301 302 301 300 299 299 299 298 297 296 296 295 294 294 293 293 292 292 291 291 290 288 287 287 287 286 287 288 287 286 285 285 284 284 284 284 284 285 285 283 283 282
300 300 301 300 299 298 299 299 298 296 296 295 294 293 293 293 292 291 290 289 289 289 288 287 287 286 284 284 285 287 287 286 284 284 283 284 283 282 281 281 282 282 280
300 299 299 300 299 297 297 298 296 295 295 295 294 292 292 291 291 290 290 289 287 287 287 287 286 285 283 282 283 285 286 285 284 283 284 284 283 282 281 280 280 279 280
300 299 300 300 299 297 297 296 296 295 295 294 293 292 292 291 290 289 290 288 287 287 286 286 285 285 284 283 283 283 283 284 284 284 284 284 283 282 281 280 279 279 279
300 299 299 299 298 297 296 296 295 295 294 293 292 292 291 291 290 289 289 288 286 286 286 286 285 285 284 284 283 282 282 285 285 285 285 284 284 282 281 280 280 279 279

GFSMW_925_thetae_063.txt.gz
Theta_e
324 324 322 321 319 331 339 340 341 340 340 340 340 340 340 340 339 339 338 338 337 337 337 337 337 336 336 336 336 336 334 334 335 334 334 334 333 333 331 330 328 328 327
324 324 321 320 319 319 329 338 340 340 340 340 340 340 340 340 340 340 340 338 338 337 337 337 337 336 336 336 336 335 335 334 334 334 333 333 331 329 328 327 327 326 325
324 324 321 319 318 318 318 329 336 338 340 340 341 340 339 339 339 339 339 339 338 338 337 337 336 335 336 335 335 335 334 334 333 332 332 333 331 328 326 326 325 323 322
321 322 322 319 317 317 317 317 322 331 336 338 339 336 335 337 337 336 336 333 329 329 327 328 331 332 333 333 333 332 331 331 332 331 331 329 329 328 328 325 325 324 320
321 322 320 319 318 317 317 317 317 319 321 324 330 332 334 333 326 320 318 316 316 314 315 314 316 317 320 323 323 325 325 325 326 327 328 326 326 326 326 326 324 325 322
321 321 320 319 318 316 317 316 316 316 316 317 318 320 320 317 316 316 316 316 316 317 317 314 316 317 318 320 322 322 322 321 321 322 323 325 325 322 322 322 322 323 322
319 320 320 320 318 318 318 315 315 315 315 315 316 316 317 317 316 316 316 316 316 316 317 315 315 315 316 316 317 319 320 319 320 320 320 321 323 324 324 321 319 319 319
315 314 316 317 318 318 317 316 315 315 315 315 315 315 315 315 314 315 315 315 315 315 315 313 312 312 312 313 314 316 318 318 320 320 322 322 323 323 323 322 319 318 318
312 314 313 312 316 317 317 315 315 314 313 313 313 313 313 313 313 314 314 314 313 311 310 309 310 310 309 310 312 315 316 317 318 318 320 321 320 320 319 318 319 319 318
313 312 312 311 312 316 316 315 314 313 312 312 312 312 312 312 312 312 313 311 310 308 308 307 307 307 307 309 311 312 312 313 313 314 314 314 314 315 315 315 315 315 315
314 313 313 312 313 315 315 314 313 312 311 311 311 310 310 309 310 310 310 308 307 306 305 305 305 305 305 306 309 308 309 310 310 310 310 310 309 309 309 309 309 309 310
314 314 313 313 312 313 313 312 311 310 310 310 309 309 308 308 308 308 307 305 306 304 303 303 303 303 303 304 306 306 306 307 307 306 306 305 305 305 305 305 305 305 304
314 315 314 313 312 311 311 310 309 309 308 307 307 307 307 306 306 306 305 304 303 303 302 301 301 301 300 301 302 302 302 302 302 301 301 301 302 301 301 301 301 300 300
313 315 315 314 313 312 311 310 308 308 306 305 306 306 305 305 304 304 303 302 302 302 301 300 299 298 298 298 298 299 299 298 298 297 298 297 298 298 297 297 297 297 298
313 313 315 315 314 313 311 310 309 307 305 305 304 304 303 302 302 301 301 300 300 300 299 298 297 297 296 296 296 297 297 296 296 295 295 295 295 295 295 295 295 295 295
312 313 312 315 314 313 311 310 309 307 305 305 304 303 302 301 300 299 299 298 298 297 297 297 296 296 295 295 295 295 296 295 294 293 293 293 293 292 292 291 291 291 292
313 312 313 313 314 313 312 310 308 307 305 305 304 303 301 301 300 299 298 296 296 296 296 295 295 295 294 294 294 294 293 294 293 292 292 290 288 287 287 286 286 288 286
310 312 311 312 312 313 312 310 307 306 304 304 303 302 301 299 298 297 296 296 295 295 294 294 294 293 292 292 292 293 292 292 290 288 286 287 287 286 286 286 286 287 288
309 309 311 310 311 312 311 308 306 304 303 303 302 301 300 298 297 295 295 294 294 294 293 293 293 292 291 290 288 286 285 284 285 285 287 288 289 288 286 286 285 285 286
307 308 308 309 309 311 309 306 305 303 302 302 301 300 298 297 296 295 294 294 293 293 292 292 292 290 289 287 285 285 285 285 285 285 287 285 287 287 286 286 285 285 285
306 304 306 308 308 309 306 305 304 302 301 300 299 298 297 296 295 295 294 293 293 292 291 290 288 287 287 288 285 284 284 285 285 285 285 285 285 286 286 285 284 284 285
305 304 305 306 305 304 304 304 303 302 300 299 298 297 296 295 294 294 293 292 292 291 290 289 288 288 288 288 288 287 285 285 285 285 285 285 284 284 285 286 285 283 283
305 303 304 304 302 302 302 303 302 300 299 298 297 296 295 293 294 293 292 291 291 290 291 289 288 288 287 286 287 288 289 287 286 284 284 284 284 283 282 282 283 283 282
305 303 303 303 302 301 301 302 300 298 298 297 296 295 294 292 292 292 292 290 290 290 291 288 287 288 286 285 284 285 287 288 287 285 284 284 284 283 282 281 281 281 280
304 302 303 303 302 301 300 300 299 297 297 296 295 294 293 292 291 291 291 290 291 291 289 288 287 287 286 285 284 284 285 286 285 285 284 284 284 283 283 281 281 280 280
304 302 301 301 301 300 299 298 297 296 296 296 295 293 292 292 291 290 290 290 291 289 288 287 286 286 286 285 284 284 284 285 285 285 285 285 285 284 283 282 281 281 280

GFSMW_925_thetae_066.txt.gz
Theta_e
321 324 323 320 324 338 340 340 341 340 340 340 339 339 339 339 338 338 338 338 337 337 336 336 337 336 335 335 335 335 334 333 332 333 334 333 333 333 333 332 332 329 328
321 322 322 321 319 325 338 340 341 340 340 340 340 339 340 340 340 339 339 338 338 337 337 337 337 335 336 335 335 335 335 334 333 333 332 330 329 329 328 330 329 327 327
321 320 320 320 319 319 322 337 340 340 340 340 340 339 339 340 340 340 340 339 338 337 337 336 336 335 335 335 335 335 335 334 333 332 331 330 328 326 326 327 326 325 323
319 320 319 319 319 318 318 320 335 339 340 340 340 340 340 339 339 338 338 338 337 338 337 336 335 334 333 332 332 331 331 331 331 331 331 330 330 328 325 324 325 325 323
319 320 318 319 318 317 317 318 322 332 336 339 339 339 338 336 334 332 335 333 330 322 320 319 317 318 319 321 324 324 325 324 325 324 324 326 325 324 326 324 322 324 324
317 318 320 319 318 317 317 316 317 319 326 332 335 334 334 332 325 323 320 316 316 316 315 315 314 315 317 318 320 321 322 322 322 320 320 320 322 323 323 321 320 321 322
315 316 318 318 319 317 317 317 317 316 317 318 320 321 321 320 317 316 316 316 316 316 316 316 315 315 315 315 315 315 317 320 319 318 319 319 319 320 323 321 321 319 321
311 313 312 316 318 317 317 316 316 315 315 316 316 316 317 316 316 316 315 315 315 316 316 316 313 312 312 312 312 313 314 318 317 319 320 321 321 321 322 322 320 318 317
309 309 312 312 312 318 318 317 315 315 315 315 315 315 315 314 314 314 314 314 315 314 313 311 310 310 309 309 309 311 314 315 317 315 316 317 318 319 321 320 320 319 317
311 310 309 311 311 314 317 317 315 315 314 314 314 313 313 313 313 313 313 313 311 310 309 308 308 308 308 308 308 310 311 312 313 313 313 314 314 314 316 315 316 316 316
312 311 310 312 312 315 316 316 315 313 313 313 312 312 312 312 311 311 312 311 309 308 307 307 306 306 306 306 307 309 308 309 309 310 310 310 310 309 310 311 311 311 311
312 312 312 312 312 313 315 314 313 312 312 311 311 310 310 309 309 309 309 308 307 306 305 304 304 304 304 304 305 306 306 307 307 306 306 306 306 306 306 306 305 306 305
310 311 311 311 311 312 313 312 311 311 310 310 309 309 308 307 307 307 306 305 304 304 303 303 302 301 301 302 303 303 303 303 303 303 303 302 303 302 302 303 302 302 301
310 310 311 310 311 311 311 310 310 309 308 308 307 307 306 306 306 305 304 303 303 302 302 301 300 299 299 299 300 300 300 300 300 299 299 299 299 299 298 298 297 297 298
309 308 310 311 312 312 311 311 309 308 307 306 306 305 305 304 304 303 302 301 301 301 300 300 299 298 297 297 297 298 298 298 297 296 296 296 296 296 296 296 296 296 296
310 310 308 311 312 312 312 310 309 308 306 305 304 304 303 302 302 301 300 300 299 299 299 298 297 297 296 295 296 297 297 296 295 295 294 294 293 292 292 292 292 293 293
308 307 307 308 312 313 312 311 309 307 306 305 305 304 303 301 300 300 299 298 298 298 297 297 296 295 295 295 295 295 295 295 294 294 292 291 290 289 287 286 288 286 287
306 306 306 307 310 313 313 311 310 308 306 305 304 303 302 301 300 299 297 296 297 297 296 295 295 294 294 293 293 294 293 293 292 291 288 287 287 285 286 286 286 287 287
306 306 307 307 308 311 313 311 309 307 305 304 304 302 301 300 299 297 296 296 296 295 295 294 294 293 293 291 290 290 290 288 286 285 287 288 289 288 286 286 285 285 286
307 306 305 305 307 308 312 310 308 306 305 304 303 302 301 299 298 296 295 296 295 294 294 293 293 292 291 289 286 285 285 285 286 286 287 287 288 287 286 286 285 284 285
307 305 304 305 306 308 309 307 306 304 303 303 302 301 299 298 296 295 295 295 294 293 293 292 291 291 289 288 286 285 285 285 285 285 285 285 285 286 286 285 285 284 285
307 305 303 305 305 305 306 305 305 304 303 301 300 299 298 297 295 295 294 294 293 292 291 290 289 288 287 288 288 286 285 285 285 285 285 285 285 284 285 286 286 284 284
305 305 303 304 303 303 303 304 303 302 301 299 299 298 297 295 294 293 294 292 292 291 291 290 289 288 287 287 289 290 288 287 285 285 284 284 284 284 283 283 284 284 283
301 305 303 302 302 302 302 303 302 301 299 298 298 297 296 294 293 293 293 292 291 291 291 291 289 288 287 287 286 287 288 289 289 286 285 284 284 284 283 283 282 282 282
300 304 303 303 303 302 301 301 301 300 298 298 297 296 295 294 293 293 293 292 292 292 292 291 290 288 287 287 286 285 285 286 287 287 285 284 284 284 283 283 282 281 281
300 302 303 302 302 302 301 300 299 298 298 297 296 295 294 294 293 292 291 291 292 292 291 291 290 288 287 287 286 285 285 285 286 286 285 284 284 284 284 283 282 281 281

GFSMW_925_thetae_069.txt.gz
Theta_e
319 322 323 324 337 339 340 340 341 340 340 339 339 339 339 337 336 336 337 337 337 337 337 336 336 335 334 334 333 333 334 334 332 332 333 332 331 330 329 328 331 333 329
318 320 322 321 326 337 339 338 339 340 340 339 338 339 338 338 338 336 337 337 337 337 336 336 336 336 334 334 334 334 333 332 330 331 332 329 328 328 328 327 328 330 326
318 318 318 319 322 334 339 339 339 338 339 339 339 339 338 339 339 339 338 338 338 338 337 337 336 335 335 334 333 333 332 333 331 331 331 328 327 326 326 327 327 325 324
318 318 319 318 318 322 333 338 340 338 339 339 338 338 339 339 339 339 339 339 338 337 336 336 336 335 334 333 333 332 331 331 329 330 329 331 330 327 325 324 324 324 324
317 318 316 318 318 318 319 326 337 339 339 339 339 338 337 338 337 338 338 338 337 337 337 335 334 330 328 326 323 323 324 325 325 325 325 323 323 324 323 321 322 321 323
315 315 318 319 318 318 317 317 322 334 337 336 338 337 337 337 335 334 335 335 333 328 318 315 314 314 315 316 317 319 320 321 321 322 321 319 320 321 322 320 320 320 320
313 313 315 315 316 317 317 316 316 318 327 333 336 336 335 335 330 326 323 320 317 315 315 315 315 314 314 315 315 315 315 316 318 320 318 317 318 318 318 320 320 319 320
305 308 312 315 315 317 317 317 316 316 317 320 324 328 330 330 325 321 317 315 315 315 316 316 316 314 312 312 311 311 311 313 315 318 317 317 319 321 321 321 320 316 317
307 306 307 309 312 316 317 317 316 316 316 316 317 317 317 317 317 316 316 315 315 315 315 315 313 311 310 310 309 309 310 313 316 316 315 313 315 316 316 317 320 319 317
310 309 308 309 309 311 317 317 316 315 315 315 315 316 316 316 315 314 314 313 314 314 313 310 309 309 308 308 308 308 310 311 312 313 312 312 314 314 315 316 316 317 317
310 310 309 311 311 312 315 317 316 315 315 315 314 314 313 313 313 313 313 312 312 311 309 308 308 307 307 306 306 308 308 309 309 310 310 311 311 310 310 311 312 311 312
310 310 310 311 311 312 314 315 315 314 314 313 313 313 313 312 311 311 311 310 309 308 307 306 306 305 305 305 305 306 306 307 307 307 307 307 307 307 307 307 308 307 307
309 309 309 309 310 311 312 313 312 312 312 312 311 311 310 310 309 309 309 308 307 306 305 304 304 303 303 302 303 303 304 305 306 305 305 305 305 305 305 304 304 303 302
307 306 307 307 310 311 311 311 310 311 311 310 310 309 309 308 307 307 306 305 304 304 303 302 301 301 301 300 300 301 301 302 301 301 301 301 301 301 300 300 300 298 299
307 306 305 305 308 310 311 311 310 310 309 309 308 307 307 306 305 305 304 303 303 302 301 301 300 300 299 298 298 298 299 300 299 298 298 297 297 297 297 297 297 297 297
306 305 304 304 306 309 310 310 310 309 308 308 307 306 305 305 304 303 303 301 301 300 300 300 299 299 298 297 296 297 298 297 297 296 295 295 294 294 294 295 294 295 295
305 305 304 304 305 306 310 310 310 309 307 307 306 305 304 303 302 301 300 300 299 299 299 298 298 297 296 296 296 296 296 296 295 294 293 293 292 290 289 289 288 289 289
305 304 304 305 305 306 307 311 310 309 307 306 305 304 303 303 302 300 299 299 298 297 297 297 296 295 295 295 294 295 295 294 294 293 292 288 286 285 286 286 287 287 287
304 304 305 305 304 305 307 309 309 309 307 306 305 304 303 302 301 299 299 297 296 296 296 296 295 294 294 293 292 293 293 293 292 289 287 288 288 287 286 286 285 286 286
300 301 305 304 304 305 307 308 308 307 306 306 305 304 303 302 300 299 298 296 296 295 295 295 294 294 293 293 290 288 288 286 285 286 287 288 288 289 286 286 285 284 285
299 300 304 303 304 305 307 307 307 306 307 306 305 303 302 301 300 298 296 295 295 295 294 293 293 292 292 291 289 286 285 285 285 285 286 286 288 287 287 285 285 284 285
298 298 301 303 304 304 304 305 305 306 305 304 303 302 301 300 298 296 294 294 294 294 293 292 292 291 291 288 289 288 286 285 285 285 285 285 286 286 286 287 286 285 284
298 299 299 302 303 303 302 303 304 304 303 302 301 300 299 298 297 295 293 293 293 293 292 291 290 290 288 287 289 289 288 287 285 285 285 285 285 285 284 284 285 286 284
297 297 298 300 302 302 302 302 303 303 302 301 300 299 298 297 296 294 293 293 292 291 291 291 290 290 289 288 287 290 290 289 289 286 285 285 285 284 284 283 283 283 283
297 297 298 299 302 303 302 302 301 301 301 299 298 298 297 296 295 293 293 293 293 294 292 292 292 291 288 288 287 287 288 289 289 288 286 285 285 285 285 284 283 282 281
299 299 299 301 302 302 302 302 301 300 300 298 297 297 296 295 294 293 292 292 293 293 293 293 293 292 292 289 287 287 285 285 286 288 286 285 284 284 284 284 284 283 282

GFSMW_925_thetae_072.txt.gz
Theta_e
317 321 325 337 338 339 339 339 339 340 339 338 337 338 338 339 337 335 336 336 336 337 337 336 335 335 335 334 333 333 333 333 331 331 330 329 329 330 328 329 329 329 330
316 318 321 323 337 338 339 339 338 339 339 339 338 337 339 339 338 335 335 335 336 336 336 336 336 335 335 334 334 334 334 333 330 330 330 326 327 328 328 328 328 327 328
317 315 318 321 323 336 337 336 337 338 339 339 338 339 339 338 337 336 336 337 336 336 336 336 336 335 335 334 334 332 332 332 331 329 331 327 325 324 326 326 326 325 324
314 315 316 318 319 325 336 337 336 336 337 338 339 338 338 337 337 337 336 337 337 336 336 337 336 335 335 334 334 333 332 331 330 330 329 329 330 327 325 324 324 323 322
314 316 315 318 320 321 331 336 336 335 337 338 338 337 338 337 336 335 335 337 337 336 336 336 336 335 334 334 333 333 327 324 324 324 324 323 322 322 323 323 321 321 321
314 314 317 318 317 317 317 321 332 335 337 337 335 334 333 334 334 335 336 335 334 333 334 334 333 332 327 319 316 315 316 318 319 320 321 321 319 318 319 317 317 319 319
313 312 314 315 317 317 317 317 318 328 334 335 335 336 333 332 332 331 332 332 330 328 326 320 316 314 313 313 313 314 314 315 316 317 319 319 317 317 318 318 317 317 319
304 309 312 314 314 315 316 316 316 316 321 330 333 333 333 332 331 331 331 330 329 329 322 315 314 315 314 313 313 312 312 312 312 313 316 318 317 317 318 319 318 317 317
307 306 306 308 310 315 317 317 316 316 315 316 319 324 329 332 330 325 322 321 319 316 316 315 316 315 313 311 310 310 309 310 311 313 316 314 314 313 315 316 316 319 318
308 307 307 309 310 310 311 316 316 316 316 315 316 316 318 319 320 322 321 318 315 315 315 314 313 311 310 309 309 308 308 309 311 312 314 313 312 313 313 313 315 316 317
308 308 308 309 310 311 312 313 316 315 315 314 314 315 316 316 316 315 314 314 314 313 313 310 309 308 308 307 307 307 308 309 309 310 310 310 311 311 312 311 312 312 313
308 307 308 310 310 311 311 314 315 315 315 314 314 314 314 314 314 313 313 313 312 311 310 308 307 306 306 305 305 305 307 307 307 307 307 308 308 307 308 307 307 307 307
305 304 306 307 308 309 311 312 313 314 313 313 313 313 313 312 312 312 311 310 309 308 307 306 305 305 304 304 303 303 304 305 306 306 306 305 305 305 305 305 305 305 305
305 304 303 303 306 308 309 311 312 312 311 311 311 311 311 310 310 309 309 308 307 306 305 304 303 303 302 302 301 301 302 302 302 303 303 303 303 303 302 302 302 302 301
305 304 303 302 304 305 308 309 310 311 311 310 310 310 309 309 308 307 307 306 305 304 303 302 301 301 300 300 299 299 299 300 300 300 300 299 298 298 298 298 298 298 298
305 304 303 303 303 304 305 306 309 309 310 309 309 309 308 307 306 306 305 304 303 302 301 301 300 300 299 300 299 297 298 298 298 298 297 297 296 296 296 296 296 296 296
303 303 303 303 304 304 304 305 306 309 308 308 308 307 306 305 305 304 303 302 301 300 300 299 299 298 298 297 297 297 297 297 297 296 296 295 294 292 291 291 291 291 293
299 299 300 301 303 304 304 304 306 307 308 307 307 306 306 304 303 302 302 301 300 299 298 298 298 297 297 297 296 296 295 296 295 295 294 293 292 289 287 287 287 287 287
297 298 298 299 302 304 304 304 305 306 307 307 307 306 305 304 303 302 301 299 298 297 297 297 297 296 296 295 294 294 294 294 294 293 292 288 286 287 286 286 286 286 286
298 298 298 298 300 303 304 304 305 305 306 307 307 306 305 304 303 302 300 299 297 296 296 296 296 296 295 294 293 292 292 292 292 290 287 288 288 289 288 286 285 285 285
298 298 298 297 299 301 302 303 304 304 306 305 306 306 305 304 303 301 299 298 296 294 294 295 295 294 294 293 291 289 290 289 286 286 287 288 289 289 288 286 285 284 285
297 297 297 297 298 299 301 302 302 304 305 305 305 305 304 303 301 300 298 297 295 294 294 294 293 293 293 292 292 289 286 285 285 285 286 286 287 288 287 287 285 285 285
297 297 296 296 298 300 301 301 302 303 304 304 304 303 302 301 300 299 297 296 294 293 293 292 292 292 292 292 290 290 289 287 286 285 285 285 286 287 286 286 286 287 285
297 297 297 296 297 299 301 302 302 302 302 302 302 301 300 299 298 297 296 295 293 292 292 291 291 291 291 290 288 290 290 289 288 286 285 285 286 286 285 284 284 285 285
297 298 298 298 298 299 301 302 301 301 302 301 300 299 299 298 297 297 296 295 294 294 293 292 292 291 291 292 289 288 289 289 288 288 286 285 285 285 285 284 284 283 283
295 293 296 296 296 297 298 300 301 300 300 299 299 298 297 296 296 295 294 294 294 294 293 293 293 293 294 293 291 288 287 288 290 290 287 286 285 285 285 285 284 283 282

GFSMW_925_thetae_075.txt.gz
Theta_e
317 320 326 335 337 339 339 339 338 337 336 337 338 338 337 339 338 339 338 336 337 336 336 335 334 334 333 333 334 333 332 332 332 332 330 328 328 328 327 327 328 328 329
315 316 319 322 334 337 338 338 338 338 337 338 338 338 338 337 336 338 336 335 336 336 336 336 335 334 335 335 334 333 333 333 333 332 330 325 327 327 327 327 327 327 326
316 315 315 319 322 332 336 337 336 338 338 338 338 338 337 337 338 338 335 335 335 336 336 336 336 335 335 335 333 333 333 332 331 331 329 327 323 323 327 325 325 325 325
315 314 315 316 319 322 330 335 336 336 335 336 338 337 335 336 335 337 336 335 335 335 336 335 335 334 334 334 334 333 332 331 331 330 330 329 328 327 323 323 323 323 322
313 314 313 317 319 322 322 330 335 335 336 336 337 337 336 336 334 333 333 333 334 335 335 335 333 332 330 331 330 332 331 332 330 326 323 323 322 322 322 321 320 321 321
313 312 315 316 317 318 319 322 332 333 335 337 336 334 334 333 333 332 332 331 332 332 332 331 328 325 327 329 330 329 323 318 317 318 318 320 319 316 316 315 316 317 318
312 312 313 314 315 315 317 319 324 329 333 334 335 333 332 333 333 333 332 331 331 330 330 329 329 328 326 324 316 313 314 314 316 316 317 319 319 319 317 316 315 314 316
306 308 309 312 313 314 315 315 316 317 321 327 331 331 332 331 332 332 330 331 329 328 327 325 323 318 314 314 314 314 313 312 312 312 313 314 316 317 317 317 316 316 315
305 305 305 306 308 309 313 315 315 316 316 316 319 326 330 331 331 331 329 328 326 327 325 323 319 315 315 314 312 311 310 310 309 310 311 314 316 314 313 313 313 316 316
306 306 305 308 310 310 311 311 312 315 315 315 315 316 317 322 328 327 324 324 325 325 323 317 316 315 314 312 310 309 308 308 309 310 311 313 313 312 312 312 311 313 315
306 305 305 308 309 309 310 311 313 314 315 314 314 314 315 316 318 322 323 319 316 314 314 314 314 313 311 309 308 307 307 307 308 309 309 309 310 310 311 310 311 311 311
303 303 305 307 308 309 310 310 311 314 314 314 314 314 314 315 315 315 315 315 314 313 313 312 311 309 308 307 307 306 305 306 307 307 307 307 307 308 308 307 308 307 307
303 302 301 302 304 305 307 309 311 311 312 313 313 313 313 313 314 313 313 312 312 311 310 309 308 307 306 305 304 304 303 304 304 305 306 306 305 305 305 304 304 304 303
303 303 301 301 303 304 305 306 309 310 311 311 312 312 312 312 312 312 311 311 310 309 308 306 305 305 304 303 302 301 301 301 302 302 303 303 303 303 302 302 302 302 301
304 303 302 301 303 304 305 305 305 308 309 309 310 311 310 310 309 309 309 308 307 306 305 304 303 302 302 301 300 299 299 299 300 300 300 300 300 300 300 299 300 300 299
301 300 300 300 301 302 303 304 304 305 307 308 309 309 309 308 308 307 306 306 305 304 303 302 301 301 300 300 299 299 298 297 298 298 298 298 297 297 297 297 297 297 297
299 298 297 298 299 300 302 303 304 304 305 307 308 308 308 307 307 306 305 304 303 303 302 301 300 299 299 299 298 298 298 297 297 297 297 296 295 295 294 293 294 294 294
297 297 297 297 297 299 302 302 303 304 305 306 307 307 306 306 305 304 303 303 302 301 300 299 299 298 298 297 297 297 297 296 296 296 295 294 294 292 290 288 287 287 287
297 297 297 297 297 298 299 301 302 303 304 305 306 307 306 305 304 303 303 302 301 299 299 298 298 297 297 296 297 296 295 295 295 294 294 293 292 288 287 286 286 287 286
297 297 297 296 296 297 298 299 301 302 303 304 305 305 306 305 304 303 302 301 300 299 298 297 297 296 296 296 295 294 294 293 293 293 292 291 287 287 289 286 285 285 286
296 297 296 296 296 297 297 298 300 301 302 304 304 304 305 305 305 303 302 301 299 298 296 294 294 295 295 295 294 293 292 292 292 292 291 287 289 289 289 287 285 285 284
295 296 296 296 297 297 297 297 298 302 302 304 303 303 304 304 304 302 301 299 298 296 295 294 294 295 295 294 293 292 290 288 288 287 286 286 288 290 289 288 286 285 284
296 296 297 296 297 298 298 297 300 301 301 302 303 302 302 302 302 301 300 297 296 296 294 294 294 294 294 294 293 292 291 288 286 285 285 285 285 288 288 288 287 287 286
295 295 296 295 297 297 296 296 299 300 300 301 301 301 301 300 300 299 299 297 295 295 293 293 292 293 293 293 293 292 291 290 289 287 285 285 285 287 287 286 286 286 287
293 294 293 293 294 293 294 295 296 298 299 300 300 300 299 299 299 298 298 297 297 297 294 293 293 292 292 294 294 293 289 290 290 288 286 285 286 286 286 285 284 283 284
292 291 291 291 291 292 292 293 295 297 299 298 299 299 298 297 297 297 296 296 296 295 295 294 294 294 294 294 294 293 290 288 289 289 287 286 285 285 285 285 285 284 284

GFSMW_925_thetae_078.txt.gz
Theta_e
319 323 332 336 336 336 334 335 334 332 334 333 332 332 335 334 336 337 335 335 336 336 336 333 333 333 332 332 332 332 332 331 330 330 330 329 328 328 327 327 327 326 326
316 317 320 327 335 336 335 336 335 334 334 334 333 329 334 334 335 337 337 335 336 336 337 335 335 334 333 332 332 333 333 331 331 332 329 324 325 325 326 326 325 325 325
316 316 315 318 322 330 335 337 336 335 334 335 335 334 335 335 335 336 336 336 335 335 334 335 334 334 333 334 334 334 332 333 330 330 330 324 322 322 326 325 324 324 324
315 315 315 316 317 320 325 335 336 336 335 335 334 335 334 333 333 334 336 334 333 333 333 333 333 333 333 334 332 332 332 331 331 330 330 330 328 326 321 322 322 323 322
313 314 314 315 317 317 319 324 334 334 334 333 333 334 334 333 332 332 333 331 333 332 332 332 333 332 331 329 329 329 330 330 329 329 328 324 323 322 321 317 317 319 319
313 312 313 315 316 316 316 318 325 333 334 333 332 334 333 332 332 332 332 331 331 330 330 330 331 328 326 325 322 322 321 328 328 321 318 318 318 315 315 314 314 315 317
312 313 313 312 314 314 314 315 318 324 330 331 333 332 332 333 332 332 331 331 330 330 330 329 329 327 325 326 325 325 323 317 316 315 316 316 317 318 318 316 314 313 316
307 306 307 309 310 312 314 314 315 316 316 318 324 329 331 332 332 331 332 331 330 330 330 329 326 324 325 323 318 314 314 313 312 312 311 312 312 315 316 315 314 314 314
304 304 304 305 306 308 310 311 313 315 315 315 315 316 321 327 329 330 330 330 329 330 328 326 326 324 318 315 314 313 312 311 310 309 309 311 312 314 315 314 311 312 312
304 304 304 305 307 308 310 311 312 312 313 315 315 315 315 316 320 326 327 327 327 326 325 322 319 317 315 314 313 311 310 309 308 308 309 310 311 313 312 312 311 310 310
304 303 303 305 305 307 309 310 311 312 314 314 314 314 314 315 315 318 324 324 324 323 323 320 316 314 313 312 309 308 308 307 307 307 308 308 309 309 310 310 310 310 311
301 300 301 302 304 304 305 307 309 310 311 313 313 313 313 313 314 315 318 318 318 316 315 315 314 311 310 308 308 307 306 306 305 306 306 306 307 307 308 308 308 307 307
302 301 301 301 302 304 304 305 306 308 310 311 312 312 312 312 313 313 314 313 313 313 312 312 310 309 308 306 305 305 304 304 304 304 304 305 306 305 305 305 304 304 304
302 300 299 299 301 303 304 304 305 305 307 309 310 311 311 312 312 312 312 311 311 311 310 308 307 306 305 304 303 303 302 301 301 301 302 302 303 303 302 302 302 302 302
299 298 297 296 298 299 302 304 304 304 304 307 309 310 310 310 310 311 310 310 309 308 307 306 305 304 303 302 301 301 300 299 299 299 299 300 300 300 300 300 300 300 300
298 297 297 296 296 297 298 301 303 304 304 304 306 309 309 309 309 308 308 307 306 305 305 304 303 303 302 301 300 300 299 298 298 298 298 298 298 298 297 297 297 297 297
297 297 296 296 296 297 297 298 300 302 303 304 305 306 307 308 308 307 306 306 305 304 303 302 302 301 300 300 299 298 298 298 297 297 297 297 296 296 295 294 294 294 294
297 296 296 296 296 296 297 297 298 300 302 303 304 305 306 306 306 305 304 304 303 303 302 301 300 300 299 299 298 298 297 297 296 296 296 295 295 294 292 290 289 288 288
296 296 296 296 296 296 297 297 297 298 301 302 303 304 304 305 305 304 303 303 302 301 301 300 299 299 298 298 297 297 296 295 295 295 295 294 293 292 290 287 286 286 286
296 296 296 296 296 297 296 296 297 297 299 300 301 303 303 304 304 304 303 302 301 301 300 299 298 298 298 297 296 296 295 294 294 293 293 293 292 288 289 287 286 286 286
295 296 296 295 296 297 296 296 296 297 299 300 301 303 303 303 304 304 302 302 300 299 298 297 295 295 296 296 296 295 295 294 293 292 292 292 291 287 290 289 286 285 285
295 295 295 295 297 296 296 295 295 296 298 299 300 301 302 302 302 302 302 300 299 298 297 296 295 294 294 295 295 295 294 292 291 292 292 291 287 290 291 289 287 285 285
294 294 294 295 293 293 295 294 294 295 297 298 299 300 301 301 301 300 300 298 297 296 294 295 294 294 293 294 294 294 293 292 287 286 286 285 286 289 290 289 288 287 286
293 292 293 291 291 292 291 292 292 294 295 297 299 299 299 299 299 298 298 297 295 294 294 294 294 294 294 293 294 294 294 293 290 287 286 285 285 286 288 288 288 288 287
291 292 290 289 289 289 290 291 292 293 294 296 297 298 298 298 298 298 298 297 297 297 297 296 295 293 293 294 295 295 294 293 291 290 287 285 286 286 287 287 286 285 285
290 290 290 289 288 288 288 289 291 292 292 293 295 297 297 298 297 297 296 296 297 297 297 297 296 295 294 294 294 294 294 293 290 289 287 286 285 286 286 286 285 285 284

GFSMW_925_thetae_081.txt.gz
Theta_e
318 326 327 332 333 331 331 330 332 333 331 332 333 333 333 332 333 333 335 334 333 333 332 333 332 331 332 331 329 329 328 329 330 330 330 330 328 328 328 326 326 325 323
317 317 320 328 332 331 332 331 331 331 330 331 331 331 331 329 331 333 334 333 334 334 334 334 333 332 333 332 331 330 331 332 331 331 329 330 328 325 326 325 325 324 324
317 316 316 322 327 331 332 332 332 331 332 331 330 330 330 330 332 332 333 332 334 335 333 334 333 332 332 332 332 331 332 332 332 330 329 328 329 325 325 324 323 323 323
316 316 316 315 321 327 330 329 331 332 333 332 331 332 332 330 329 332 332 332 332 333 333 333 332 331 331 331 331 332 331 330 331 329 329 328 328 328 327 321 321 321 321
316 315 315 315 316 316 318 322 330 332 332 333 332 332 331 325 326 329 330 330 332 332 331 332 331 331 331 329 326 326 327 327 329 329 328 327 326 323 322 320 319 318 318
317 314 313 314 314 314 315 317 323 331 333 332 331 331 331 328 329 330 331 331 330 330 331 331 330 330 330 328 324 324 324 323 325 324 323 319 318 317 318 318 317 316 316
315 313 312 311 312 313 314 314 318 323 328 331 332 332 331 331 330 330 330 330 330 330 330 330 330 329 326 324 324 324 322 323 322 318 315 315 316 317 317 316 315 315 314
310 307 306 305 307 309 311 313 314 314 314 316 321 325 329 330 331 331 330 330 330 330 329 329 329 327 327 325 324 323 324 318 314 313 312 312 312 313 314 315 314 314 314
306 306 306 305 306 308 309 311 311 312 314 314 314 314 315 319 325 328 330 330 330 329 329 329 329 328 326 325 323 319 314 313 312 311 310 310 310 311 312 313 313 313 312
306 305 304 304 304 306 308 309 310 312 313 313 314 314 314 314 316 319 324 328 328 328 327 328 327 324 320 317 314 313 312 310 309 309 309 309 310 310 312 312 311 311 311
303 303 302 302 303 305 305 306 309 309 310 312 313 313 313 314 314 315 319 323 325 325 325 324 322 320 316 313 312 310 309 309 308 308 308 308 308 308 309 309 309 309 309
303 302 302 302 302 303 304 304 305 307 309 310 311 313 313 313 313 314 316 320 321 321 321 320 319 316 313 311 309 308 307 306 306 306 306 306 306 307 307 307 307 308 308
302 301 300 300 300 301 303 304 304 305 305 308 309 311 311 312 313 313 314 315 315 315 315 315 313 311 309 308 307 306 305 305 304 304 304 304 305 305 305 305 305 305 304
299 299 298 297 297 297 298 300 302 303 304 305 307 308 310 310 311 311 312 312 311 312 311 310 309 308 307 306 305 304 303 302 302 302 302 302 303 303 303 303 302 302 302
298 298 297 297 296 297 298 298 299 301 303 304 304 305 308 309 310 310 310 310 310 309 308 307 306 305 304 304 303 302 301 300 300 300 299 300 300 300 300 301 300 300 300
298 298 297 296 296 296 296 297 298 299 301 303 303 304 305 308 308 308 308 308 307 307 306 306 305 304 303 302 302 301 300 299 298 298 298 298 299 299 298 298 298 298 297
297 297 296 296 296 296 296 296 297 298 299 301 303 303 304 305 307 307 307 307 306 305 304 304 303 302 301 301 300 300 299 299 298 297 297 297 297 297 296 296 295 295 295
297 296 295 295 296 296 296 297 297 298 298 300 301 302 303 304 304 305 305 305 304 304 303 303 302 301 301 300 299 298 297 297 297 297 297 297 296 295 295 293 291 292 291
295 295 295 295 295 296 296 296 297 297 298 299 299 300 301 303 303 304 305 304 303 303 303 302 301 300 300 299 298 297 297 297 296 296 296 296 295 294 293 291 288 287 287
295 294 295 295 295 296 295 295 296 296 296 297 298 299 300 302 302 303 303 303 303 302 301 300 300 299 299 298 297 297 296 295 295 294 294 294 294 293 291 289 286 286 286
294 295 294 294 295 293 293 295 294 294 294 296 297 299 300 301 301 301 301 302 302 301 300 299 299 298 297 297 296 296 295 294 294 293 293 293 293 291 289 289 287 285 285
293 293 292 293 292 292 293 292 292 292 293 294 296 298 299 300 300 300 300 300 300 299 298 296 296 296 295 295 296 296 295 295 294 293 293 293 292 291 290 290 288 285 285
292 292 291 292 290 290 290 290 291 291 292 293 294 296 298 299 299 299 298 298 297 296 295 294 295 296 295 294 294 295 296 295 294 291 292 292 291 288 291 291 289 287 286
291 291 291 290 289 289 288 289 289 290 291 292 293 294 296 298 298 298 297 296 296 295 294 294 294 295 296 295 294 294 295 295 293 288 286 286 286 287 290 290 289 288 287
290 290 290 289 289 289 289 289 288 289 290 290 290 292 294 296 297 297 297 296 297 297 295 295 296 295 294 295 295 294 294 295 294 291 286 286 286 286 287 288 288 288 287
289 289 289 289 289 289 288 288 288 288 288 288 289 289 291 293 295 296 297 297 297 296 296 297 297 297 297 296 295 294 294 294 294 290 288 286 285 286 286 287 287 286 285

GFSMW_925_thetae_084.txt.gz
Theta_e
321 327 326 328 330 329 329 328 328 327 329 334 336 335 336 336 335 333 332 333 332 332 333 330 332 332 332 331 330 329 328 329 331 333 330 330 331 330 329 328 326 326 325
320 325 323 323 323 328 330 329 329 329 327 330 333 333 333 332 332 334 335 335 334 333 333 332 332 332 331 333 331 329 330 331 332 331 332 330 329 327 326 327 326 325 324
320 320 323 322 323 327 329 329 329 329 328 329 329 329 329 330 331 332 332 333 333 333 333 333 332 332 329 333 333 332 332 333 332 330 330 330 329 327 326 326 325 323 323
318 318 319 319 323 324 327 324 328 331 329 329 329 329 327 330 329 328 327 332 330 331 332 330 331 332 332 330 331 331 332 332 331 330 329 331 329 328 325 323 322 322 319
320 317 317 317 318 324 327 324 324 328 329 328 330 329 328 329 327 328 327 330 327 327 330 332 331 328 330 330 331 330 329 329 328 327 327 328 330 328 327 320 318 319 319
319 315 314 315 314 314 316 322 323 328 330 329 330 331 329 328 329 327 326 326 326 327 328 328 330 331 331 330 329 328 324 324 322 322 322 324 323 321 320 321 318 318 318
313 312 312 312 312 313 314 316 324 325 329 330 330 330 330 330 329 328 327 328 326 328 325 326 329 330 330 329 328 325 324 323 323 323 323 322 319 318 318 318 318 317 316
312 308 308 310 310 311 312 314 315 314 315 321 327 329 331 331 329 329 330 331 329 329 328 329 330 330 329 327 325 324 323 323 322 322 318 317 317 317 317 316 316 317 315
310 308 307 308 309 310 310 312 313 313 313 314 313 314 320 327 328 329 329 330 330 330 328 328 329 328 328 326 325 324 323 323 321 316 313 312 311 311 314 315 315 315 316
308 307 306 306 306 307 309 310 311 311 312 312 313 313 313 314 317 321 326 327 328 326 326 326 327 327 327 325 324 323 321 318 313 311 310 311 313 312 313 313 314 314 314
306 306 306 306 306 306 306 306 307 309 310 310 311 312 312 313 313 316 319 322 325 326 325 324 325 325 323 322 321 318 314 311 310 309 310 311 310 311 311 312 311 311 312
306 306 305 304 304 305 305 306 305 306 306 308 310 311 311 312 313 313 315 318 319 320 322 324 323 321 318 316 314 312 311 309 308 308 308 309 308 309 309 310 309 309 309
303 303 302 302 301 301 301 303 304 305 305 305 307 309 311 311 312 312 313 314 317 318 318 317 316 315 315 313 311 310 309 307 307 306 306 306 306 307 307 307 308 307 306
303 303 303 302 301 301 301 300 301 301 302 305 306 306 308 309 310 310 311 311 312 313 314 312 312 312 310 309 308 307 306 305 304 304 304 304 304 306 306 306 305 305 304
303 302 302 302 301 300 300 300 300 300 300 302 304 305 305 306 308 309 309 310 310 310 310 310 309 309 308 307 306 305 303 303 302 302 301 302 302 302 302 302 303 302 302
302 302 301 300 300 300 299 299 300 299 299 300 302 303 304 305 306 307 308 309 309 308 307 307 307 305 305 305 304 304 302 301 301 301 300 299 300 300 300 300 300 299 300
302 301 301 300 299 299 298 299 299 299 300 300 301 302 302 303 304 305 306 306 306 306 305 304 303 303 302 303 302 302 301 300 300 299 298 298 298 298 297 297 297 297 297
301 300 299 299 298 298 298 298 298 299 299 300 301 301 301 301 303 304 304 304 304 304 304 303 302 302 301 302 301 300 300 299 299 298 297 298 298 297 296 296 295 293 293
299 298 297 297 297 298 297 297 298 298 298 298 299 300 300 300 301 303 303 304 303 302 302 302 302 301 300 300 299 299 298 296 297 297 296 296 296 296 295 294 291 290 289
297 297 296 296 296 296 295 296 297 296 297 296 297 298 299 299 300 301 302 302 301 302 301 301 301 301 300 300 299 298 297 296 295 295 295 296 296 295 294 293 291 290 289
296 295 295 295 295 294 293 294 294 294 293 294 295 296 298 299 299 300 300 299 300 300 301 300 300 299 299 298 298 298 296 295 294 294 293 293 294 294 293 291 289 288 288
293 293 293 293 293 291 292 291 292 292 292 293 294 295 297 298 298 298 299 299 298 298 298 297 296 297 297 297 297 297 297 296 294 293 294 293 294 293 291 291 289 287 286
293 292 292 292 292 290 290 290 290 290 291 292 292 293 293 295 298 297 298 297 297 298 297 296 296 296 296 296 297 296 297 296 295 294 293 293 293 292 291 291 289 287 287
292 291 291 291 291 290 290 290 290 290 290 291 291 291 292 293 295 296 295 296 295 296 296 295 295 296 295 296 297 295 296 297 295 294 292 292 292 291 291 291 290 288 287
290 290 291 290 290 290 290 290 289 289 289 290 290 290 290 290 291 293 295 295 296 296 296 295 296 295 294 297 298 297 295 295 295 295 289 288 289 288 290 291 291 290 288
289 289 288 289 289 290 289 289 289 289 289 289 290 290 289 290 289 290 292 294 295 295 295 296 296 297 298 298 298 297 296 295 294 291 287 287 287 287 288 289 289 289 288

GFSMW_925_thetae_087.txt.gz
Theta_e
325 329 330 329 329 329 329 330 331 328 326 326 331 333 334 334 335 336 336 336 336 336 337 335 331 332 334 333 331 330 329 329 329 331 331 331 331 330 330 329 328 325 326
325 327 325 326 322 324 328 329 329 329 328 328 330 332 335 335 335 335 335 334 334 334 333 334 332 333 334 334 333 331 330 330 330 333 332 334 331 329 328 326 327 325 323
321 325 324 323 323 322 327 329 329 328 327 328 329 331 330 331 333 334 332 334 334 331 333 333 333 333 333 332 333 333 331 331 332 333 332 332 331 328 326 327 326 324 322
320 322 324 323 322 322 323 328 327 328 328 327 329 328 327 330 331 332 332 330 331 331 330 332 333 332 331 331 331 331 333 332 333 332 331 330 330 329 328 326 323 323 320
321 319 321 323 323 322 322 323 323 325 328 328 328 329 328 329 328 328 326 326 328 328 328 329 331 332 331 331 330 330 331 330 331 329 328 326 325 327 327 325 321 320 319
321 316 316 319 319 320 322 324 325 323 325 327 327 326 326 328 327 328 327 326 324 326 326 326 330 329 328 327 328 329 330 329 329 327 325 323 322 323 324 323 320 319 319
318 314 314 314 314 314 314 315 318 323 325 326 328 326 327 326 323 324 326 325 325 324 324 326 328 325 328 326 329 329 329 327 325 323 322 322 322 323 320 319 319 319 317
311 310 310 311 312 312 313 315 318 316 319 324 328 329 329 329 328 326 327 327 327 325 325 327 325 325 325 327 329 328 326 324 323 323 323 324 323 322 318 318 318 318 317
311 309 307 308 310 311 311 313 314 314 314 314 314 321 330 330 329 330 329 329 329 330 329 328 327 325 327 328 328 327 325 323 323 323 322 320 318 316 315 317 316 316 316
309 308 308 307 307 308 309 310 311 312 312 313 313 313 314 317 322 328 330 331 330 331 330 329 328 328 329 328 327 325 324 323 322 321 319 316 313 312 311 313 314 315 315
307 308 307 307 307 307 308 308 308 308 309 310 312 313 313 314 314 317 321 324 326 328 327 327 327 328 328 327 325 323 322 321 320 318 314 312 312 312 313 313 313 313 313
307 305 305 305 304 304 306 307 307 307 307 307 309 311 312 313 314 314 315 317 319 321 323 324 324 324 324 324 322 318 318 318 316 312 311 311 312 312 312 312 311 310 310
305 305 304 304 303 303 303 303 303 303 304 307 308 308 310 312 313 313 313 313 315 317 319 320 319 319 319 316 315 314 314 312 312 311 310 310 309 309 310 310 310 309 308
305 304 304 304 303 303 302 302 302 302 302 303 306 307 307 307 310 311 311 311 311 313 315 315 315 314 313 313 312 311 310 309 309 308 308 307 307 307 308 308 308 307 306
305 304 304 303 303 302 302 302 302 302 301 302 303 304 305 306 307 309 310 310 310 310 310 311 311 311 310 310 309 308 307 307 306 305 305 305 305 305 307 307 306 305 304
305 304 303 302 302 301 301 301 301 301 301 302 303 303 304 304 305 306 308 309 308 308 308 308 308 307 307 307 307 306 305 305 304 303 303 302 302 302 303 303 303 302 302
304 303 303 302 301 300 300 300 300 300 301 301 302 303 303 303 304 305 306 308 308 308 307 306 306 306 305 306 306 305 304 303 302 302 301 300 300 300 299 299 299 299 299
303 302 301 300 300 299 300 298 299 300 300 300 300 301 301 302 302 303 305 306 307 307 307 306 305 305 304 304 304 303 302 302 301 301 300 299 298 298 298 297 297 297 296
301 300 299 299 298 299 298 297 298 298 298 299 298 299 299 300 301 302 302 304 305 306 305 305 305 304 303 303 302 301 300 301 300 299 298 298 297 297 297 297 295 294 292
299 298 298 297 297 297 296 295 296 295 296 295 295 297 297 299 299 300 300 301 302 304 304 304 303 303 303 302 301 300 299 298 297 296 297 296 297 296 297 295 294 291 290
297 295 295 295 295 295 293 293 294 294 294 294 294 294 296 297 298 298 299 300 301 301 301 301 302 301 301 301 300 300 299 297 297 296 296 296 296 295 295 295 292 292 290
295 294 294 294 294 294 292 292 292 292 292 292 292 293 293 294 295 297 298 299 300 299 300 300 299 300 300 300 300 299 299 297 296 295 294 295 294 294 294 294 292 289 289
294 293 293 293 293 293 292 292 291 291 291 291 291 292 292 292 293 294 296 296 297 298 299 300 299 298 298 298 299 298 299 297 296 296 295 295 294 294 293 293 292 289 287
293 292 292 292 292 291 291 291 291 291 291 291 291 291 291 292 291 292 293 294 295 296 296 297 297 298 297 297 297 297 298 298 296 296 295 294 293 293 293 292 292 289 287
292 291 291 291 290 290 290 290 290 290 290 290 290 291 291 291 291 291 291 291 292 295 295 296 296 296 295 296 298 297 296 297 297 295 295 292 292 292 293 292 291 290 288
290 290 290 289 289 289 289 289 290 290 290 290 290 290 290 290 290 291 291 290 290 291 293 294 295 296 296 296 296 297 298 297 296 293 291 291 291 291 291 291 291 290 290

GFSMW_925_thetae_090.txt.gz
Theta_e
324 326 327 328 329 329 328 329 328 329 330 328 328 327 329 333 333 334 333 334 334 335 334 334 333 332 333 333 330 330 329 330 329 329 328 329 330 331 331 329 329 326 325
323 325 327 326 327 326 328 329 328 328 330 328 327 327 327 332 333 333 334 334 332 335 335 335 335 331 331 334 333 331 330 329 329 328 331 329 330 330 330 328 326 326 323
322 326 325 323 323 324 325 328 329 329 329 328 327 327 326 330 333 333 332 332 333 334 334 333 334 332 333 334 334 333 333 331 330 328 331 329 327 327 327 326 326 325 322
319 322 324 323 323 322 321 322 326 328 328 328 327 327 328 329 330 332 333 333 332 331 332 332 332 332 332 332 332 332 332 331 332 331 331 330 328 326 326 326 326 323 321
318 320 322 324 323 322 322 323 325 325 328 327 327 328 327 327 328 329 328 328 328 326 328 329 330 330 331 331 330 330 330 329 330 329 329 328 326 323 324 322 319 322 320
316 314 316 319 319 320 321 322 323 324 325 325 328 327 327 328 327 327 327 326 326 327 327 326 327 328 330 330 328 328 327 329 329 325 327 326 324 322 321 322 322 320 319
313 313 312 313 314 314 316 319 319 321 323 324 325 325 326 327 326 323 324 327 327 326 325 324 325 328 328 328 328 327 328 327 326 328 328 325 323 322 322 322 320 317 317
310 311 310 311 311 312 313 316 318 318 320 321 324 325 328 325 326 322 322 323 326 325 324 324 324 326 324 324 327 327 328 328 326 327 326 324 323 322 322 321 319 316 316
308 308 307 307 309 310 311 313 314 313 314 314 314 320 328 326 325 324 325 325 327 326 327 326 325 324 324 324 325 325 327 327 327 325 324 323 323 324 323 320 318 316 314
309 308 308 307 307 308 308 308 310 310 311 312 313 314 315 318 323 328 328 328 328 328 329 327 326 327 326 325 325 326 326 326 326 324 323 323 322 320 318 317 316 316 315
308 308 307 306 305 307 307 307 307 307 307 309 311 312 313 313 314 316 320 322 325 328 328 328 328 327 328 327 327 326 326 325 324 323 323 322 320 316 313 312 312 313 314
305 305 305 304 303 303 303 303 303 304 306 307 308 310 311 312 313 313 314 314 316 319 322 325 325 326 328 326 327 326 325 324 323 322 321 319 314 312 312 312 312 313 313
305 303 302 302 303 303 302 303 302 302 302 304 306 307 307 308 311 312 312 312 313 314 317 320 322 323 324 325 325 325 324 323 321 320 319 315 312 312 312 312 312 311 310
303 303 302 302 302 302 302 302 302 302 302 302 303 304 305 306 306 308 310 311 311 312 313 316 317 318 319 319 320 320 318 317 315 314 313 311 311 311 310 310 310 310 308
303 302 301 300 301 301 301 301 301 301 301 302 302 303 303 304 304 306 307 309 310 310 311 312 314 314 314 315 314 313 313 312 311 310 310 309 309 308 308 308 308 307 307
303 302 301 301 301 300 300 300 300 300 301 301 302 302 303 303 303 303 304 306 308 309 309 309 309 311 312 311 310 309 309 308 308 307 306 306 305 305 306 307 307 306 305
303 302 300 300 300 300 300 299 299 300 300 300 301 300 301 301 301 302 303 304 305 307 308 308 307 307 308 308 308 308 307 306 306 305 304 303 303 303 303 303 304 303 303
301 300 299 299 299 299 299 297 297 299 298 299 299 298 298 299 299 300 301 302 303 305 306 307 307 306 306 306 305 305 304 304 304 303 303 302 301 300 300 299 300 300 299
299 299 299 298 298 297 297 295 296 296 295 296 295 295 296 297 298 298 299 299 300 301 303 304 306 306 305 305 304 303 302 303 302 302 301 301 300 299 298 297 297 297 295
298 298 297 297 296 296 295 293 293 293 293 294 293 294 294 295 296 297 297 298 298 299 300 302 303 304 304 304 303 302 301 302 301 300 300 299 298 298 297 297 297 295 294
296 295 295 294 294 295 294 292 292 292 292 292 292 292 292 293 294 294 295 297 297 298 300 300 301 301 302 303 303 302 300 301 298 298 298 298 297 297 297 296 296 296 293
294 294 294 293 293 293 293 292 292 292 292 291 291 291 291 292 292 292 293 294 296 296 298 299 300 300 300 301 301 301 300 300 300 299 298 297 297 297 296 296 296 294 292
293 293 292 292 292 292 292 291 291 291 291 291 290 291 291 291 291 291 291 292 293 293 295 296 297 299 299 299 299 300 300 299 298 299 298 296 296 295 295 296 295 291 290
292 292 291 291 291 291 290 290 290 290 290 290 290 290 290 290 291 291 291 291 291 291 292 293 294 295 296 297 298 298 299 300 298 297 297 296 295 295 294 295 295 292 290
291 291 290 290 290 289 289 288 289 289 290 290 290 290 290 290 290 290 290 290 291 290 290 290 292 294 295 295 296 297 298 299 299 296 296 295 294 294 294 293 293 292 290
290 290 289 289 288 288 288 287 287 288 288 289 289 290 290 290 290 289 289 289 289 289 289 289 290 291 294 295 296 296 296 297 298 295 294 292 292 292 293 292 291 291 290

GFSMW_925_thetae_093.txt.gz
Theta_e
307 325 325 326 330 329 328 327 328 329 329 329 328 329 330 329 329 328 331 329 329 329 329 328 327 329 330 331 330 329 328 328 328 329 328 328 328 331 330 331 329 328 327
321 323 324 326 327 328 328 328 329 329 329 329 329 328 329 328 329 329 331 330 330 331 330 332 333 333 333 333 331 329 329 329 329 329 328 327 329 330 330 330 328 326 325
321 322 323 323 324 327 327 328 328 327 326 327 329 328 327 326 327 328 330 329 331 332 332 332 333 332 331 332 333 331 330 330 329 329 330 329 329 327 329 328 326 325 323
319 320 321 322 322 321 322 326 328 328 328 329 329 328 327 327 327 327 330 328 329 330 330 331 332 334 331 332 333 333 333 332 330 330 329 330 327 326 325 324 324 324 323
314 316 319 323 323 322 322 322 324 327 328 328 329 328 327 327 328 328 329 327 328 328 327 328 329 330 330 331 331 333 331 330 331 330 329 329 329 327 323 324 320 321 321
312 311 314 315 316 319 321 321 321 322 324 325 326 327 328 327 327 327 328 327 328 328 328 328 327 328 329 328 329 331 330 329 329 329 329 327 326 324 323 320 321 320 321
312 311 313 313 313 314 316 317 318 320 323 324 325 325 325 326 327 327 326 327 326 326 326 327 326 325 326 328 329 330 329 329 329 329 326 326 327 327 323 322 321 319 319
310 309 310 310 311 311 314 315 316 316 318 319 322 323 325 326 325 325 324 324 323 324 325 326 325 324 325 327 329 328 327 327 328 328 327 327 326 325 323 322 321 317 316
309 309 308 308 308 308 308 310 311 312 313 315 315 321 324 326 325 325 323 322 323 323 324 325 325 324 324 325 325 324 326 326 327 327 326 326 325 323 322 321 321 319 315
309 308 307 306 307 307 307 307 307 307 310 312 313 313 314 322 326 325 325 325 324 323 325 326 325 326 324 325 326 324 324 324 325 325 325 325 326 323 323 322 322 319 316
308 307 305 304 303 303 303 303 303 305 307 308 310 311 312 313 314 314 315 318 320 323 324 325 327 326 326 326 326 325 325 324 325 325 324 324 323 323 323 322 320 318 316
305 305 304 303 302 302 302 302 302 302 302 304 306 306 307 309 311 312 312 312 313 313 317 320 323 325 326 327 327 327 326 325 325 324 323 323 323 323 321 319 317 315 315
305 303 301 301 301 301 301 301 301 301 302 302 303 303 304 305 306 307 309 310 311 311 312 314 318 321 322 324 325 327 326 325 324 324 324 323 322 320 318 315 312 312 313
301 300 300 299 300 300 301 301 301 301 301 302 302 303 303 303 303 304 305 307 309 310 310 311 313 316 318 320 321 322 323 323 323 323 322 321 320 319 315 312 312 312 311
301 300 299 298 299 300 300 300 300 300 300 301 301 302 302 302 302 302 303 304 305 307 309 309 310 312 314 315 316 317 319 318 318 317 316 316 316 315 312 312 312 311 310
301 300 299 299 298 299 299 299 298 299 300 300 300 300 300 300 300 300 301 302 303 305 306 308 308 308 309 311 312 312 313 313 313 312 311 311 311 311 310 309 309 310 309
301 299 298 298 298 298 299 297 297 298 298 298 298 298 297 297 298 299 299 300 300 301 303 304 306 307 307 307 308 308 308 309 309 309 309 308 308 307 307 307 307 307 307
299 298 297 298 298 298 298 296 295 296 295 296 295 294 294 294 296 297 298 298 298 299 299 301 303 304 306 306 306 306 306 306 306 307 307 306 305 305 304 304 304 304 304
298 298 298 297 297 296 295 294 293 294 293 294 293 292 293 293 293 293 294 296 297 297 298 299 300 302 303 305 305 304 304 304 304 304 304 304 303 303 302 301 301 300 300
297 297 296 295 295 294 294 293 292 292 292 292 292 291 291 291 293 292 293 293 295 296 296 298 299 300 301 302 304 304 303 302 302 303 302 302 301 301 300 299 299 297 297
296 296 295 294 294 294 294 293 293 291 291 291 291 291 291 291 291 292 291 292 292 294 295 295 296 298 299 301 301 302 302 302 300 300 300 300 301 299 299 298 297 298 297
294 294 293 293 293 293 293 293 292 292 291 291 291 291 290 290 290 291 291 291 291 291 293 292 294 295 297 299 300 300 301 302 300 299 299 300 300 298 298 297 297 297 296
292 292 292 291 291 291 291 290 290 290 290 290 290 290 290 289 290 290 290 290 290 290 290 291 291 293 294 295 296 298 299 301 300 300 299 300 299 298 297 297 296 295 293
291 291 291 290 289 289 289 289 288 288 288 288 289 289 289 289 289 289 290 290 290 290 290 290 289 289 290 292 294 295 296 298 300 299 299 299 298 297 297 296 296 294 293
290 290 289 289 288 288 288 287 287 287 287 287 287 288 289 289 289 289 289 289 289 290 290 289 289 288 289 290 292 295 296 295 297 299 296 296 295 295 295 295 296 294 292
289 289 288 288 288 287 287 287 287 286 286 286 286 287 288 289 289 289 288 287 287 288 289 289 288 288 288 289 290 292 293 296 295 297 295 295 294 293 293 293 293 293 291

GFSMW_925_thetae_096.txt.gz
Theta_e
303 305 306 312 323 327 328 328 328 328 329 328 327 328 329 328 325 326 329 328 329 331 331 332 331 331 330 328 327 327 326 325 325 324 326 328 328 328 328 330 330 330 329
303 316 321 323 327 327 327 328 328 328 329 328 328 327 327 328 327 326 328 328 329 330 331 330 330 329 328 327 327 327 327 326 326 326 327 326 327 327 329 330 330 329 328
308 318 320 322 323 325 326 327 327 327 326 328 329 328 328 328 329 328 328 328 330 329 329 329 330 328 327 327 329 329 329 328 328 328 328 328 328 326 328 330 329 328 325
318 318 318 320 321 321 323 325 326 327 327 326 326 328 328 327 327 327 326 327 329 329 329 329 329 328 329 332 332 331 330 329 328 327 328 329 328 324 325 324 323 323 323
314 318 319 321 322 321 321 322 323 325 326 327 327 328 328 327 327 326 326 326 327 328 328 329 329 329 332 331 331 331 330 329 329 329 328 328 327 326 324 324 321 320 318
313 313 315 316 316 320 321 321 322 323 324 325 326 327 327 327 327 327 327 327 327 328 328 325 328 328 327 327 328 330 330 331 330 329 329 329 327 325 323 321 321 322 320
312 313 312 312 313 314 317 317 319 320 320 322 323 325 327 327 326 327 327 327 326 327 328 328 326 327 327 327 327 327 327 327 328 328 328 328 327 327 326 325 321 320 320
310 310 309 309 309 310 313 314 314 314 316 317 317 321 323 325 326 326 326 327 327 326 326 325 326 326 325 324 324 324 325 325 325 326 328 328 328 326 326 325 322 319 317
309 309 308 308 307 307 306 307 309 311 312 313 314 317 318 323 324 324 324 324 323 324 323 323 323 324 326 325 324 326 326 327 327 327 327 328 326 325 326 324 323 322 318
308 307 306 304 303 303 303 304 304 305 308 310 312 313 313 314 315 318 322 323 324 323 321 323 323 324 325 325 325 324 326 324 324 325 326 326 326 325 325 322 322 321 318
307 306 304 303 302 302 302 301 302 303 305 306 307 308 310 311 312 312 313 313 315 317 320 321 323 325 325 325 325 324 324 325 324 324 324 324 323 323 323 322 321 321 320
305 304 303 302 302 301 301 301 301 302 302 303 303 303 304 305 306 306 308 310 311 311 312 315 318 322 325 325 325 325 325 325 324 323 324 324 323 323 323 323 322 322 319
304 302 301 300 300 300 300 300 300 301 301 302 302 303 303 303 303 303 304 305 307 309 310 310 312 316 319 321 324 325 326 325 325 325 324 324 323 322 322 322 321 321 319
301 300 299 298 299 299 299 299 299 300 300 300 300 300 300 300 301 301 302 302 303 305 306 308 309 310 313 316 318 319 321 323 324 324 324 324 322 322 321 319 319 319 315
300 299 298 297 297 298 299 298 297 298 299 299 299 298 298 298 298 299 299 300 301 302 304 305 307 308 308 310 313 315 315 317 319 320 321 321 322 321 319 320 316 315 312
300 299 298 297 297 297 298 297 296 297 296 296 297 295 294 294 295 296 297 298 298 299 300 301 303 305 307 307 307 309 311 312 313 315 317 317 317 317 316 315 317 314 312
300 299 297 296 296 297 297 296 295 295 295 294 294 293 292 292 292 293 293 294 296 296 297 298 299 301 303 304 306 306 306 308 309 310 312 312 312 313 312 312 312 311 311
299 298 296 297 297 296 296 295 294 293 292 292 293 292 291 291 291 291 292 292 293 294 296 296 297 298 300 301 303 304 304 305 306 307 308 309 310 309 310 310 309 309 309
297 297 297 296 295 295 295 294 293 292 291 291 291 291 291 290 290 290 291 292 291 292 292 295 295 295 297 299 301 302 304 303 304 304 305 306 307 307 306 306 306 306 306
297 296 295 294 293 293 293 293 292 292 291 291 291 291 291 290 290 290 291 291 291 291 291 294 293 293 295 297 299 300 301 302 303 303 303 303 304 305 304 304 303 302 303
295 295 294 293 293 292 292 291 291 291 290 290 290 290 290 290 290 289 290 290 290 290 290 290 290 291 293 294 297 298 300 301 301 301 302 302 302 302 302 302 302 302 302
293 293 293 292 292 292 291 290 290 290 289 288 288 289 289 289 289 289 289 289 290 290 290 290 290 290 290 292 294 296 297 298 300 300 301 301 301 301 300 300 300 299 298
291 291 291 291 291 290 289 289 289 288 287 287 287 287 287 287 288 289 289 289 289 289 289 289 289 289 288 288 290 292 294 295 296 298 299 301 300 300 299 299 299 298 296
290 290 290 289 289 289 288 287 287 287 286 286 286 286 286 286 287 288 289 289 289 289 288 288 289 288 288 288 288 289 291 293 295 296 297 299 299 299 298 298 298 297 295
289 289 289 288 288 287 287 287 286 286 286 286 286 285 285 286 286 287 288 288 288 288 288 288 289 288 287 287 288 289 289 290 292 295 295 296 296 297 297 297 297 296 295
288 287 287 287 287 286 286 286 285 285 285 284 284 284 285 285 286 287 288 288 287 287 287 287 288 288 288 287 287 288 288 289 291 294 295 294 295 295 295 295 295 294 293

GFSMW_925_thetae_099.txt.gz
Theta_e
302 303 304 304 306 307 310 324 327 327 327 327 327 327 327 327 326 325 326 327 328 329 330 331 330 330 330 330 331 331 328 326 328 324 324 325 327 328 328 328 328 330 330
302 303 305 308 312 313 319 325 327 328 328 327 327 326 327 329 327 326 325 327 328 328 329 329 331 332 331 329 327 325 325 325 325 323 325 325 326 328 328 328 328 329 330
303 303 309 318 321 323 324 326 327 328 328 327 326 326 327 327 328 328 328 326 326 329 329 329 330 329 329 329 329 328 327 325 325 325 326 326 326 325 327 327 328 329 329
305 315 316 317 319 321 323 325 325 326 326 326 327 326 327 326 327 328 328 328 327 327 328 329 329 328 329 329 329 329 327 326 326 325 326 328 327 326 325 324 326 328 327
313 317 318 319 319 320 321 322 324 325 325 326 327 326 326 325 326 327 327 328 327 327 327 329 329 328 329 328 328 327 327 327 328 327 327 327 326 325 323 324 321 321 323
312 313 313 315 317 319 320 321 321 322 323 325 325 326 327 327 326 326 326 326 326 326 325 325 328 328 328 328 327 328 328 328 328 328 328 328 327 325 324 323 322 322 322
312 311 310 310 311 314 316 318 318 317 319 321 322 323 322 325 327 327 327 327 327 326 325 325 328 327 327 328 328 327 327 328 328 328 328 327 327 327 327 327 324 320 321
310 310 309 307 307 307 307 311 313 313 314 315 316 317 318 323 325 325 326 327 326 326 325 325 325 327 326 326 326 325 326 326 326 326 326 326 326 326 327 326 323 319 316
309 306 305 304 303 303 303 305 307 309 310 312 313 313 314 315 315 320 322 322 323 323 324 323 324 324 326 327 325 325 325 324 324 325 325 326 325 325 325 325 325 324 324
306 305 304 303 302 302 302 304 304 305 306 306 308 310 311 313 312 313 313 314 317 321 322 322 322 323 324 324 324 325 324 324 325 325 325 326 326 326 326 324 324 323 323
306 304 304 303 302 301 301 301 301 302 303 303 303 303 304 306 308 308 309 310 311 311 313 317 319 320 323 324 324 325 324 324 324 325 324 324 325 324 324 323 324 321 320
305 304 303 302 302 301 301 300 301 301 302 302 302 302 302 302 303 302 303 304 306 308 309 310 312 315 318 321 324 324 324 324 324 324 324 323 323 323 323 322 322 321 321
304 303 302 301 300 299 299 299 300 300 300 300 300 300 299 299 300 300 300 301 302 303 305 307 308 309 311 314 317 320 321 324 324 324 324 324 323 322 322 323 322 321 321
301 299 298 297 297 298 297 297 298 299 298 299 298 297 296 296 297 297 298 298 299 300 301 303 304 306 308 308 310 312 315 317 319 322 323 324 323 322 321 321 321 320 318
299 299 297 296 296 297 297 295 296 296 295 296 295 293 293 293 293 293 294 294 295 295 297 299 301 302 304 306 306 307 308 310 312 315 318 320 321 322 323 321 318 317 316
300 299 297 296 295 296 296 295 294 294 293 293 293 292 291 291 291 291 292 292 292 293 294 295 296 298 300 301 302 303 305 306 307 308 311 313 316 317 318 319 320 319 315
300 298 296 295 295 295 295 294 293 292 292 291 292 291 291 290 290 290 290 291 291 291 292 293 295 294 296 298 300 301 302 304 305 305 306 308 310 312 313 315 315 315 316
299 296 295 295 295 295 294 294 293 292 292 291 291 290 291 290 290 290 289 290 291 290 291 291 293 294 292 292 297 299 300 301 303 304 304 305 306 308 309 311 311 311 311
296 296 296 295 293 293 293 293 292 291 291 291 290 290 290 290 290 290 289 289 290 290 290 290 290 291 291 292 294 297 299 300 301 302 304 303 304 305 306 307 308 309 308
296 295 294 293 292 292 291 291 290 290 289 288 288 287 288 288 289 289 289 289 289 289 289 290 289 289 290 291 293 294 296 298 299 300 301 303 302 303 303 304 306 304 306
294 294 292 291 290 290 289 288 288 288 288 287 286 286 286 286 286 286 286 288 288 288 289 289 289 288 289 289 291 292 294 296 297 298 299 300 302 302 302 302 303 304 304
292 291 291 291 291 290 289 288 287 287 287 286 286 286 286 286 285 285 286 286 288 288 288 289 288 288 289 288 288 290 291 293 295 296 296 297 299 301 301 301 301 302 301
290 290 290 289 289 289 287 287 287 287 286 286 286 286 285 285 285 286 285 286 286 287 288 287 287 287 288 288 288 288 289 290 291 293 295 295 297 299 300 300 300 300 298
288 288 288 288 288 287 287 286 286 285 285 285 285 285 284 285 285 285 285 285 286 287 287 287 287 287 287 287 287 287 288 288 288 289 291 293 295 297 298 299 299 298 298
288 287 286 286 286 285 285 285 285 284 284 284 284 284 284 284 284 284 284 285 286 287 288 287 287 287 287 287 288 288 288 287 288 289 290 291 294 295 296 297 298 297 296
286 285 285 284 284 284 284 284 284 283 283 283 283 283 284 284 284 284 284 285 286 288 288 287 287 287 287 288 287 287 287 287 288 289 289 291 293 294 294 295 296 295 294

GFSMW_925_thetae_102.txt.gz
Theta_e
301 301 303 304 305 305 305 307 313 325 328 328 328 326 326 326 326 326 326 326 325 328 331 332 331 329 327 322 322 324 329 329 330 328 326 327 325 323 323 323 326 327 328
300 301 303 304 305 305 305 308 311 323 328 327 327 327 327 327 326 326 326 325 325 326 329 329 329 328 328 327 326 325 325 327 327 326 323 323 324 324 324 326 327 328 328
302 302 303 305 308 314 315 315 320 325 327 327 327 327 326 326 327 327 327 326 326 325 327 328 328 328 328 327 327 326 327 326 325 325 325 323 324 323 325 325 328 328 327
303 303 312 314 317 319 321 324 326 327 327 327 326 327 326 325 326 326 326 327 327 327 327 326 327 328 328 328 328 327 326 325 324 323 324 325 326 325 325 324 326 327 327
313 313 316 317 316 318 321 323 324 325 325 326 327 327 325 325 326 325 325 326 327 327 327 327 327 328 328 328 328 327 326 325 326 325 324 324 326 326 323 324 321 323 326
313 311 311 312 313 316 317 320 321 320 322 323 322 322 322 323 324 326 325 325 325 326 326 326 327 327 327 328 327 328 327 326 326 326 326 326 325 325 323 321 320 321 324
310 309 309 308 307 308 311 314 316 316 318 318 318 319 319 322 324 326 326 325 326 326 326 326 326 326 325 326 327 327 327 326 326 326 326 326 326 326 326 325 323 322 324
307 306 305 305 304 304 306 307 309 311 313 314 315 315 316 315 319 320 323 323 322 323 325 325 326 326 325 327 327 327 327 327 326 327 327 327 326 326 326 326 325 323 319
306 305 304 303 303 303 303 304 305 306 307 309 310 311 311 312 311 312 313 312 316 318 321 323 323 324 326 325 326 326 326 326 325 325 325 325 325 325 325 325 325 325 326
305 305 304 303 302 301 301 301 302 302 303 303 303 304 305 306 305 305 307 309 310 312 313 314 317 320 321 323 324 325 325 325 325 324 324 324 324 324 324 324 324 324 324
306 305 304 302 301 301 301 300 300 301 301 301 301 301 301 302 302 302 302 303 305 307 309 309 311 313 315 319 321 323 323 324 324 323 323 323 323 324 324 324 324 323 323
305 304 303 302 301 300 300 299 300 299 299 299 299 298 298 298 298 299 299 299 301 302 303 305 307 307 308 309 312 317 318 323 324 323 323 323 323 324 323 323 323 322 321
304 303 302 300 299 298 298 298 299 299 299 299 296 294 294 293 294 295 295 295 296 296 298 300 302 303 304 307 307 308 310 313 316 320 323 323 323 322 322 322 321 322 320
303 301 298 297 297 297 296 296 296 295 296 294 293 292 292 291 291 292 292 292 292 293 294 294 295 298 300 302 303 305 306 307 308 310 313 316 319 322 322 322 321 321 319
299 298 296 295 295 296 295 294 294 293 292 293 292 291 291 290 290 290 290 290 291 291 291 291 292 293 294 297 300 301 302 303 304 306 308 310 312 315 318 320 321 320 319
299 298 296 295 294 294 295 294 293 292 291 291 291 291 290 290 290 290 289 289 289 290 290 290 290 292 293 293 293 297 299 300 301 303 305 306 307 309 310 314 316 318 318
299 298 296 295 294 294 294 293 292 291 291 290 290 290 290 290 290 289 289 289 288 289 289 289 290 290 290 291 294 294 297 298 299 300 302 304 305 305 307 309 310 313 315
297 296 295 295 294 293 292 292 292 291 291 290 289 289 288 288 289 289 288 288 288 288 288 288 289 289 289 289 291 294 293 295 297 298 300 301 303 304 304 305 307 308 310
296 296 295 293 292 291 291 291 291 290 289 288 287 286 286 286 286 286 286 286 287 288 288 288 288 289 288 288 290 291 293 294 294 296 297 299 300 302 304 303 303 305 307
296 294 294 292 292 291 290 289 288 288 288 287 286 286 285 285 285 285 285 285 285 286 287 288 288 288 288 288 289 290 290 291 293 294 295 296 298 299 301 302 302 302 304
294 293 292 291 290 289 288 287 286 286 286 285 285 285 285 285 285 285 285 285 285 285 286 287 288 288 288 288 288 289 289 290 290 291 294 295 295 297 297 300 301 302 303
291 290 290 289 288 287 286 286 286 285 285 285 285 285 285 285 285 285 285 284 284 284 285 286 287 288 288 287 288 288 289 289 289 289 290 292 293 294 296 297 299 301 301
289 288 288 288 287 286 286 285 285 285 285 285 284 284 284 284 284 284 284 284 284 284 284 285 286 287 287 286 287 287 287 288 288 287 288 289 290 292 293 296 298 299 300
287 287 286 285 285 285 285 284 284 284 284 283 283 283 283 284 284 284 283 283 283 283 284 285 286 287 287 287 286 287 288 287 287 287 287 288 289 290 292 294 297 298 299
287 286 285 284 284 284 284 284 284 283 283 283 283 283 282 283 283 283 283 283 284 285 286 286 287 287 287 286 287 288 288 288 287 288 288 287 288 289 291 293 294 296 297
285 284 284 284 284 283 283 283 282 282 282 282 282 282 283 283 282 282 283 283 284 285 286 287 287 287 287 287 287 287 287 288 287 287 287 288 288 290 290 292 293 293 294

GFSMW_925_thetae_105.txt.gz
Theta_e
305 303 302 302 303 303 304 305 305 306 318 327 328 327 328 329 330 330 329 327 326 326 327 328 330 331 331 332 332 330 330 327 325 329 328 327 324 323 325 325 324 323 323
304 303 302 303 303 304 304 305 305 308 319 327 328 327 327 326 325 326 326 326 326 325 326 328 328 328 329 328 328 327 327 327 327 326 325 326 325 325 325 326 324 323 323
308 307 304 304 304 304 305 307 306 310 312 326 327 326 326 326 326 326 326 326 326 326 326 327 328 329 329 329 328 326 324 325 325 323 324 326 327 325 324 324 325 324 324
312 312 313 312 313 314 314 314 315 318 318 326 326 326 326 324 325 326 326 326 326 326 327 327 327 328 328 328 328 327 326 325 324 324 324 324 324 327 327 324 324 324 325
312 312 312 312 314 314 316 318 321 324 324 324 324 324 324 324 323 324 325 324 325 325 326 326 327 327 327 327 327 327 327 327 326 325 323 323 323 325 327 330 326 324 325
310 309 309 309 309 310 313 315 317 319 320 320 322 321 322 322 322 323 323 325 325 325 325 325 326 326 327 328 327 327 327 327 326 326 324 324 324 325 326 326 326 324 324
308 306 307 307 307 306 308 309 311 313 315 316 316 316 316 317 316 319 322 322 324 324 324 324 324 324 325 326 327 327 327 327 326 325 325 324 325 325 325 326 327 326 324
306 305 304 304 304 304 304 305 306 306 309 310 310 310 311 311 310 310 311 313 313 315 317 322 322 323 324 325 326 326 325 326 326 326 325 325 325 325 325 325 326 326 322
306 304 303 302 302 302 302 302 303 303 303 303 304 305 305 305 304 304 306 307 308 310 309 313 316 318 320 321 323 326 326 325 325 325 325 325 325 325 325 325 325 326 326
305 304 303 302 301 301 300 301 301 301 301 300 300 300 301 303 304 303 301 302 303 304 306 308 310 311 313 315 317 321 323 324 325 325 326 326 326 326 326 325 324 324 324
305 304 303 301 300 300 300 299 299 299 298 297 297 296 297 297 298 298 299 297 298 299 300 301 304 305 306 309 309 312 315 317 320 323 324 324 324 324 324 324 323 323 324
304 303 302 300 299 298 298 298 298 298 296 295 294 293 293 292 292 292 292 293 293 293 294 295 297 299 301 303 304 306 307 308 311 314 317 323 323 323 323 323 323 323 323
304 303 301 299 298 297 296 296 295 296 294 293 293 293 291 291 291 291 291 291 291 291 291 292 293 293 294 298 300 302 303 304 305 306 309 312 314 319 322 323 323 322 322
304 302 299 297 296 296 295 295 294 293 293 292 291 291 290 290 290 290 289 289 290 290 290 290 290 291 292 293 295 297 299 300 301 302 304 306 308 310 311 314 321 321 321
299 298 297 296 295 295 294 293 292 292 291 291 291 290 290 290 289 289 289 289 288 289 289 289 289 289 290 293 295 295 296 297 298 299 301 302 303 305 306 307 311 315 319
299 298 296 295 294 294 294 292 291 291 290 290 290 289 289 289 289 288 288 287 287 287 287 288 288 288 289 289 292 293 294 294 295 297 298 299 300 301 303 306 307 307 310
298 297 296 295 294 294 293 292 291 291 290 289 288 287 287 286 286 286 286 286 286 286 286 287 287 287 288 288 291 292 292 292 293 293 295 296 297 298 300 302 304 305 307
298 296 295 295 293 292 292 291 290 289 289 288 287 286 286 286 286 286 285 285 285 285 285 286 287 287 287 288 289 290 290 290 290 292 292 294 295 296 298 300 301 302 304
296 296 296 294 292 290 290 290 289 288 288 287 286 286 285 285 285 285 285 285 285 285 285 285 286 287 287 288 288 290 290 289 289 290 291 292 294 295 296 297 299 301 301
296 295 293 292 290 290 289 289 288 287 286 286 285 285 285 285 285 285 284 284 284 284 284 284 285 286 287 288 288 289 289 289 289 289 289 290 293 294 295 296 297 298 300
294 293 291 290 289 289 289 287 286 286 285 285 285 284 284 284 284 283 284 284 284 284 284 284 285 286 287 287 287 288 289 289 289 288 288 288 289 290 291 293 294 296 297
291 290 289 289 288 287 286 285 285 284 284 284 284 284 283 283 284 284 283 283 283 283 283 283 284 286 287 287 287 287 288 288 288 288 287 287 287 288 289 290 292 294 296
289 289 288 287 286 285 285 284 284 284 284 284 283 283 283 283 283 283 283 283 283 283 283 284 285 286 286 287 286 287 287 288 288 287 287 287 287 288 288 289 290 292 294
287 287 286 285 285 284 284 284 284 283 283 283 283 283 282 283 283 282 282 282 283 283 284 284 285 286 286 286 286 286 287 288 288 287 287 288 287 287 287 287 289 292 293
287 286 285 284 284 283 283 283 282 282 282 282 282 282 282 282 282 282 282 283 283 284 285 285 286 286 287 287 287 287 287 288 288 289 288 287 287 286 287 288 289 290 292
285 284 284 283 283 283 282 282 282 282 282 282 282 281 282 282 281 282 282 283 283 284 284 285 285 286 286 287 287 287 287 287 287 288 287 285 285 286 286 287 288 288 290

GFSMW_925_thetae_108.txt.gz
Theta_e
312 312 311 307 306 306 306 307 307 308 308 316 325 326 329 330 330 329 330 330 328 328 329 330 331 329 330 331 331 332 332 331 331 330 328 328 328 328 328 326 323 324 325
313 313 313 312 308 307 307 307 308 308 307 317 325 328 329 328 330 331 331 329 329 329 329 329 330 331 329 329 328 330 330 329 330 330 328 329 326 325 325 324 323 323 319
312 314 312 314 315 313 310 309 308 309 309 317 325 326 329 330 330 329 329 329 329 329 329 329 329 330 330 328 329 330 331 329 329 329 327 328 328 324 323 324 323 323 324
312 313 312 312 313 314 315 316 313 315 314 320 325 325 328 329 328 328 329 330 329 329 329 329 329 329 330 330 330 329 329 328 326 327 326 325 324 327 325 322 325 324 325
310 309 310 310 310 310 314 319 319 319 321 319 321 325 325 325 324 323 324 327 327 327 328 329 329 329 329 330 330 329 330 328 326 324 323 324 323 323 324 326 327 325 325
307 306 306 307 307 308 310 314 316 316 318 318 321 321 320 320 321 320 323 324 323 326 326 326 326 327 328 329 328 328 328 328 327 326 325 324 323 323 322 323 325 326 327
306 305 305 304 305 306 307 308 309 309 310 311 312 313 313 313 313 313 313 315 317 316 318 321 322 324 325 326 326 326 326 326 327 327 327 327 325 325 323 323 323 324 325
305 304 303 303 303 303 305 306 306 305 306 307 307 307 308 308 308 308 309 309 309 309 311 313 316 317 319 320 322 323 325 326 327 327 327 326 326 326 324 324 324 326 327
305 304 303 302 302 302 301 303 303 302 302 303 303 304 304 303 302 302 303 303 304 304 307 308 309 309 310 313 314 318 319 323 326 326 325 326 326 325 325 324 325 325 327
305 304 302 301 301 301 300 300 300 299 298 298 298 299 300 301 300 299 298 298 298 300 300 301 302 303 304 306 309 310 312 313 317 319 323 325 325 325 325 324 324 324 324
305 303 302 301 299 299 299 299 298 297 296 295 294 294 293 293 295 296 294 294 294 294 295 295 296 297 299 301 303 304 305 307 308 310 312 315 319 324 325 324 324 325 325
305 303 301 300 299 298 298 297 297 296 295 294 293 292 292 292 292 292 292 293 293 292 293 294 294 295 296 297 299 301 302 303 304 305 306 308 309 314 317 323 324 324 324
305 304 302 299 299 297 296 296 295 295 294 293 293 292 292 292 291 291 291 291 292 292 292 292 292 293 294 295 296 296 297 298 299 301 303 304 306 308 309 310 313 319 322
307 305 303 301 300 298 296 295 294 293 293 293 292 292 291 291 291 291 290 290 290 291 290 290 291 291 292 293 294 294 295 295 296 298 300 301 302 303 303 306 307 309 312
305 303 303 301 299 298 297 295 293 292 292 292 292 291 291 291 290 290 289 288 288 289 289 289 289 289 290 290 292 293 293 294 294 294 295 297 298 298 300 302 304 306 308
304 303 302 300 299 297 296 294 293 292 291 291 291 290 289 289 288 288 288 287 287 287 288 288 288 289 289 289 291 291 291 292 292 292 293 294 295 296 297 299 300 301 303
305 303 302 300 299 296 295 294 293 291 291 290 289 288 288 288 287 287 287 287 287 287 287 287 288 288 288 289 290 290 290 291 291 291 292 292 293 295 295 296 297 299 301
304 303 302 300 298 295 293 293 292 290 290 289 288 287 287 287 287 287 287 287 287 287 287 287 287 287 288 288 289 290 290 290 290 290 290 291 291 291 294 294 295 296 297
304 303 301 299 295 293 292 291 290 289 289 288 288 287 287 286 286 286 286 286 286 286 286 286 286 287 287 288 289 289 289 290 290 289 289 290 290 291 291 292 293 294 294
302 300 298 295 293 292 290 290 289 288 288 287 287 286 286 286 285 285 285 285 285 285 286 286 286 286 287 288 288 289 289 289 289 289 289 289 289 289 289 290 290 290 291
299 297 294 293 292 290 289 289 288 288 286 286 285 285 285 285 284 285 285 285 285 285 285 286 286 286 287 288 288 288 288 288 289 289 288 288 288 288 288 289 289 289 290
295 294 293 291 290 288 288 288 287 286 285 285 285 284 284 284 284 284 285 285 285 285 285 286 286 287 287 287 288 288 288 288 288 288 288 288 288 288 288 288 288 288 289
293 291 291 290 288 286 286 286 286 284 284 284 284 284 284 284 284 284 284 285 285 285 285 286 286 286 286 287 287 287 287 287 288 288 288 288 288 288 288 287 287 287 288
291 289 289 288 287 285 284 284 284 284 283 284 284 284 284 284 284 284 284 284 285 285 285 285 286 286 286 286 287 287 287 288 288 288 288 288 289 288 287 287 287 288 288
289 288 287 287 286 284 284 283 283 283 283 283 283 284 283 284 283 283 283 283 284 284 285 285 285 285 286 286 286 287 288 288 288 288 288 288 288 287 286 286 286 287 288
288 287 286 286 285 284 283 283 282 282 283 283 284 283 283 283 283 283 284 284 284 284 283 284 284 284 285 285 286 287 288 287 287 287 288 288 287 286 286 286 286 286 286

GFSMW_925_thetae_111.txt.gz
Theta_e
314 313 313 313 314 315 310 309 309 308 309 309 310 317 326 328 332 331 331 331 330 330 331 323 328 329 331 331 331 332 332 333 332 333 332 332 331 330 328 327 326 324 323
314 312 312 313 312 313 316 312 309 309 309 310 310 318 323 324 328 331 332 331 331 330 330 328 325 330 331 330 330 330 331 331 331 330 330 331 329 329 329 328 328 327 324
312 313 312 310 311 311 313 314 315 309 309 310 311 319 322 326 327 329 331 330 331 330 329 330 329 328 330 330 330 329 328 330 330 329 330 330 329 328 328 327 326 326 325
311 310 309 308 310 309 311 314 316 316 312 313 312 320 324 328 328 329 330 329 329 328 328 329 329 328 328 329 329 329 329 330 330 330 330 329 328 326 328 325 326 325 325
309 308 307 306 306 307 309 312 317 317 316 316 317 321 322 324 326 326 327 327 327 326 327 326 327 327 328 328 328 329 329 330 330 329 328 328 328 327 325 326 325 326 326
307 307 306 305 304 305 307 309 312 314 317 316 316 317 316 315 316 320 321 322 323 324 323 324 325 326 326 326 327 327 327 328 329 328 328 326 325 325 324 323 323 323 323
306 305 305 304 303 303 305 307 308 309 310 312 313 314 311 313 312 312 313 313 314 314 315 318 319 320 321 323 324 325 326 327 327 326 327 327 326 325 324 323 322 322 322
306 305 303 303 302 302 302 304 305 306 306 307 309 307 306 306 306 306 306 306 306 306 307 308 309 311 313 315 315 317 318 320 324 326 327 327 327 327 326 325 324 324 323
306 305 303 302 301 301 300 301 301 301 301 303 303 303 303 301 301 300 300 299 300 300 300 301 301 303 305 306 308 310 311 310 313 314 317 319 325 326 326 326 325 324 326
305 304 303 301 300 300 300 299 298 298 296 296 296 296 297 297 297 296 295 294 294 295 295 295 296 296 297 299 301 303 304 305 306 307 307 310 312 315 318 323 325 325 325
305 304 302 301 300 299 298 298 297 296 296 294 294 293 293 292 292 292 293 293 293 293 293 293 294 295 295 296 297 296 299 299 301 302 302 305 306 308 311 312 317 323 324
306 304 302 301 300 298 297 295 295 295 294 294 293 293 293 292 292 292 291 292 293 293 293 293 293 294 294 295 296 296 297 298 298 299 300 302 303 304 306 306 307 309 311
307 306 304 302 301 299 297 297 296 295 294 294 294 293 293 293 292 292 291 291 291 291 291 291 291 292 292 293 294 294 295 295 296 297 298 300 301 302 300 302 305 306 308
309 308 307 304 302 301 298 296 295 294 294 294 293 293 292 292 291 291 290 290 289 289 290 290 290 290 290 291 291 292 293 293 294 294 295 295 297 297 298 300 301 302 304
309 308 306 305 303 301 299 297 295 294 293 293 293 292 291 290 290 289 289 289 288 289 289 289 289 289 289 290 290 291 291 291 292 292 292 293 294 294 296 297 298 298 300
310 307 306 305 303 301 299 297 295 294 293 293 292 291 290 289 289 289 289 288 288 288 288 288 288 288 289 289 290 291 291 290 291 292 292 292 292 292 294 295 295 296 296
310 307 306 305 303 301 298 297 295 293 293 292 291 290 289 289 289 288 288 288 288 288 288 288 288 288 288 289 289 290 290 290 291 291 291 291 291 291 291 293 294 294 295
309 307 306 304 302 299 296 295 294 293 292 291 290 289 288 288 288 288 288 288 287 287 287 287 288 287 288 288 289 289 289 290 290 290 290 290 290 290 291 291 291 291 292
309 307 306 304 301 298 295 294 293 292 291 290 289 288 288 288 287 287 287 287 287 287 287 287 287 287 287 288 288 289 289 290 290 290 290 290 290 290 290 289 289 290 290
306 305 304 301 299 296 294 293 292 291 290 289 288 287 287 287 286 286 286 286 286 286 286 287 287 287 287 288 289 289 289 289 289 289 289 289 289 289 289 289 288 288 288
304 302 301 298 296 294 292 291 291 290 288 287 287 286 286 286 285 285 286 286 286 286 286 287 287 287 288 288 288 288 289 289 288 288 288 289 289 289 289 289 289 289 289
301 299 298 295 293 291 290 290 289 287 286 286 286 285 285 285 285 285 286 286 286 286 286 287 287 287 287 287 287 288 288 288 288 288 288 288 289 289 289 289 289 289 288
298 297 296 293 291 290 288 288 287 286 286 285 285 285 285 285 285 285 285 285 286 286 286 286 286 286 286 286 287 287 288 288 288 288 288 289 289 289 288 289 288 288 287
297 294 293 292 290 288 287 286 286 285 284 285 285 285 285 285 285 285 285 285 285 285 285 285 286 286 285 285 286 286 286 287 287 288 289 288 289 288 288 288 287 287 287
295 292 292 291 290 287 286 286 285 284 284 284 285 285 285 285 285 284 285 285 285 285 285 285 285 284 285 285 285 285 286 286 287 287 287 288 288 288 288 287 287 286 286
293 291 290 289 288 286 286 285 284 284 284 284 285 285 284 284 284 284 285 285 285 285 284 284 284 284 284 284 284 285 285 286 286 286 286 287 287 287 287 286 286 286 286

GFSMW_925_thetae_114.txt.gz
Theta_e
312 312 313 311 310 311 311 311 313 314 310 309 309 309 309 312 324 326 330 330 329 326 327 327 327 326 323 324 322 325 330 332 332 332 332 331 331 331 331 328 327 324 323
310 310 310 309 308 309 309 309 311 312 314 309 309 310 310 319 322 321 325 329 329 329 328 327 327 326 327 329 330 329 330 331 331 331 330 330 329 330 330 331 330 328 327
309 309 308 308 307 307 307 309 311 313 316 316 309 310 310 316 318 322 323 327 328 330 329 327 327 326 327 329 330 329 329 330 329 329 329 330 329 326 328 329 329 328 328
308 308 308 307 306 305 306 308 310 314 316 316 313 311 312 318 318 320 322 326 328 329 329 328 330 329 328 328 328 328 329 329 329 330 330 329 328 326 324 326 327 327 327
307 307 306 306 305 304 305 307 309 311 313 315 315 315 316 315 313 316 321 324 326 325 328 328 328 328 327 327 326 327 328 328 328 329 328 329 329 328 326 327 323 324 325
307 306 305 304 303 302 304 306 306 307 309 311 312 313 313 314 312 314 314 314 313 313 321 324 325 325 325 325 325 326 326 327 327 327 327 327 326 326 326 326 325 324 324
306 306 304 303 302 302 302 304 303 303 306 306 306 307 307 307 307 309 310 307 313 306 309 313 316 318 318 318 319 320 321 321 322 324 326 326 326 326 326 325 324 324 323
306 305 304 303 302 301 300 300 300 299 300 302 303 304 307 309 301 301 301 302 300 300 303 304 306 307 309 309 311 314 313 312 313 314 316 318 321 323 326 325 325 325 324
306 305 303 302 301 301 300 298 298 296 295 296 297 298 299 298 297 296 296 295 295 296 295 296 296 297 299 299 302 303 303 304 305 307 306 307 310 311 311 315 317 324 326
306 305 303 302 301 300 299 298 297 297 295 294 293 293 293 293 293 293 293 293 293 294 294 295 295 294 295 296 297 296 297 298 298 300 300 301 303 304 307 309 309 311 313
306 305 303 302 300 299 298 297 296 295 294 294 294 293 293 293 292 292 292 292 293 292 292 293 293 294 294 295 296 296 296 297 297 297 298 300 302 302 304 301 302 307 308
306 305 304 302 300 298 297 296 295 295 294 294 293 293 293 293 292 292 291 291 291 291 291 291 291 291 292 292 293 293 294 295 296 296 296 297 298 301 299 298 302 303 305
306 304 304 302 301 300 298 297 295 295 294 294 293 293 292 292 291 290 290 289 289 289 289 289 289 290 290 290 291 290 292 292 292 293 294 294 295 296 294 298 297 300 300
307 306 304 303 302 301 298 297 295 294 294 293 293 292 291 290 290 289 289 288 288 288 288 288 289 289 289 289 290 289 290 291 291 291 292 292 293 293 293 297 296 297 297
307 306 305 303 302 301 299 297 295 294 293 293 292 291 290 289 289 289 288 288 288 288 288 288 288 288 288 289 290 290 290 290 290 291 291 291 291 291 293 293 295 295 296
307 306 305 304 303 301 299 297 295 294 293 292 291 290 289 289 288 288 288 288 288 288 288 288 288 288 288 289 290 290 290 289 290 290 290 291 291 291 291 292 293 293 294
308 307 304 303 303 302 299 297 295 294 292 292 291 290 289 288 288 288 288 288 287 287 287 287 287 287 287 288 289 289 289 289 289 289 290 290 290 290 290 290 290 290 290
308 306 304 304 304 301 298 296 295 293 292 291 290 289 288 288 288 287 287 287 286 286 286 287 287 287 287 288 289 289 289 289 289 289 289 290 290 290 290 290 289 288 288
306 306 306 305 302 299 297 295 294 292 291 291 289 288 288 287 287 286 286 286 286 286 286 286 286 287 287 287 288 289 289 288 289 289 289 289 289 289 290 289 289 288 288
305 305 305 303 300 297 295 294 293 291 290 289 288 287 287 286 286 286 285 286 286 286 286 286 286 287 287 287 288 289 289 289 288 288 288 288 289 289 289 289 289 288 289
304 303 302 300 298 295 293 292 291 290 289 288 287 286 286 285 285 285 285 286 286 286 286 286 286 286 287 287 288 288 288 288 288 288 288 288 288 289 289 289 289 289 289
302 301 299 297 294 293 292 291 290 289 288 286 286 285 285 285 285 285 285 285 285 285 286 286 286 286 286 286 286 287 288 288 288 288 288 288 288 289 289 289 289 289 289
300 299 297 294 293 291 290 289 288 287 286 285 285 285 285 285 285 285 285 285 285 285 285 285 285 285 285 285 285 285 286 286 286 287 287 288 289 289 289 288 288 289 288
298 297 295 293 291 290 288 287 287 286 285 284 285 285 285 285 285 285 285 284 284 284 284 284 284 284 284 284 284 284 285 285 285 286 286 287 287 287 287 287 287 288 287
297 295 293 292 291 289 287 286 286 285 284 284 284 284 285 285 284 284 284 284 285 285 285 285 285 284 284 284 285 285 285 285 285 286 286 286 285 286 286 287 287 286 286
294 293 292 291 289 288 287 286 285 284 284 284 284 284 284 284 284 284 284 284 285 285 285 285 285 284 284 284 284 284 285 284 284 285 285 285 285 285 286 286 286 286 285

GFSMW_925_thetae_117.txt.gz
Theta_e
309 310 309 308 307 307 307 308 309 310 312 314 314 314 309 309 309 310 318 321 323 326 330 330 330 331 331 331 330 329 329 327 327 328 329 330 331 331 331 331 328 325 323
306 308 308 307 306 305 306 307 308 310 312 314 315 316 313 309 309 310 314 313 314 321 328 328 329 328 329 327 324 323 325 327 327 329 329 330 329 331 331 330 330 330 330
306 305 307 306 305 304 305 306 308 309 310 312 314 315 315 310 311 316 315 314 317 320 323 327 327 327 325 323 324 325 328 329 328 329 328 329 329 326 328 329 329 329 330
305 306 306 305 304 303 304 305 306 307 309 310 312 314 312 312 314 315 317 319 320 320 321 324 326 326 326 325 324 325 327 328 328 328 328 328 327 325 325 326 328 328 328
305 305 305 304 303 302 303 304 303 305 307 309 309 311 312 313 312 312 314 315 316 317 318 319 321 326 325 326 327 327 327 328 327 327 327 327 327 327 327 329 325 326 325
304 306 304 303 303 302 302 301 301 300 305 305 305 306 308 309 308 310 307 308 310 308 310 314 314 316 319 323 322 323 324 324 325 325 326 326 326 326 326 326 326 325 325
303 306 304 303 302 302 301 299 298 297 298 300 302 303 302 302 302 302 300 301 300 301 305 305 306 315 308 315 317 318 318 317 317 317 318 321 321 321 325 325 325 325 325
303 304 304 302 302 301 300 299 297 295 296 296 297 297 298 297 296 297 296 296 297 296 298 298 299 300 302 305 308 309 308 308 309 309 308 309 311 310 311 314 316 323 324
305 305 303 302 302 300 300 298 297 296 294 293 293 293 293 293 294 293 293 293 293 294 295 294 295 296 296 297 297 298 298 298 300 299 300 301 302 303 306 308 307 311 317
305 304 303 302 301 300 299 298 297 295 295 295 294 294 293 292 292 292 292 292 292 292 292 292 293 293 294 295 295 296 296 297 298 297 298 300 301 301 303 298 302 305 308
304 304 304 303 302 301 299 297 296 295 294 294 293 293 293 292 292 291 290 290 290 290 290 290 290 290 291 292 292 293 293 294 295 295 295 296 297 301 297 294 300 301 302
304 303 304 304 302 300 299 296 295 295 294 294 293 293 292 291 290 289 289 288 288 289 289 289 289 289 289 291 291 289 290 291 292 292 293 294 296 296 294 294 297 298 299
303 303 303 303 302 301 299 297 296 295 294 293 293 292 291 290 289 289 288 288 288 288 288 288 288 288 289 290 290 289 289 289 290 291 292 292 292 292 292 295 295 295 296
305 304 303 303 303 302 300 297 295 294 294 293 292 291 290 289 289 288 288 288 288 288 288 288 288 288 288 289 290 290 290 289 289 290 291 291 291 290 293 292 293 296 295
305 305 304 303 303 302 299 296 295 294 293 293 292 291 290 289 288 288 288 288 288 287 287 287 287 287 287 288 290 290 290 289 288 289 290 290 290 291 291 292 293 292 291
306 306 304 303 300 299 299 298 296 294 293 292 291 290 289 288 288 288 287 287 287 287 286 287 287 287 287 288 290 290 289 289 288 289 289 289 290 290 290 291 291 290 290
306 305 304 303 303 300 300 297 296 294 293 292 291 290 289 288 288 287 287 286 286 286 286 286 286 286 287 288 289 290 289 288 288 288 288 289 289 290 289 290 289 288 289
305 304 303 303 303 302 299 298 296 294 292 291 290 289 289 288 287 286 286 286 286 286 286 286 286 286 286 287 289 289 289 289 288 288 288 288 288 289 290 290 289 289 288
304 305 306 304 303 301 298 297 295 293 292 291 290 289 288 287 286 286 285 285 285 286 286 286 286 286 287 287 289 289 289 288 288 288 288 288 288 288 290 290 289 289 289
304 304 303 303 301 298 297 296 294 293 291 290 289 288 287 286 285 285 285 285 285 285 285 286 286 286 286 287 288 288 288 288 288 288 288 288 288 288 289 289 289 289 289
303 303 302 300 299 297 296 294 293 291 291 289 288 286 286 285 285 285 285 285 285 285 285 285 286 285 285 286 286 287 287 287 288 288 287 287 287 288 289 289 290 289 289
301 300 299 297 296 295 294 293 291 291 289 288 286 286 285 285 285 285 285 285 284 284 285 285 285 285 285 285 285 285 286 286 286 286 286 286 286 288 288 289 289 289 289
300 300 297 294 293 293 293 291 290 289 288 286 285 285 285 285 285 285 285 284 284 284 284 284 284 284 284 284 284 284 285 285 285 285 285 286 286 287 287 286 287 287 287
298 299 295 292 291 292 291 290 289 287 286 285 284 284 284 285 285 284 284 284 284 284 284 284 284 284 284 284 284 284 285 285 285 285 285 285 286 286 286 286 285 285 286
298 297 295 293 292 291 290 288 287 286 285 284 284 284 284 284 284 284 284 284 284 285 285 285 285 285 284 284 285 285 285 285 285 285 285 285 284 284 284 285 285 285 286
297 295 294 293 292 290 288 287 286 285 284 284 284 284 284 284 284 283 283 283 284 284 285 285 284 284 285 284 284 284 284 284 284 284 283 283 284 284 284 284 285 285 284